[[[{"header":{"parameterUnit":"kt","parameterCategory":2,"dx":1,"dy":1,"la1":29.587661999999998,"la2":31.0,"lo1":-88.76705300000003,"lo2":-86.6583820000003,"nx":115,"ny":88,"refTime":"2022-10-03T06:00:00:Z","depth":0,"parameterNumber":1,"parameterNumberName":"U-component_of_WINDS"},"data":[4.1033,4.1033,4.1033,4.1278,4.1761,4.1749,4.1785,4.1752,4.1775,4.1874,4.1768,4.1161,4.074,4.103,4.0547,4.02,4.0046,4.0214,4.0214,4.0238,4.0238,4.0238,4.0238,4.0238,4.0238,4.0238,4.0238,4.0238,4.0238,4.0238,4.0238,4.0238,4.0238,4.0496,4.099,4.1507,4.2001,4.2494,4.2941,4.327,4.334,4.3364,4.3364,4.3364,4.3364,4.3364,4.3364,4.3364,4.3387,4.3599,4.3951,4.4186,4.3504,4.203,4.0941,4.0732,3.9743,3.7893,3.5885,3.4444,3.2188,2.9286,2.7677,2.5316,2.5078,2.4777,2.4685,2.4551,2.4617,2.4868,2.521,2.5553,2.5672,2.5909,2.6041,2.6041,2.6041,2.6041,2.6041,2.6041,2.6041,2.6041,2.6041,2.6041,2.6041,2.6041,2.6041,2.6041,2.6028,2.5817,2.5685,2.546,2.5235,2.4852,2.4419,2.438,2.4366,2.4327,2.4301,2.4301,2.4301,2.4314,2.4406,2.4819,2.4939,2.5165,2.5662,2.7113,2.7727,2.9084,3.2247,3.462,3.6839,3.9523,4.3756,4.1033,4.1033,4.1033,4.1094,4.1094,4.1137,4.1172,4.1182,4.1198,4.1422,4.1775,4.1123,4.0505,4.0379,4.0207,3.9914,3.983,4.014,4.0214,4.0238,4.0238,4.0238,4.0238,4.0238,4.0238,4.0238,4.0238,4.0238,4.0238,4.0238,4.0238,4.0238,4.0355,4.052,4.1013,4.1554,4.2142,4.2682,4.3035,4.3317,4.3364,4.3364,4.3364,4.3364,4.3364,4.3364,4.334,4.3338,4.3476,4.361,4.3538,4.3867,4.3166,4.122,4.0163,3.8454,3.7424,3.4865,3.2575,3.1748,2.9808,2.747,2.6126,2.5209,2.4881,2.4685,2.4685,2.4633,2.4659,2.4947,2.5329,2.5712,2.587,2.5975,2.6015,2.6041,2.6041,2.6041,2.6041,2.6041,2.6041,2.6041,2.6041,2.6041,2.6041,2.6041,2.6041,2.6041,2.5962,2.5778,2.55,2.5262,2.4997,2.4746,2.438,2.4327,2.4327,2.4301,2.4301,2.4301,2.434,2.4485,2.4604,2.4683,2.4894,2.5262,2.5709,2.6093,2.6613,2.7566,2.9773,3.1372,3.3604,3.6663,4.1153,4.1033,4.1033,4.1033,4.1033,4.1033,4.1033,4.1033,4.1033,4.0971,4.1188,4.1334,4.1137,4.073,4.0491,4.0497,4.0312,4.0152,4.018,4.0144,4.0214,4.0238,4.0238,4.0238,4.0238,4.0238,4.0238,4.0238,4.0238,4.0238,4.0238,4.0238,4.0238,4.0308,4.0637,4.146,4.1719,4.2212,4.2964,4.3199,4.334,4.3364,4.3364,4.3364,4.3364,4.2977,4.1936,4.1622,4.0696,3.9927,3.9109,4.0947,4.1747,4.1645,3.9562,3.7443,3.5634,3.4032,3.1833,2.9818,2.9083,2.9202,2.6726,2.496,2.4841,2.4528,2.4646,2.4659,2.4933,2.4947,2.5158,2.5553,2.5844,2.5922,2.5988,2.6028,2.6041,2.6041,2.6041,2.6041,2.6041,2.6041,2.6041,2.6041,2.6041,2.6041,2.6041,2.6041,2.6041,2.5777,2.5593,2.5237,2.4973,2.4657,2.438,2.4301,2.4301,2.4301,2.4301,2.4301,2.4327,2.4393,2.4528,2.4725,2.4894,2.5065,2.5395,2.5698,2.5923,2.643,2.6833,2.7717,2.86,3.0748,3.3428,3.6029,4.1162,4.0997,4.1188,4.1137,4.1059,4.1188,4.1188,4.1033,4.1033,4.1033,4.1033,4.1023,4.0859,4.0493,4.0373,4.0126,4.0009,3.9821,3.9979,4.0026,4.0214,4.0238,4.0238,4.0238,4.0238,4.0238,4.0238,4.0238,4.0238,4.0238,4.0238,4.0261,4.0496,4.0896,4.1695,4.2024,4.2447,4.3176,4.334,4.334,4.3364,4.3364,4.3268,4.3195,4.1936,4.0528,3.9483,3.8165,3.5905,3.4763,3.7099,3.8281,3.909,3.6421,3.374,3.1483,3.045,2.8569,2.7211,2.7299,2.7256,2.5419,2.4593,2.4436,2.4423,2.4567,2.4828,2.5052,2.5276,2.5514,2.5751,2.5909,2.6041,2.6041,2.6041,2.6041,2.6041,2.6041,2.6041,2.6041,2.6041,2.6041,2.6041,2.6041,2.6041,2.6028,2.6015,2.587,2.5672,2.5289,2.5013,2.4696,2.438,2.4314,2.4314,2.4301,2.4301,2.4301,2.4314,2.4366,2.4344,2.4567,2.4791,2.5013,2.5263,2.5566,2.5817,2.5949,2.6055,2.6269,2.6927,2.749,2.9242,3.0108,3.1451,4.1588,4.1085,4.1666,4.1552,4.1162,4.164,4.1588,4.1059,4.1085,4.1033,4.0997,4.1033,4.0715,4.0264,4.0053,3.974,3.9465,3.9485,3.9556,3.949,3.9932,4.0191,4.0214,4.0238,4.0238,4.0238,4.0238,4.0238,4.0238,4.0332,4.0379,4.0285,4.0708,4.1272,4.1907,4.2236,4.2682,4.3246,4.3364,4.3364,4.3364,4.3364,4.3268,4.2686,4.0893,3.8437,3.7484,3.6052,3.4318,3.441,3.4988,3.5268,3.4956,3.3482,3.1906,3.0058,2.8007,2.6419,2.5888,2.584,2.5315,2.4912,2.4498,2.4406,2.4538,2.4722,2.5078,2.5342,2.5514,2.5738,2.5856,2.5988,2.6041,2.6041,2.6041,2.6041,2.6041,2.6041,2.6041,2.6041,2.6041,2.6041,2.6041,2.5922,2.5909,2.5922,2.5856,2.5738,2.5447,2.5052,2.4749,2.4432,2.4327,2.4314,2.4301,2.4301,2.4301,2.4314,2.434,2.4393,2.4475,2.4672,2.4947,2.5263,2.558,2.5843,2.5949,2.5988,2.6028,2.6135,2.6296,2.6618,2.6779,2.7248,2.852,4.1822,4.1718,4.2212,4.2279,4.2071,4.2004,4.2056,4.2082,4.177,4.1614,4.15,4.1188,4.0663,4.0087,3.9854,3.9495,3.8935,3.9011,3.9157,3.9321,3.9674,3.9932,4.0167,4.0238,4.0238,4.0238,4.0238,4.0238,4.0332,4.0473,4.0708,4.0755,4.1249,4.1766,4.2024,4.2304,4.275,4.2814,4.3195,4.3364,4.3364,4.3364,4.1936,4.0601,3.9556,3.5994,3.3024,3.1857,2.9767,2.8547,3.1153,3.1766,3.1586,3.1305,3.0218,2.7527,2.5983,2.5509,2.4973,2.4788,2.4657,2.4498,2.4366,2.4406,2.4617,2.492,2.5289,2.558,2.5764,2.5896,2.5975,2.6041,2.6041,2.6041,2.6041,2.6041,2.6041,2.6041,2.6041,2.6041,2.6041,2.6041,2.5975,2.5843,2.5844,2.5804,2.5698,2.5447,2.5039,2.4775,2.4498,2.4327,2.4314,2.4301,2.4301,2.4301,2.4301,2.4314,2.438,2.4551,2.462,2.483,2.5171,2.5514,2.587,2.5936,2.6001,2.6041,2.6041,2.6041,2.6135,2.6296,2.6296,2.6215,2.694,4.1874,4.1796,4.2499,4.2811,4.2733,4.2369,4.2294,4.2323,4.1644,4.1387,4.1299,4.0735,4.0134,3.9789,3.9454,3.91,3.8775,3.8601,3.8751,3.9063,3.9345,3.9674,3.9956,4.0144,4.0238,4.0238,4.0238,4.0238,4.0355,4.0755,4.099,4.1296,4.1789,4.2142,4.2115,4.1703,4.0749,4.044,4.1039,4.0601,4.0236,3.9775,3.8897,3.7116,3.5847,3.3412,3.0149,2.8601,2.6972,2.5216,2.7131,2.8142,2.8248,2.8413,2.8282,2.5469,2.5143,2.5024,2.4683,2.4541,2.4462,2.4366,2.4419,2.4501,2.4894,2.525,2.558,2.5764,2.5922,2.5962,2.6028,2.6041,2.6041,2.6041,2.6041,2.6041,2.6041,2.6041,2.6041,2.6041,2.6041,2.6041,2.6001,2.5843,2.5685,2.5593,2.5394,2.4986,2.4696,2.4512,2.4314,2.4314,2.4301,2.4301,2.4301,2.4301,2.4301,2.4353,2.4551,2.4722,2.492,2.5158,2.5408,2.5659,2.5896,2.6001,2.6041,2.6041,2.6041,2.6041,2.6041,2.6041,2.6041,2.6041,2.6524,4.164,4.1266,4.2253,4.2811,4.2747,4.2695,4.2311,4.1605,4.0464,4.0075,3.9963,3.9617,3.9307,3.9071,3.8464,3.8226,3.8097,3.7976,3.8045,3.8287,3.8875,3.9251,3.9603,3.9932,4.005,4.0167,4.0238,4.0261,4.0308,4.0755,4.1272,4.1719,4.1669,4.1256,4.0504,3.9306,3.7455,3.7003,3.7484,3.7557,3.6602,3.5405,3.5036,3.3781,3.2079,3.0074,2.8228,2.6523,2.5127,2.4615,2.4628,2.4877,2.4935,2.4902,2.5101,2.5013,2.4868,2.4657,2.4432,2.4393,2.4327,2.4432,2.4515,2.4868,2.5249,2.5553,2.5751,2.5922,2.6001,2.6028,2.6041,2.6041,2.6041,2.6041,2.6041,2.6041,2.6041,2.6041,2.6041,2.6041,2.6041,2.5975,2.5922,2.5738,2.5553,2.5381,2.5013,2.4696,2.4512,2.4314,2.4314,2.4301,2.4301,2.4301,2.4301,2.4301,2.4327,2.4459,2.467,2.4947,2.5184,2.55,2.5712,2.583,2.5988,2.6041,2.6041,2.6041,2.6041,2.6041,2.6041,2.6041,2.6041,2.6041,2.6041,4.1848,4.1744,4.2499,4.2928,4.3149,4.2452,4.2207,4.2046,4.1296,4.0873,4.0651,3.9935,3.9352,3.8878,3.8323,3.8005,3.747,3.7433,3.7488,3.7958,3.8358,3.8734,3.911,3.9396,3.9838,3.9862,4.0003,4.0261,4.0308,4.0778,4.1319,4.1368,4.0514,3.9191,3.7187,3.6296,3.4667,3.4151,3.4151,3.4667,3.3781,3.3116,3.2524,3.0818,2.9421,2.7929,2.6224,2.5113,2.4376,2.4376,2.4389,2.4429,2.4482,2.4459,2.4498,2.4564,2.4498,2.4432,2.434,2.4314,2.4432,2.4564,2.4944,2.5235,2.5434,2.5698,2.5909,2.6001,2.6028,2.6041,2.6041,2.6041,2.6041,2.6041,2.6041,2.6041,2.6041,2.6041,2.6041,2.6041,2.6028,2.5883,2.5844,2.5619,2.5276,2.4986,2.4736,2.4538,2.434,2.4314,2.4301,2.4301,2.4301,2.4301,2.4301,2.434,2.4459,2.4577,2.4854,2.5171,2.5487,2.5698,2.583,2.6028,2.6041,2.6041,2.6041,2.6041,2.6041,2.6041,2.6041,2.6041,2.6041,2.6041,2.6041,4.1666,4.1718,4.2291,4.2733,4.28,4.1914,4.1617,4.1797,4.1342,4.089,4.0588,3.9884,3.9152,3.8864,3.8435,3.8126,3.7786,3.7676,3.7535,3.8005,3.8428,3.8481,3.8875,3.9415,3.9791,3.9862,4.0026,4.0285,4.0337,4.1084,4.1578,4.1247,3.9849,3.6342,3.3264,3.2153,3.1412,3.0983,3.1708,3.1634,3.0669,3.0223,2.9421,2.7496,2.7346,2.6299,2.4751,2.4676,2.4301,2.4301,2.4301,2.4314,2.4327,2.4327,2.4327,2.4314,2.4314,2.4301,2.4314,2.4432,2.4538,2.4788,2.5065,2.5473,2.5672,2.5883,2.6001,2.6041,2.6041,2.6041,2.6041,2.6041,2.6041,2.6041,2.6041,2.6041,2.6028,2.6028,2.6015,2.6001,2.6028,2.5909,2.5619,2.5369,2.4986,2.4657,2.4538,2.4353,2.4301,2.4301,2.4301,2.4301,2.4301,2.4301,2.4366,2.4485,2.4528,2.4672,2.5013,2.5421,2.5593,2.5804,2.5975,2.6028,2.6041,2.6041,2.6041,2.6041,2.6041,2.6041,2.6041,2.6041,2.6041,2.6041,2.6081,4.0997,4.1049,4.1718,4.1952,4.1753,4.1073,4.068,4.0561,4.0425,4.0123,3.9684,3.9123,3.8799,3.8775,3.8675,3.8516,3.8475,3.8458,3.834,3.8264,3.8687,3.888,3.9115,3.9486,3.9909,4.0167,3.9679,3.9637,4.0371,3.9951,4.0591,4.0303,3.7687,3.452,2.957,2.8974,2.7346,2.5413,2.778,2.7197,2.6149,2.5788,2.5788,2.5113,2.5113,2.5263,2.4376,2.4301,2.4301,2.4301,2.4301,2.4301,2.4301,2.4301,2.4301,2.4301,2.4301,2.4301,2.4327,2.4515,2.4672,2.492,2.5289,2.5659,2.5764,2.5843,2.6041,2.6041,2.6041,2.6041,2.6041,2.6041,2.6041,2.6041,2.6041,2.6041,2.6015,2.6001,2.5936,2.5896,2.5949,2.5883,2.55,2.5144,2.4722,2.4472,2.434,2.4301,2.4301,2.4301,2.4301,2.4301,2.4301,2.434,2.4459,2.4528,2.4685,2.4843,2.5144,2.5461,2.5725,2.5909,2.5988,2.6028,2.6041,2.6041,2.6041,2.6041,2.6041,2.6041,2.6041,2.6041,2.6041,2.6067,2.6186,4.0294,4.0381,4.1029,4.0797,3.9866,3.9182,3.9062,3.9343,3.9293,3.9429,3.9979,3.9443,3.9251,3.9133,3.888,3.8692,3.8804,3.8716,3.8575,3.8557,3.8632,3.8739,3.8927,3.9147,3.9394,3.9283,3.8503,3.758,3.7931,3.6353,3.6085,3.5262,3.3194,3.1491,2.8287,2.7047,2.5338,2.4526,2.5338,2.4827,2.4676,2.4301,2.4301,2.4301,2.4301,2.4301,2.4301,2.4301,2.4301,2.4301,2.4301,2.4301,2.4301,2.4301,2.4301,2.4301,2.4301,2.4301,2.438,2.4604,2.492,2.5224,2.5632,2.5791,2.587,2.5988,2.6041,2.6041,2.6041,2.6041,2.6041,2.6041,2.6041,2.6028,2.6028,2.5962,2.5936,2.5817,2.5777,2.5738,2.5659,2.554,2.5249,2.4999,2.4643,2.4406,2.4327,2.4301,2.4301,2.4301,2.4301,2.4301,2.4301,2.4419,2.4488,2.4749,2.4933,2.5105,2.5395,2.5672,2.5817,2.5936,2.6041,2.6041,2.6041,2.6041,2.6041,2.6041,2.6041,2.6041,2.6041,2.6041,2.6054,2.612,2.6252,3.9677,3.9677,4.0109,3.9826,3.9022,3.8378,3.826,3.8559,3.8449,3.8898,3.9627,3.9744,3.9768,3.9697,3.9415,3.9298,3.9298,3.9298,3.918,3.8871,3.7974,3.749,3.7447,3.7606,3.8076,3.7696,3.6895,3.6112,3.595,3.4547,3.2486,2.9599,2.808,2.7198,2.6795,2.5344,2.4499,2.4376,2.4376,2.4376,2.4301,2.4301,2.4301,2.4301,2.4301,2.4301,2.4301,2.4301,2.4301,2.4301,2.4301,2.4301,2.4301,2.4301,2.4301,2.4301,2.4301,2.4301,2.4353,2.4591,2.4999,2.554,2.5804,2.5923,2.5988,2.6041,2.6041,2.6041,2.6041,2.6041,2.6041,2.6041,2.6028,2.6015,2.5962,2.587,2.5751,2.5553,2.5553,2.5526,2.5368,2.5183,2.4973,2.4841,2.4591,2.4366,2.4327,2.4301,2.4301,2.4301,2.4301,2.4301,2.4301,2.4393,2.4567,2.4881,2.5092,2.5382,2.5672,2.583,2.5949,2.6041,2.6041,2.6041,2.6041,2.6041,2.6041,2.6041,2.6041,2.6041,2.6041,2.6041,2.6107,2.6173,2.6397,3.896,3.896,3.8898,3.8898,3.8836,3.8254,3.8005,3.8001,3.7976,3.8264,3.8828,3.9627,4.0073,4.0167,4.0097,4.0073,4.0191,4.0238,3.9484,3.8366,3.7001,3.5728,3.4993,3.5185,3.5591,3.5952,3.4312,3.4891,3.5352,3.2353,2.8134,2.4399,2.4893,2.4268,2.4127,2.4382,2.4177,2.4208,2.4287,2.4301,2.4301,2.4301,2.4301,2.4301,2.4301,2.4301,2.4301,2.4301,2.4301,2.4301,2.4301,2.4301,2.4301,2.4301,2.4301,2.4301,2.4301,2.434,2.4498,2.4736,2.5092,2.55,2.591,2.6001,2.6041,2.6041,2.6041,2.6041,2.6041,2.6041,2.6041,2.6041,2.6001,2.5936,2.5804,2.5778,2.5606,2.5407,2.5171,2.5235,2.5116,2.4868,2.4722,2.4643,2.4432,2.434,2.4301,2.4301,2.4301,2.4301,2.4301,2.4314,2.4314,2.4498,2.4685,2.5052,2.5342,2.5645,2.583,2.5962,2.6041,2.6041,2.6041,2.6041,2.6041,2.6041,2.6041,2.6041,2.6041,2.6041,2.6041,2.6041,2.6094,2.6239,2.6421,3.8067,3.7657,3.7633,3.7571,3.7594,3.7446,3.7384,3.7455,3.7739,3.7982,3.8381,3.918,3.9885,4.0167,4.0238,4.0238,4.0238,4.0238,3.8841,3.7243,3.5842,3.4373,3.3088,3.2475,3.3498,3.5789,3.2079,3.1401,3.0967,2.8548,2.5414,2.3734,2.3569,2.3622,2.3648,2.3767,2.3865,2.4037,2.4208,2.4301,2.4301,2.4301,2.4301,2.4301,2.4301,2.4301,2.4301,2.4301,2.4301,2.4301,2.4301,2.4301,2.4301,2.4301,2.4301,2.4301,2.438,2.4459,2.4736,2.5052,2.5487,2.5725,2.5856,2.6001,2.6015,2.6041,2.6041,2.5975,2.5975,2.6001,2.6041,2.6015,2.5909,2.5831,2.5685,2.5553,2.5381,2.5039,2.4854,2.4828,2.4736,2.4577,2.4538,2.4459,2.4393,2.4327,2.4301,2.4301,2.4301,2.4301,2.4327,2.4366,2.4459,2.4709,2.4999,2.5316,2.5606,2.5856,2.5962,2.6041,2.6041,2.6041,2.6041,2.6041,2.6041,2.6041,2.6041,2.6041,2.6041,2.6041,2.6041,2.6041,2.6146,2.625,2.6499,3.7446,3.7135,3.7135,3.7135,3.7135,3.7135,3.7135,3.7206,3.7441,3.77,3.8052,3.8804,3.9439,3.9952,4.0504,4.0507,4.0373,4.0575,3.9472,3.8165,3.4999,3.2863,3.1288,3.0258,3.0,3.0673,2.9171,2.8625,2.777,2.5487,2.2877,2.3061,2.318,2.3259,2.3259,2.3582,2.372,2.3905,2.4142,2.4287,2.4301,2.4301,2.4301,2.4301,2.4301,2.4301,2.4301,2.4301,2.4301,2.4301,2.4301,2.4301,2.4301,2.4301,2.4314,2.4327,2.4512,2.4802,2.5078,2.5487,2.5632,2.579,2.5817,2.587,2.583,2.5738,2.5659,2.5685,2.5685,2.5659,2.5659,2.5685,2.5645,2.5526,2.5263,2.5118,2.496,2.4709,2.4564,2.4498,2.4357,2.4419,2.438,2.4353,2.434,2.4301,2.4301,2.4301,2.4301,2.4301,2.434,2.4406,2.4643,2.492,2.5224,2.55,2.5777,2.5936,2.6041,2.6041,2.6041,2.6041,2.6041,2.6041,2.6041,2.6041,2.6041,2.6041,2.6041,2.6041,2.6041,2.6173,2.6236,2.6394,2.6687,3.7135,3.7135,3.7135,3.7135,3.7135,3.7135,3.7135,3.7135,3.7159,3.7394,3.7794,3.8381,3.8833,3.9481,4.042,4.0547,4.0551,4.071,4.0214,3.812,3.4658,3.2111,3.0327,2.8208,2.8829,2.7826,2.7358,2.698,2.6835,2.4972,2.3382,2.3226,2.3429,2.2911,2.3016,2.3404,2.3813,2.3918,2.4116,2.4261,2.4287,2.4301,2.4301,2.4301,2.4301,2.4301,2.4301,2.4301,2.4301,2.4301,2.4301,2.4301,2.4314,2.4314,2.4353,2.4551,2.4971,2.5421,2.5579,2.5659,2.5764,2.579,2.5685,2.5659,2.5606,2.5473,2.5368,2.5275,2.5302,2.5354,2.5381,2.5328,2.5262,2.5092,2.4986,2.4777,2.4607,2.4498,2.4419,2.4353,2.4366,2.4327,2.4301,2.4301,2.4301,2.4301,2.4301,2.4301,2.4301,2.4301,2.4327,2.4485,2.4696,2.5052,2.546,2.5632,2.5856,2.6001,2.6041,2.6041,2.6041,2.6041,2.6041,2.6041,2.6041,2.6041,2.6041,2.6041,2.6041,2.6041,2.6041,2.6212,2.6355,2.6621,2.6766,3.7135,3.7135,3.7135,3.7135,3.7135,3.7135,3.7135,3.7135,3.7135,3.7206,3.737,3.7864,3.8381,3.8963,3.9524,3.9995,4.0305,4.0979,3.9675,3.7488,3.5292,3.2061,2.9863,2.8898,2.9036,2.7464,2.7534,2.698,2.7049,2.6495,2.6149,2.5236,2.3382,2.2687,2.2982,2.3318,2.3483,2.3734,2.3971,2.4103,2.4248,2.4301,2.4301,2.4301,2.4301,2.4301,2.4301,2.4301,2.4301,2.4301,2.4314,2.4314,2.434,2.4525,2.4762,2.5013,2.5407,2.5593,2.5685,2.5685,2.5712,2.5672,2.55,2.5394,2.5315,2.5262,2.5222,2.5275,2.5235,2.5209,2.5169,2.5235,2.5065,2.4894,2.4762,2.467,2.4472,2.4366,2.4301,2.4301,2.4301,2.4301,2.4301,2.4301,2.4301,2.4301,2.4301,2.4301,2.4301,2.4301,2.4366,2.4538,2.4815,2.5184,2.554,2.5804,2.5922,2.6041,2.6041,2.6041,2.6041,2.6041,2.6041,2.6041,2.6041,2.6041,2.6041,2.6041,2.6041,2.6041,2.6041,2.6199,2.6434,2.6657,2.6964,3.7135,3.7135,3.7135,3.7135,3.7135,3.7135,3.7135,3.7135,3.7135,3.7135,3.7276,3.7652,3.8076,3.8405,3.8875,3.9392,4.0105,4.1079,4.0484,3.8504,3.6945,3.4337,3.2883,3.1219,2.9656,2.8691,3.0533,3.1288,2.8363,2.9105,2.8139,2.6734,2.5928,2.4671,2.3848,2.3834,2.398,2.39,2.4037,2.4169,2.4287,2.4301,2.4301,2.4301,2.4301,2.4301,2.4301,2.4301,2.4301,2.434,2.4357,2.4498,2.4643,2.4881,2.5237,2.5473,2.5725,2.5777,2.5712,2.5685,2.5606,2.5487,2.5144,2.4999,2.496,2.4944,2.4736,2.4825,2.4839,2.4839,2.4865,2.4736,2.4696,2.4564,2.4525,2.4446,2.4353,2.4314,2.4301,2.4301,2.4301,2.4301,2.4301,2.4301,2.4301,2.4301,2.4301,2.4301,2.4301,2.434,2.4393,2.4617,2.492,2.5329,2.5764,2.5922,2.6028,2.6041,2.6041,2.6041,2.6041,2.6041,2.6041,2.6041,2.6041,2.6041,2.6041,2.6041,2.6041,2.6041,2.6186,2.6289,2.6552,2.6841,2.7228,3.7135,3.7135,3.7135,3.7135,3.7135,3.7135,3.7135,3.7135,3.7135,3.7135,3.7182,3.7582,3.7794,3.8029,3.8428,3.894,3.9896,4.1213,4.1639,4.0753,3.9247,3.7398,3.6223,3.491,3.2384,3.1357,3.457,3.5455,3.2521,3.2236,3.1867,2.8668,2.839,2.7785,2.6175,2.496,2.465,2.4456,2.4243,2.4261,2.4301,2.4301,2.4301,2.4301,2.4301,2.434,2.4366,2.4393,2.4406,2.4472,2.4683,2.4828,2.4999,2.5395,2.5712,2.5791,2.5817,2.587,2.5593,2.5593,2.5407,2.5209,2.4841,2.4683,2.4541,2.4485,2.4432,2.438,2.4366,2.434,2.4301,2.4393,2.4327,2.4314,2.4327,2.4314,2.4314,2.4301,2.4301,2.4301,2.4301,2.4301,2.4301,2.4301,2.4301,2.4301,2.4301,2.4301,2.4301,2.434,2.4432,2.4709,2.4999,2.5461,2.5922,2.5975,2.6041,2.6041,2.6041,2.6041,2.6041,2.6041,2.6041,2.6041,2.6041,2.6041,2.6041,2.6041,2.6054,2.6081,2.6318,2.6486,2.671,2.703,2.736,3.7135,3.7135,3.7135,3.7135,3.7135,3.7135,3.7135,3.7135,3.7135,3.7135,3.7182,3.7206,3.7535,3.7817,3.8005,3.8655,3.9672,4.0965,4.1877,4.1906,4.1176,4.0033,3.8954,3.9157,3.8459,3.688,3.9831,3.9607,3.7304,3.7179,3.6298,3.5544,3.2628,2.98,2.8927,2.6988,2.5096,2.4841,2.4486,2.4301,2.4301,2.4301,2.4301,2.4301,2.4301,2.4393,2.4591,2.458,2.4775,2.5116,2.5183,2.5328,2.5474,2.579,2.5975,2.5962,2.5764,2.5738,2.5474,2.5171,2.4907,2.4751,2.4538,2.4393,2.4393,2.434,2.4301,2.4301,2.4301,2.4301,2.4301,2.4301,2.4301,2.4301,2.4301,2.4301,2.4301,2.4301,2.4301,2.4301,2.4301,2.4301,2.4301,2.4301,2.4301,2.4301,2.4301,2.4301,2.4301,2.434,2.4512,2.4749,2.5013,2.55,2.579,2.5922,2.6028,2.6041,2.6041,2.6041,2.6041,2.6041,2.6041,2.6041,2.6041,2.6041,2.6041,2.6054,2.6067,2.6107,2.6318,2.6591,2.6938,2.7162,2.7425,3.7446,3.7135,3.7135,3.7135,3.7135,3.7135,3.7135,3.7135,3.7135,3.7135,3.7135,3.7135,3.7276,3.7488,3.7511,3.792,3.8752,3.9449,4.05,4.1869,4.2599,4.2072,4.1401,4.234,4.2967,4.1846,4.2875,4.1999,4.0703,4.0528,3.9521,3.5603,3.4554,3.2017,2.8454,2.6753,2.556,2.4936,2.4451,2.4301,2.4301,2.4301,2.4301,2.4301,2.4314,2.4432,2.4646,2.4672,2.4907,2.5222,2.5421,2.554,2.5897,2.5975,2.5949,2.5843,2.5738,2.5514,2.5197,2.4817,2.4593,2.4525,2.4393,2.4314,2.4301,2.4301,2.4301,2.4301,2.4301,2.4301,2.4301,2.4301,2.4301,2.4301,2.4301,2.4301,2.4301,2.4301,2.4301,2.4301,2.4301,2.4301,2.4301,2.4301,2.4301,2.4301,2.4301,2.4301,2.4301,2.4327,2.4512,2.4841,2.5156,2.5421,2.5764,2.5909,2.6041,2.6041,2.6041,2.6041,2.6041,2.6041,2.6041,2.6041,2.6041,2.6041,2.6054,2.6067,2.6081,2.6252,2.6502,2.671,2.7083,2.7346,2.761,3.7757,3.7135,3.7135,3.7135,3.7135,3.7135,3.7135,3.7135,3.7135,3.7135,3.7135,3.7135,3.7135,3.7159,3.7206,3.7347,3.7786,3.8339,3.912,4.13,4.2637,4.3313,4.3293,4.3597,4.4031,4.4028,4.4187,4.3377,4.2181,4.2147,4.0441,3.5392,3.5266,3.2902,2.8156,2.7078,2.5695,2.4644,2.427,2.4221,2.4261,2.4301,2.4301,2.4301,2.4301,2.4459,2.4607,2.4672,2.4894,2.5158,2.546,2.558,2.5804,2.5843,2.5764,2.5698,2.5579,2.521,2.4841,2.462,2.4551,2.4353,2.4314,2.4301,2.4301,2.4301,2.4301,2.4301,2.4301,2.4301,2.4301,2.4301,2.4301,2.4301,2.4301,2.4301,2.4301,2.4301,2.4301,2.4301,2.4301,2.4301,2.4301,2.4301,2.4301,2.4301,2.4301,2.4301,2.4301,2.4301,2.4617,2.5116,2.5315,2.546,2.5711,2.5988,2.6041,2.6041,2.6041,2.6041,2.6041,2.6041,2.6041,2.6041,2.6041,2.6054,2.6054,2.6081,2.6212,2.6407,2.6657,2.699,2.7254,2.7544,2.7795,3.7757,3.7135,3.7135,3.7135,3.7135,3.7135,3.7135,3.7135,3.7135,3.7135,3.7135,3.7135,3.7135,3.7135,3.7135,3.7182,3.7339,3.822,3.9228,4.0522,4.2128,4.3136,4.28,4.3136,4.3422,4.3642,4.3682,4.37,4.3436,4.1962,4.0715,3.8683,3.4926,3.2446,2.9913,2.7327,2.5656,2.4898,2.4463,2.4286,2.4221,2.4438,2.4376,2.4376,2.4301,2.4446,2.4554,2.4685,2.4868,2.5262,2.5288,2.546,2.5659,2.5487,2.546,2.5526,2.5144,2.4791,2.4633,2.4498,2.434,2.4314,2.4301,2.4301,2.4301,2.4301,2.4301,2.4301,2.4301,2.4301,2.4301,2.4301,2.4301,2.4301,2.4301,2.4301,2.4301,2.4301,2.4301,2.4301,2.4301,2.4301,2.4301,2.4301,2.4301,2.4301,2.4301,2.4301,2.4301,2.4314,2.4604,2.5156,2.5368,2.5513,2.5738,2.6041,2.6041,2.6041,2.6041,2.6041,2.6041,2.6041,2.6041,2.6041,2.6041,2.6054,2.6054,2.6199,2.6371,2.6595,2.6819,2.7096,2.7471,2.7676,2.7795,3.8254,3.7695,3.7322,3.7135,3.7135,3.7135,3.7135,3.7135,3.7135,3.7135,3.7135,3.7135,3.7135,3.7135,3.7135,3.7135,3.7221,3.8035,3.8926,3.9963,4.1302,4.2015,4.2449,4.3006,4.3149,4.3146,4.3718,4.4157,4.3908,4.2123,4.0211,3.8331,3.4765,3.1535,2.91,2.6988,2.5847,2.5015,2.5197,2.4805,2.4225,2.4657,2.4738,2.4376,2.4301,2.434,2.4409,2.458,2.4725,2.4894,2.4947,2.5143,2.5394,2.5328,2.5171,2.5078,2.4894,2.458,2.4512,2.438,2.4301,2.4301,2.4301,2.4301,2.4301,2.4301,2.4301,2.4301,2.4301,2.4301,2.4301,2.4301,2.4301,2.4301,2.4301,2.4301,2.4301,2.4301,2.4301,2.4301,2.4301,2.4301,2.4301,2.4301,2.4301,2.4301,2.4301,2.4301,2.4301,2.4327,2.4498,2.5024,2.5328,2.5566,2.5777,2.5988,2.6041,2.6041,2.6041,2.6041,2.6041,2.6041,2.6041,2.6041,2.6041,2.6054,2.6054,2.612,2.6371,2.6634,2.6885,2.7149,2.7478,2.7781,2.7795,3.8935,3.8316,3.7695,3.7384,3.7384,3.7198,3.7135,3.7135,3.7135,3.7135,3.7135,3.7135,3.7135,3.7135,3.7135,3.7135,3.726,3.7657,3.8496,3.9565,4.0179,4.0732,4.1529,4.2491,4.294,4.3015,4.3744,4.4312,4.4154,4.1934,3.9432,3.6752,3.387,3.049,2.7159,2.6613,2.583,2.5011,2.5643,2.5477,2.4805,2.5425,2.5352,2.4676,2.4676,2.4526,2.4327,2.4512,2.4554,2.463,2.4554,2.4762,2.5103,2.505,2.4881,2.4775,2.4607,2.4436,2.4353,2.4301,2.4301,2.4301,2.4301,2.4301,2.4301,2.4301,2.4301,2.4301,2.4301,2.4301,2.4301,2.4301,2.4301,2.4301,2.4301,2.4301,2.4301,2.4301,2.4301,2.4301,2.4301,2.4301,2.4301,2.4301,2.4301,2.4301,2.4301,2.4301,2.4301,2.4327,2.4432,2.4868,2.5302,2.5579,2.5764,2.5936,2.6041,2.6041,2.6041,2.6041,2.6041,2.6041,2.6041,2.6041,2.6041,2.6041,2.6054,2.6107,2.6371,2.6565,2.6911,2.7188,2.7531,2.7755,2.7755,3.964,3.896,3.8316,3.8043,3.7981,3.7384,3.7198,3.7198,3.7135,3.7135,3.7135,3.7135,3.7135,3.7135,3.7135,3.7135,3.7135,3.7322,3.8078,3.8872,3.9281,3.9604,4.0303,4.1287,4.2295,4.3134,4.3577,4.3953,4.4164,4.1522,3.8662,3.6209,3.3232,2.957,2.7572,2.6062,2.5893,2.571,2.5731,2.5963,2.6018,2.6394,2.6192,2.5427,2.5352,2.5052,2.4526,2.4491,2.4504,2.434,2.4442,2.4574,2.458,2.4498,2.4525,2.462,2.4472,2.4353,2.4314,2.4301,2.4301,2.4301,2.4301,2.4301,2.4301,2.4301,2.4301,2.4301,2.4301,2.4301,2.4301,2.4301,2.4301,2.4301,2.4301,2.4301,2.4301,2.4301,2.4301,2.4301,2.4301,2.4301,2.4301,2.4301,2.4301,2.4301,2.4301,2.4301,2.4301,2.434,2.4472,2.4736,2.5065,2.5369,2.5751,2.5856,2.6041,2.6041,2.6041,2.6041,2.6041,2.6041,2.6041,2.6041,2.6041,2.6041,2.6081,2.6212,2.641,2.6582,2.6859,2.7215,2.7465,2.7623,2.7689,3.9887,3.964,3.8935,3.8687,3.8625,3.8067,3.7757,3.7695,3.7322,3.7135,3.7135,3.7135,3.7135,3.7135,3.7135,3.7135,3.7198,3.7571,3.8005,3.8426,3.878,3.9237,3.9924,4.0635,4.1481,4.2309,4.3546,4.4028,4.3635,4.1334,3.9538,3.7715,3.3635,3.1393,3.1924,2.8656,2.7448,2.8401,2.765,2.6849,2.6518,2.7064,2.7091,2.6327,2.6192,2.5802,2.5127,2.5502,2.5577,2.5127,2.5052,2.4805,2.4446,2.4366,2.4353,2.4432,2.4366,2.4301,2.4301,2.4301,2.4301,2.4301,2.4301,2.4301,2.4301,2.4301,2.4301,2.4301,2.4301,2.4301,2.4301,2.4301,2.4301,2.4301,2.4301,2.4301,2.4301,2.4301,2.4301,2.4301,2.4301,2.4301,2.4301,2.4301,2.4301,2.4301,2.4301,2.4301,2.4301,2.4301,2.4485,2.4709,2.4999,2.5368,2.5645,2.5804,2.6015,2.6041,2.6041,2.6041,2.6041,2.6041,2.6041,2.6041,2.6041,2.6041,2.6054,2.6212,2.6318,2.6463,2.6539,2.6964,2.7267,2.7439,2.761,4.1068,4.0294,3.964,3.9393,3.9269,3.8687,3.844,3.8316,3.7757,3.7446,3.7384,3.726,3.7135,3.7135,3.7135,3.7135,3.7198,3.7571,3.7915,3.8044,3.8378,3.8968,3.9778,4.0595,4.1169,4.1927,4.3615,4.4235,4.3568,4.2273,4.084,3.9629,3.5952,3.4863,3.5251,3.2011,3.054,3.2103,3.0469,2.9152,2.8632,2.8476,2.7915,2.7166,2.7091,2.6866,2.6267,2.6792,2.6642,2.5816,2.5577,2.5127,2.4451,2.4301,2.4301,2.4301,2.4301,2.4301,2.4301,2.4301,2.4301,2.4301,2.4301,2.4301,2.4301,2.4301,2.4301,2.4301,2.4301,2.4301,2.4301,2.4301,2.4301,2.4301,2.4301,2.4301,2.4301,2.4301,2.4301,2.4301,2.4301,2.4301,2.4301,2.4301,2.4301,2.4301,2.4301,2.4301,2.4301,2.4301,2.4419,2.4696,2.4999,2.5368,2.5645,2.5817,2.5988,2.6041,2.6041,2.6041,2.6041,2.6041,2.6041,2.6041,2.6041,2.6041,2.6041,2.6107,2.6173,2.6292,2.6381,2.6713,2.7017,2.7241,2.7425,4.3427,4.1217,4.0356,4.0232,3.9924,3.9331,3.9084,3.896,3.8378,3.8067,3.8005,3.7446,3.726,3.7198,3.7135,3.7135,3.7135,3.7322,3.7558,3.7944,3.8038,3.8668,3.9561,4.0865,4.1687,4.2223,4.3743,4.4435,4.4368,4.4035,4.2808,4.0638,3.9629,3.8188,3.6066,3.5544,3.5546,3.5724,3.373,3.2592,3.2758,3.0593,2.9021,2.8065,2.8513,2.8722,2.8439,2.8439,2.8274,2.7077,2.6252,2.5277,2.4676,2.4451,2.4376,2.4301,2.4301,2.4301,2.4301,2.4301,2.4301,2.4301,2.4301,2.4301,2.4301,2.4301,2.4301,2.4301,2.4301,2.4301,2.4301,2.4301,2.4301,2.4301,2.4301,2.4301,2.4301,2.4301,2.4301,2.4301,2.4301,2.4301,2.4301,2.4301,2.4301,2.4301,2.4301,2.4301,2.4301,2.4301,2.4432,2.4709,2.4999,2.5368,2.5645,2.591,2.5936,2.6041,2.6041,2.6041,2.6041,2.6041,2.6041,2.6041,2.6041,2.6041,2.6041,2.6054,2.6107,2.6146,2.6305,2.6421,2.674,2.6951,2.7162,4.7538,4.3914,4.3427,4.2356,4.0725,3.9986,3.9702,3.964,3.8997,3.8774,3.8625,3.8067,3.7819,3.7757,3.7322,3.7135,3.7198,3.7633,3.7856,3.7975,3.8736,3.9194,3.9661,4.0772,4.1481,4.1736,4.2657,4.3568,4.4368,4.4501,4.3968,4.2942,4.0907,4.0504,4.0907,3.7693,3.705,3.849,3.6878,3.4703,3.3103,3.2512,3.124,2.9767,3.293,3.5055,3.5129,3.5129,3.38,3.1149,3.0479,2.8989,2.6177,2.5352,2.4827,2.4376,2.4301,2.4301,2.4301,2.4301,2.4301,2.4301,2.4301,2.4301,2.4301,2.4301,2.4301,2.4301,2.4301,2.4301,2.4301,2.4301,2.4301,2.4301,2.4301,2.4301,2.4301,2.4301,2.4301,2.4301,2.4301,2.4301,2.4301,2.4301,2.4301,2.4301,2.4301,2.4301,2.4301,2.4314,2.4406,2.4633,2.4999,2.5263,2.5606,2.5764,2.5857,2.5949,2.6001,2.6028,2.6041,2.6041,2.6041,2.6041,2.6041,2.6041,2.6041,2.6041,2.6054,2.6067,2.6186,2.625,2.6407,2.6674,2.6845,5.0515,4.7478,4.5703,4.3947,4.2294,4.0971,4.0356,4.0356,3.9702,3.9455,3.9269,3.8749,3.8316,3.8105,3.7881,3.7819,3.7881,3.8254,3.8641,3.8936,3.9384,3.9806,4.012,4.0787,4.1291,4.1694,4.2364,4.3368,4.4368,4.4501,4.4501,4.4102,4.254,4.254,4.3476,4.0705,3.9996,4.181,3.9702,3.7736,3.6534,3.5569,3.4332,3.2568,3.6144,3.827,3.851,3.851,3.7337,3.4834,3.4465,3.3116,3.0611,2.8691,2.6837,2.5052,2.4751,2.4601,2.4376,2.4301,2.4301,2.4301,2.4301,2.4301,2.4301,2.4301,2.4301,2.4301,2.4301,2.4301,2.4301,2.4301,2.4301,2.4301,2.4301,2.4301,2.4301,2.4301,2.4301,2.4301,2.4301,2.4301,2.4301,2.4301,2.4301,2.4301,2.4301,2.4301,2.4301,2.4301,2.4406,2.4696,2.492,2.5131,2.5487,2.5593,2.5725,2.583,2.5988,2.6015,2.6041,2.6041,2.6041,2.6041,2.6041,2.6041,2.6041,2.6041,2.6041,2.6054,2.6054,2.6186,2.6305,2.6489,2.6539,5.2643,5.1904,4.7358,4.5401,4.4857,4.2356,4.1278,4.134,4.0417,4.0109,3.9986,3.9455,3.8774,3.8316,3.8873,3.9145,3.9022,3.9084,3.9565,4.031,3.9981,4.0236,4.1176,4.1291,4.1627,4.2163,4.29,4.3635,4.4368,4.4501,4.4501,4.4501,4.4302,4.4368,4.4435,4.4102,4.4653,4.4578,4.2268,4.1112,4.155,3.9384,3.8187,3.8086,3.823,3.8803,3.9136,3.898,3.8855,3.8657,3.7977,3.7463,3.6856,3.3707,3.0165,2.6837,2.6027,2.5502,2.4963,2.4601,2.4376,2.4301,2.4301,2.4301,2.4301,2.4301,2.4301,2.4301,2.4301,2.4301,2.4301,2.4301,2.4301,2.4301,2.4301,2.4301,2.4301,2.4301,2.4301,2.4301,2.4301,2.4301,2.4301,2.4301,2.4301,2.4301,2.4301,2.4301,2.4301,2.4301,2.4432,2.4657,2.4699,2.4777,2.5209,2.5354,2.554,2.5698,2.5777,2.5988,2.6015,2.6041,2.6041,2.6041,2.6041,2.6041,2.6041,2.6041,2.6041,2.6041,2.6041,2.6041,2.6146,2.6331,2.6342,5.528,5.4781,5.1787,4.9328,4.7388,4.4857,4.3853,4.3582,4.1621,4.0725,4.0663,4.0047,3.964,3.9615,4.0171,3.9924,3.9207,3.9578,4.0092,4.0552,4.0433,4.067,4.1218,4.1761,4.1895,4.1761,4.2766,4.3434,4.3701,4.4168,4.4501,4.4501,4.4501,4.4501,4.4501,4.4501,4.4605,4.4653,4.4366,4.3031,4.1572,4.2498,4.3478,4.3917,4.3941,4.4188,4.4633,4.4682,4.3827,4.2013,4.1649,4.0557,3.8364,3.6656,3.5238,3.3985,3.1412,2.9495,2.8585,2.6374,2.4902,2.4376,2.4301,2.4301,2.4301,2.4301,2.4301,2.4301,2.4301,2.4301,2.4301,2.4301,2.4301,2.4301,2.4301,2.4301,2.4301,2.4301,2.4301,2.4301,2.4301,2.4301,2.4301,2.4301,2.4301,2.4301,2.4301,2.4301,2.4301,2.4314,2.4406,2.4607,2.4659,2.4699,2.4777,2.4986,2.5092,2.5263,2.5619,2.5725,2.5725,2.5936,2.6041,2.6041,2.6041,2.6041,2.6041,2.6041,2.6041,2.6041,2.6041,2.6041,2.6041,2.6094,2.6173,5.6785,5.6554,5.4839,5.2584,5.0013,4.7508,4.5884,4.4796,4.3244,4.1988,4.1033,4.0602,4.0417,4.0479,4.0787,4.0602,3.9949,4.0294,4.0716,4.1149,4.1041,4.1266,4.1727,4.2198,4.2322,4.2163,4.29,4.3568,4.3835,4.4302,4.4501,4.4501,4.4501,4.4501,4.4501,4.4501,4.4501,4.4527,4.4798,4.4119,4.265,4.4052,4.5266,4.5854,4.618,4.6606,4.7035,4.7114,4.6403,4.4986,4.4513,4.3587,4.1705,4.0232,3.9293,3.8832,3.5549,3.257,3.0436,2.8309,2.6394,2.4827,2.4451,2.4301,2.4301,2.4301,2.4301,2.4301,2.4301,2.4301,2.4301,2.4301,2.4301,2.4301,2.4301,2.4301,2.4301,2.4301,2.4301,2.4301,2.4301,2.4301,2.4301,2.4301,2.4301,2.4301,2.4301,2.4301,2.4301,2.4301,2.438,2.4525,2.4488,2.4488,2.4501,2.4607,2.4764,2.5013,2.525,2.5579,2.5659,2.5857,2.5909,2.6041,2.6041,2.6041,2.6041,2.6041,2.6041,2.6041,2.6041,2.6041,2.6041,2.6041,2.6041,5.7163,5.7085,5.6383,5.4839,5.2568,5.0041,4.7777,4.5855,4.5038,4.3582,4.1882,4.1437,4.1463,4.1314,4.1094,4.0971,4.0971,4.0971,4.1344,4.1879,4.1697,4.1934,4.2451,4.2516,4.2766,4.3234,4.3434,4.3835,4.4435,4.4501,4.4501,4.4501,4.4501,4.4501,4.4501,4.4501,4.4501,4.4501,4.4501,4.4501,4.4501,4.4501,4.4761,4.5308,4.6052,4.6657,4.7242,4.7296,4.7253,4.728,4.6659,4.633,4.6105,4.404,4.2423,4.1718,3.892,3.5551,3.1961,3.0489,2.881,2.6184,2.5331,2.4834,2.4398,2.4398,2.4336,2.4398,2.4349,2.4301,2.4301,2.4301,2.4301,2.4301,2.4301,2.4301,2.4301,2.4301,2.4301,2.4301,2.4301,2.4301,2.4301,2.4301,2.4301,2.4301,2.4301,2.4301,2.4301,2.4301,2.4327,2.4314,2.4314,2.4327,2.4366,2.4541,2.4633,2.4646,2.4947,2.5184,2.5382,2.55,2.5725,2.5843,2.5975,2.5988,2.6015,2.6041,2.6041,2.6041,2.6041,2.6041,2.6041,2.6041,2.6041,5.5953,5.5953,5.5398,5.5163,5.4977,5.2609,5.1315,5.0428,4.6578,4.5293,4.5749,4.4569,4.4036,4.3853,4.1866,4.1033,4.1033,4.1033,4.1344,4.1916,4.1697,4.1934,4.2557,4.2981,4.3167,4.3368,4.3968,4.4302,4.4501,4.4501,4.4501,4.4501,4.4501,4.4501,4.4501,4.4501,4.4501,4.4501,4.4501,4.4501,4.4501,4.4501,4.482,4.5378,4.5618,4.6245,4.7281,4.7403,4.7552,4.7957,4.7469,4.7186,4.7091,4.6093,4.525,4.4607,4.3807,4.1942,3.857,3.5775,3.2663,2.924,2.848,2.7255,2.523,2.4874,2.4874,2.4874,2.4604,2.4362,2.4362,2.4301,2.4301,2.4301,2.4301,2.4301,2.4301,2.4301,2.4301,2.4301,2.4301,2.4301,2.4301,2.4301,2.4301,2.4301,2.4301,2.4301,2.4301,2.4301,2.4301,2.4301,2.4301,2.4301,2.4301,2.4406,2.4432,2.4331,2.4657,2.4854,2.4973,2.5158,2.546,2.5712,2.5698,2.5777,2.5988,2.6028,2.6015,2.5988,2.6001,2.6028,2.6028,2.6028,2.6041,5.6008,5.5953,5.5441,5.5384,5.5766,5.4474,5.3077,5.1551,4.9146,4.8661,4.9238,4.6978,4.5483,4.4581,4.2954,4.1844,4.1033,4.1033,4.1214,4.1526,4.1719,4.2003,4.2362,4.3066,4.3451,4.3542,4.4172,4.4501,4.4501,4.4501,4.4501,4.4501,4.4501,4.4501,4.4501,4.4501,4.4501,4.4501,4.4501,4.4371,4.4111,4.4375,4.4704,4.5157,4.6067,4.7049,4.8335,4.8661,4.895,4.9174,4.833,4.7577,4.6994,4.6641,4.6029,4.5184,4.5321,4.4467,4.215,3.9226,3.5967,3.2468,3.0359,2.9194,2.9188,2.7831,2.7049,2.7273,2.5987,2.4997,2.4712,2.4746,2.4676,2.4376,2.4301,2.4301,2.4301,2.4301,2.4301,2.4301,2.4301,2.4301,2.4301,2.4301,2.4301,2.4301,2.4301,2.4301,2.4301,2.4301,2.4301,2.4301,2.4301,2.4301,2.4301,2.4301,2.4301,2.4301,2.4446,2.4501,2.4672,2.4777,2.5092,2.5434,2.5487,2.5566,2.5593,2.5659,2.5659,2.5751,2.5738,2.5843,2.587,2.5962,2.5936,5.656,5.6327,5.5675,5.5476,5.5532,5.5477,5.3938,5.1641,5.2012,5.2199,5.2082,4.9183,4.7001,4.5484,4.4277,4.2919,4.1489,4.1087,4.0955,4.1059,4.1692,4.2015,4.203,4.298,4.3409,4.35,4.4045,4.4397,4.4397,4.4449,4.4501,4.4501,4.4501,4.4501,4.4501,4.4501,4.4501,4.4501,4.4501,4.4319,4.3837,4.4257,4.4683,4.5099,4.6736,4.8265,4.9621,5.0308,5.0649,5.0545,4.9417,4.8201,4.6893,4.6779,4.6051,4.4729,4.5031,4.4817,4.3536,4.158,3.9081,3.6052,3.2487,3.1609,3.4448,3.1742,2.9984,3.0295,2.8638,2.6884,2.5756,2.5911,2.5648,2.4583,2.431,2.4261,2.4301,2.4301,2.4301,2.4301,2.4301,2.4301,2.4301,2.4301,2.4301,2.4301,2.4301,2.4301,2.4301,2.4301,2.4301,2.4301,2.4301,2.4301,2.4301,2.4301,2.4301,2.4301,2.4314,2.4406,2.4541,2.4593,2.4788,2.5156,2.5209,2.5235,2.5302,2.5262,2.5288,2.5354,2.5448,2.558,2.5553,2.5725,2.5751,5.6812,5.5273,5.4695,5.4842,5.5422,5.4847,5.4674,5.469,5.4138,0.0,0.0,5.1943,5.0891,5.0259,4.5786,4.3785,4.3731,4.1451,4.0591,4.1059,4.1692,4.2015,4.2041,4.2629,4.2876,4.2902,4.3448,4.3734,4.3734,4.4293,4.4501,4.4501,4.4501,4.4501,4.4501,4.4501,4.4501,4.4501,4.4501,4.4642,4.4939,4.4672,4.5286,4.6888,4.7363,4.845,5.0275,5.0893,5.1369,5.1753,5.0955,4.9875,4.8638,4.8047,4.6555,4.4145,4.4211,4.3783,4.2575,4.2725,4.2447,4.1467,3.8125,3.6764,3.807,3.4817,3.2749,3.2826,3.2575,3.1249,2.8739,2.8405,2.7434,2.5161,2.4328,2.405,2.4261,2.4301,2.4274,2.4301,2.4287,2.4301,2.4301,2.4301,2.4301,2.4301,2.4301,2.4301,2.4301,2.4301,2.4301,2.4301,2.4301,2.4301,2.4301,2.4301,2.4301,2.4301,2.4301,2.4314,2.4366,2.438,2.4498,2.4775,2.4738,2.492,2.5196,2.5194,2.5245,2.5235,2.5277,2.5369,2.5316,2.5394,2.5381,5.8538,5.6549,5.6331,5.5788,0.0,5.4845,5.5643,5.7187,5.5978,5.5146,5.4671,5.3566,5.2575,5.1556,4.8614,4.6936,4.6203,4.4809,4.3717,4.2866,4.3107,4.2639,4.1536,4.2108,4.2369,4.2395,4.2876,4.3162,4.3162,4.3448,4.3643,4.3578,4.3643,4.3643,4.3643,4.3863,4.4149,4.4501,4.4501,4.4813,4.5224,4.5108,4.5364,4.605,4.6467,0.0,0.0,0.0,0.0,0.0,0.0,0.0,0.0,0.0,0.0,4.5396,4.4167,4.3131,4.226,4.2305,4.2378,4.2067,4.1035,4.0348,4.0246,3.7501,3.586,3.5836,3.4707,3.3305,3.1507,3.1428,3.0263,2.7513,2.6438,2.5485,2.4609,2.4087,2.3918,2.405,2.409,2.4156,2.4287,2.4301,2.4301,2.4301,2.4301,2.4301,2.4301,2.4301,2.4301,2.4301,2.4301,2.4301,2.4301,2.4301,2.4301,2.4301,2.4301,2.4301,2.4301,2.4301,2.434,2.4472,2.4525,2.4564,2.4709,2.4746,2.4783,2.4736,2.4896,2.491,2.4802,2.4812,2.4825,6.0578,5.8463,5.8463,5.7408,5.5876,5.5876,5.7103,5.8931,5.7717,5.6548,5.5533,5.495,5.3794,5.2312,5.1339,5.008,4.865,4.8086,4.6904,4.5132,4.4749,4.3496,4.1757,4.1787,4.1801,4.1853,4.238,4.2655,4.2655,4.2733,4.2811,4.2811,4.2811,4.2811,4.2811,0.0,0.0,0.0,4.4241,4.4616,4.5292,4.5137,4.5044,4.4889,4.5222,0.0,4.8436,5.1008,5.2829,5.3824,5.4648,0.0,0.0,0.0,0.0,0.0,0.0,0.0,0.0,0.0,0.0,0.0,4.181,4.2009,4.1324,3.9737,3.8634,3.8527,3.68,3.512,3.3873,3.3995,3.2912,2.9984,2.8998,2.7694,2.5371,2.4694,2.4168,2.3841,2.3773,2.3918,2.4156,2.4221,2.4235,2.4287,2.4301,2.4301,2.4301,2.4301,2.4301,2.4301,2.4301,2.4301,2.4301,2.4301,2.4301,2.4301,2.4301,2.4301,2.4301,2.4301,2.4301,2.4314,2.4301,2.4314,2.4314,2.4301,2.4327,2.4301,2.4475,2.4517,2.4366,2.4301,2.4301,6.2191,5.9467,5.9467,5.9325,5.9088,5.904,5.9244,5.9594,5.9394,5.8704,5.7653,5.6684,5.5932,5.5074,5.2552,5.1278,5.0923,4.8468,4.743,4.7439,4.5437,4.437,4.4022,4.2074,4.1109,4.1162,4.1811,4.2056,4.2145,4.2513,4.2811,4.2811,4.2811,4.2811,4.2785,4.2369,4.2212,4.2291,4.3188,4.4227,4.5224,4.4345,4.4322,4.5303,4.5004,4.6798,5.0842,5.1744,5.3358,5.5973,5.6027,5.5101,5.3121,5.0496,4.7625,0.0,4.2361,0.0,0.0,0.0,0.0,0.0,0.0,0.0,0.0,4.0944,4.0557,3.9575,3.991,3.8704,3.5136,3.5163,3.4325,3.1707,3.102,2.992,2.7566,2.7359,2.629,2.3386,2.3338,2.3688,2.3879,2.3945,2.4037,2.4235,2.4323,2.4371,2.4362,2.4349,2.4349,2.4301,2.4301,2.4301,2.4301,2.4301,2.4301,2.4301,2.4301,2.4301,2.4301,2.4301,2.4301,2.4301,2.4301,2.4301,2.4301,2.4301,2.4301,2.4301,2.4353,2.438,2.4314,2.4301,2.4301,6.3794,6.141,6.141,6.1019,6.0411,6.0197,6.0068,6.0028,5.9178,5.8555,5.8039,5.6474,5.5405,5.4718,5.3481,5.2754,5.2421,5.1142,4.9874,4.856,4.7476,4.6612,4.574,4.3386,4.2511,4.2906,4.1644,4.1006,4.1033,4.0904,4.1007,4.138,4.1318,4.1191,4.0807,4.0617,4.0773,4.1422,4.2539,4.3682,4.4772,4.4019,4.3682,4.3949,4.3823,4.5124,4.8061,5.0082,5.2336,5.4763,5.5322,5.4681,5.2813,4.9481,4.6212,0.0,0.0,0.0,0.0,0.0,0.0,0.0,0.0,0.0,0.0,0.0,4.077,3.9254,3.9612,3.8773,3.5988,3.6538,3.5958,3.3174,3.2435,3.1064,2.8443,2.8472,2.7584,2.4777,2.4768,2.4785,2.406,2.3621,2.3562,2.401,2.4448,2.4942,2.5477,2.5156,2.4895,2.5179,2.4719,2.4301,2.4301,2.4301,2.4301,2.4301,2.4301,2.4301,2.4301,2.4301,2.4301,2.4301,2.4301,2.4301,2.4301,2.4301,2.4301,2.4301,2.4301,2.4301,2.4301,2.4301,2.4301,6.4136,6.2306,6.1554,6.0906,6.0424,6.016,6.0255,6.0469,5.9354,5.855,5.801,5.6783,5.5348,5.381,5.3374,5.2808,5.2283,5.2528,5.1558,4.9713,4.9224,4.8373,4.7248,4.4949,4.4147,4.454,4.2325,4.1291,4.1459,4.0426,4.0152,4.0495,4.0254,3.9608,3.8611,3.876,3.9462,4.0617,4.176,4.2902,4.4033,4.3474,4.298,4.2603,4.2421,4.3505,4.6128,4.8739,5.1284,5.3802,5.4096,5.3266,5.1319,4.6963,0.0,0.0,0.0,0.0,0.0,0.0,0.0,0.0,0.0,3.7031,3.6697,0.0,3.8996,0.0,3.8054,3.7811,3.6569,3.7194,0.0,0.0,3.3763,3.2247,2.9261,2.9381,2.8691,2.5896,2.5953,2.5891,2.4848,2.401,2.3949,2.5241,2.6039,2.674,2.7292,2.6995,2.6825,2.7002,2.6356,2.5727,2.5773,2.5336,2.5079,2.5154,2.5228,2.5201,2.5132,2.5173,2.5018,2.4358,2.4248,2.4301,2.4301,2.4301,2.4301,2.4301,2.4301,2.4287,2.4221,2.4261,2.4301,6.2181,6.0917,5.7808,5.7446,5.8883,5.8858,5.9604,6.097,6.082,5.9746,5.8042,5.8772,5.7008,5.3232,5.1456,0.0,4.9406,5.0431,5.1123,5.1579,4.9845,4.8896,4.8681,4.6381,4.5365,4.5429,4.4468,4.4349,4.4908,4.2808,4.1646,4.132,4.024,3.8556,3.6587,3.7227,3.8239,3.9389,4.053,4.1708,4.2825,4.2395,4.2082,4.2004,4.0988,4.2887,4.7863,4.903,5.1136,5.4575,5.2786,5.0456,4.7829,0.0,0.0,0.0,0.0,0.0,0.0,0.0,0.0,0.0,0.0,0.0,0.0,0.0,0.0,3.4537,3.5681,0.0,3.6696,3.6255,0.0,0.0,0.0,3.3775,3.0214,3.0816,2.9893,2.5791,0.0,0.0,2.6417,2.5635,2.6244,2.9375,3.0321,3.0245,2.9263,3.0577,3.1249,2.9977,2.974,2.9685,2.9342,2.8062,2.7281,2.7691,2.7914,2.7775,2.7601,2.774,2.6724,2.4751,2.4191,2.4424,2.4362,2.4657,2.4301,2.4548,2.4486,2.4406,2.4389,2.4422,2.4596,5.745,5.3236,5.1288,5.1326,5.2675,5.2758,5.4071,5.627,5.6185,5.5689,5.4721,5.4123,5.1807,4.8384,4.6614,0.0,0.0,0.0,4.7971,4.8272,4.8577,4.8895,4.907,4.7146,4.6662,4.758,4.5653,4.497,4.5475,4.4157,4.1627,3.7951,0.0,3.4163,3.3421,3.4634,3.6083,3.7704,3.9241,4.0167,4.0582,4.0461,4.0539,4.0935,4.2259,4.4594,4.8038,5.015,5.1477,5.193,4.9583,4.6166,0.0,0.0,0.0,0.0,0.0,0.0,0.0,0.0,0.0,0.0,0.0,3.1185,3.1536,0.0,0.0,0.0,3.2819,3.326,3.3956,3.4283,0.0,0.0,0.0,0.0,0.0,0.0,0.0,2.7227,2.8347,2.9128,2.8306,2.8687,2.9569,3.1071,3.1027,3.1122,3.1673,0.0,3.2612,3.3206,3.241,3.1574,3.1137,3.044,2.9755,2.934,2.981,3.0229,3.016,3.0563,3.0316,2.8885,2.7506,2.6886,2.7975,2.8854,2.9062,2.7988,2.8549,2.9105,2.8673,2.7506,2.7094,5.1193,0.0,0.0,0.0,0.0,4.7221,4.8791,5.1073,5.1042,5.0797,5.0166,4.8548,0.0,0.0,0.0,0.0,0.0,0.0,4.4643,4.4888,4.7815,4.9124,4.8863,4.7892,4.7913,4.8626,4.6427,4.5278,4.5122,4.384,4.0187,3.4401,0.0,0.0,0.0,0.0,3.4056,3.5994,3.7989,3.9182,3.9493,3.9578,3.9678,3.9966,4.2724,4.5244,4.7461,4.9564,5.026,4.9244,4.5749,0.0,0.0,0.0,0.0,0.0,0.0,0.0,0.0,0.0,0.0,0.0,0.0,0.0,0.0,0.0,0.0,0.0,0.0,0.0,3.1912,3.2936,3.3406,0.0,0.0,0.0,0.0,0.0,0.0,0.0,0.0,0.0,2.9897,3.1378,3.2709,0.0,0.0,3.3194,3.4037,3.4248,3.4662,3.564,3.4686,0.0,3.3021,3.2435,3.1769,3.0953,3.1654,3.2341,3.249,3.3048,3.3021,3.174,3.0365,3.0086,3.2146,3.2513,3.1802,3.1206,3.1493,3.1813,3.1171,2.9799,2.9054,0.0,0.0,0.0,0.0,0.0,0.0,0.0,0.0,4.625,4.56,0.0,4.309,0.0,0.0,0.0,0.0,3.4477,3.9207,0.0,0.0,4.7739,4.962,4.7806,4.88,4.88,4.768,4.6634,4.5527,4.4271,4.1393,0.0,0.0,0.0,0.0,0.0,0.0,3.2337,3.428,3.7059,3.9059,4.0132,4.0184,3.9924,3.9352,4.1672,4.3976,4.6188,4.6548,4.6898,4.736,4.1269,0.0,0.0,0.0,0.0,0.0,0.0,0.0,0.0,0.0,0.0,0.0,0.0,0.0,0.0,0.0,0.0,0.0,0.0,0.0,0.0,3.2503,0.0,0.0,0.0,0.0,0.0,0.0,0.0,0.0,0.0,3.0678,3.0923,3.3377,3.5308,3.5374,0.0,0.0,0.0,0.0,3.814,3.6917,3.6644,3.642,3.5897,3.4251,3.3027,3.2922,0.0,0.0,3.4248,3.4933,3.4594,3.1878,3.2011,3.3589,3.6722,3.3885,3.1602,3.2923,3.2012,3.05,2.9674,2.9948,2.9832,0.0,0.0,0.0,0.0,0.0,0.0,0.0,0.0,0.0,3.9087,0.0,3.732,0.0,0.0,0.0,0.0,0.0,0.0,0.0,0.0,4.1737,4.3722,4.4239,4.5006,4.5042,0.0,4.4152,4.1462,0.0,0.0,0.0,0.0,0.0,0.0,0.0,0.0,3.1143,3.2638,3.6152,3.8181,3.8571,3.8597,3.8493,3.8285,3.9394,4.0921,4.2786,4.3517,4.2481,0.0,0.0,0.0,0.0,0.0,0.0,0.0,0.0,0.0,0.0,0.0,0.0,0.0,0.0,0.0,0.0,0.0,0.0,0.0,0.0,0.0,0.0,0.0,3.3062,0.0,0.0,0.0,0.0,0.0,0.0,0.0,0.0,0.0,3.0099,3.1607,3.3051,3.3946,3.5134,3.6191,3.688,0.0,0.0,0.0,0.0,0.0,0.0,0.0,3.5432,3.3957,3.4108,3.4498,3.4596,3.5561,3.614,3.5493,0.0,0.0,3.7126,3.5871,3.459,3.5211,3.4592,3.3758,3.3052,3.1951,3.1569,0.0,0.0,0.0,0.0,0.0,0.0,0.0,0.0,0.0,3.3431,3.2992,0.0,0.0,0.0,0.0,0.0,0.0,0.0,0.0,0.0,0.0,0.0,4.0106,4.0906,0.0,0.0,0.0,0.0,0.0,0.0,0.0,0.0,0.0,0.0,0.0,0.0,3.0146,3.1706,3.5661,3.7713,3.7713,3.7713,3.7713,3.7713,3.8081,3.9066,4.0665,0.0,0.0,0.0,0.0,0.0,0.0,0.0,0.0,0.0,0.0,0.0,0.0,0.0,0.0,0.0,0.0,0.0,0.0,0.0,0.0,0.0,0.0,0.0,0.0,0.0,3.1641,0.0,0.0,0.0,0.0,0.0,0.0,0.0,0.0,0.0,0.0,2.9847,3.12,3.2127,3.3757,3.5388,3.68,3.7495,3.8173,0.0,0.0,0.0,0.0,0.0,0.0,0.0,0.0,0.0,0.0,0.0,0.0,0.0,0.0,3.4102,3.543,3.5102,3.4527,3.4352,0.0,0.0,0.0,0.0,0.0,0.0,0.0,0.0,0.0,0.0,0.0,0.0,0.0,0.0,0.0,2.8391,0.0,0.0,2.4435,0.0,0.0,0.0,0.0,0.0,0.0,0.0,0.0,0.0,0.0,0.0,0.0,0.0,0.0,0.0,0.0,0.0,0.0,0.0,0.0,0.0,0.0,2.9474,3.1255,3.5505,3.7713,3.7713,3.7713,3.7713,3.7713,3.7717,3.8449,3.9931,0.0,0.0,0.0,0.0,0.0,0.0,0.0,0.0,0.0,0.0,0.0,0.0,0.0,0.0,0.0,0.0,0.0,0.0,0.0,0.0,0.0,0.0,0.0,0.0,0.0,0.0,2.9479,3.1671,3.2734,0.0,0.0,0.0,0.0,0.0,0.0,0.0,0.0,0.0,3.0252,3.2951,3.5188,3.5865,3.6436,3.7004,3.7579,3.7189,3.6744,3.6744,3.6744,3.6122,0.0,0.0,0.0,0.0,0.0,0.0,0.0,0.0,0.0,0.0,0.0,0.0,0.0,0.0,0.0,0.0,0.0,0.0,0.0,0.0,0.0,0.0,0.0,0.0,0.0,0.0,0.0,0.0,0.0,0.0,0.0,0.0,0.0,0.0,0.0,0.0,0.0,0.0,0.0,0.0,0.0,0.0,0.0,0.0,0.0,0.0,0.0,0.0,0.0,0.0,0.0,0.0,0.0,0.0,2.9419,3.0648,3.5269,3.7713,3.7713,3.7713,3.7713,3.7743,3.7293,3.6574,0.0,0.0,0.0,0.0,0.0,0.0,0.0,0.0,0.0,0.0,0.0,0.0,0.0,0.0,0.0,0.0,0.0,0.0,0.0,0.0,0.0,0.0,0.0,0.0,0.0,0.0,0.0,0.0,3.1531,3.2414,3.11,0.0,0.0,0.0,0.0,0.0,0.0,0.0,0.0,0.0,0.0,3.3684,3.5059,3.6096,3.6851,3.7007,3.6822,3.6589,3.6254,3.6459,3.5863,3.3397,0.0,0.0,0.0,0.0,0.0,0.0,0.0,0.0,0.0,0.0,0.0,0.0,0.0,0.0,0.0,0.0,0.0,0.0,0.0,0.0,0.0,0.0,0.0,0.0,0.0,0.0,0.0,0.0,0.0,0.0,0.0,0.0,0.0,0.0,0.0,0.0,0.0,0.0,0.0,0.0,0.0,0.0,0.0,0.0,0.0,0.0,0.0,0.0,0.0,0.0,0.0,0.0,0.0,2.9202,3.0812,3.5113,3.7423,3.7687,3.7713,3.7713,3.7713,3.6632,3.5188,0.0,0.0,0.0,0.0,0.0,0.0,0.0,0.0,0.0,0.0,0.0,0.0,0.0,0.0,0.0,0.0,0.0,0.0,0.0,0.0,0.0,0.0,0.0,0.0,0.0,0.0,0.0,0.0,2.8972,3.0259,2.9972,0.0,0.0,0.0,0.0,0.0,0.0,0.0,0.0,0.0,0.0,3.2099,3.3787,3.4852,0.0,0.0,3.5605,3.5345,3.506,3.5605,3.5033,3.1947,3.1081,0.0,0.0,0.0,0.0,0.0,0.0,0.0,0.0,0.0,0.0,0.0,0.0,0.0,0.0,0.0,0.0,0.0,0.0,0.0,0.0,0.0,0.0,0.0,0.0,0.0,0.0,0.0,0.0,0.0,0.0,0.0,0.0,0.0,0.0,0.0,0.0,0.0,0.0,0.0,0.0,0.0,0.0,0.0,0.0,0.0,0.0,0.0,0.0,0.0,0.0,0.0,0.0,2.885,3.1399,3.4899,3.6981,3.7557,3.7635,3.7635,3.7557,3.5865,3.4167,0.0,0.0,0.0,0.0,0.0,0.0,0.0,0.0,0.0,0.0,0.0,0.0,0.0,0.0,0.0,0.0,0.0,0.0,0.0,0.0,0.0,0.0,0.0,0.0,0.0,0.0,0.0,0.0,0.0,0.0,0.0,0.0,0.0,0.0,0.0,0.0,0.0,0.0,0.0,0.0,0.0,3.0541,3.2177,3.3003,3.3576,0.0,3.368,3.3315,3.3313,3.4151,3.366,3.0359,0.0,0.0,0.0,0.0,0.0,0.0,0.0,0.0,0.0,0.0,0.0,0.0,0.0,0.0,0.0,0.0,0.0,0.0,0.0,0.0,0.0,0.0,0.0,0.0,0.0,0.0,0.0,0.0,0.0,0.0,0.0,0.0,0.0,0.0,0.0,0.0,0.0,0.0,0.0,0.0,0.0,0.0,0.0,0.0,0.0,0.0,0.0,0.0,0.0,0.0,0.0,0.0,0.0,0.0,3.0212,3.4108,3.6228,3.6439,3.6774,3.68,3.6412,3.5008,0.0,0.0,0.0,0.0,0.0,0.0,0.0,0.0,0.0,0.0,0.0,0.0,0.0,0.0,0.0,0.0,0.0,0.0,0.0,0.0,0.0,0.0,0.0,0.0,0.0,0.0,0.0,1.9881,0.0,0.0,0.0,0.0,0.0,0.0,0.0,0.0,0.0,0.0,0.0,0.0,0.0,0.0,3.043,3.1705,3.2575,3.3189,0.0,0.0,3.2395,3.19,3.253,3.2077,0.0,0.0,0.0,0.0,0.0,0.0,0.0,0.0,0.0,0.0,0.0,0.0,0.0,0.0,0.0,0.0,0.0,0.0,0.0,0.0,0.0,0.0,0.0,0.0,0.0,0.0,0.0,0.0,0.0,0.0,0.0,0.0,0.0,0.0,0.0,0.0,0.0,0.0,0.0,0.0,0.0,0.0,0.0,0.0,0.0,0.0,0.0,0.0,0.0,0.0,0.0,0.0,0.0,0.0,2.7874,2.9695,3.2995,3.5139,3.5917,3.6254,3.628,3.5943,3.4064,3.2103,0.0,0.0,0.0,0.0,0.0,0.0,0.0,0.0,0.0,0.0,0.0,0.0,0.0,0.0,0.0,0.0,0.0,0.0,0.0,0.0,0.0,0.0,0.0,0.0,0.0,0.0,0.0,0.0,0.0,0.0,0.0,0.0,0.0,0.0,0.0,0.0,0.0,0.0,0.0,0.0,0.0,0.0,3.1954,3.1674,0.0,0.0,0.0,3.0403,2.9703,0.0,0.0,0.0,0.0,0.0,0.0,0.0,0.0,0.0,0.0,0.0,0.0,0.0,0.0,0.0,0.0,0.0,0.0,0.0,0.0,0.0,0.0,0.0,0.0,0.0,0.0,0.0,0.0,0.0,0.0,0.0,0.0,0.0,0.0,0.0,0.0,0.0,0.0,0.0,0.0,0.0,0.0,0.0,0.0,0.0,0.0,0.0,0.0,0.0,0.0,0.0,0.0,0.0,0.0,0.0,0.0,0.0,2.9427,3.1873,3.3924,3.558,3.6029,3.6055,3.5762,3.3436,3.1508,0.0,0.0,0.0,0.0,0.0,0.0,0.0,0.0,0.0,0.0,0.0,0.0,0.0,0.0,0.0,0.0,0.0,0.0,0.0,0.0,0.0,0.0,0.0,0.0,0.0,0.0,0.0,0.0,0.0,0.0,0.0,0.0,0.0,0.0,0.0,0.0,0.0,0.0,0.0,0.0,0.0,2.8274,3.2153,3.0502,2.8747,0.0,0.0,2.7961,2.7303,2.7628,0.0,0.0,0.0,0.0,0.0,0.0,0.0,0.0,0.0,0.0,0.0,0.0,0.0,0.0,0.0,0.0,0.0,0.0,0.0,0.0,0.0,0.0,0.0,0.0,0.0,0.0,0.0,0.0,0.0,0.0,0.0,0.0,0.0,0.0,0.0,0.0,0.0,0.0,0.0,0.0,0.0,0.0,0.0,0.0,0.0,0.0,0.0,0.0,0.0,0.0,0.0,0.0,0.0,0.0,0.0,0.0,2.9105,3.1759,3.3455,3.4016,3.6485,3.681,3.4669,3.4788,3.3233,0.0,0.0,0.0,0.0,0.0,0.0,0.0,0.0,0.0,0.0,0.0,0.0,0.0,0.0,0.0,0.0,0.0,0.0,0.0,0.0,0.0,0.0,0.0,0.0,0.0,0.0,0.0,0.0,0.0,0.0,0.0,0.0,0.0,0.0,0.0,0.0,0.0,0.0,0.0,0.0,0.0,2.7993,3.0372,2.9355,0.0,0.0,0.0,0.0,2.6087,2.6162,0.0,0.0,0.0,0.0,0.0,0.0,0.0,0.0,0.0,0.0,0.0,0.0,0.0,0.0,0.0,0.0,0.0,0.0,0.0,0.0,0.0,0.0,0.0,0.0,0.0,0.0,0.0,0.0,0.0,0.0,0.0,0.0,0.0,0.0,0.0,0.0,0.0,0.0,0.0,0.0,0.0,0.0,0.0,0.0,0.0,0.0,0.0,0.0,0.0,0.0,0.0,0.0,0.0,0.0,0.0,0.0,3.0345,3.2434,3.4466,3.6303,3.6708,3.6378,3.537,3.4963,3.289,0.0,0.0,0.0,0.0,0.0,0.0,0.0,0.0,0.0,0.0,0.0,0.0,0.0,0.0,0.0,0.0,0.0,0.0,0.0,0.0,0.0,0.0,0.0,0.0,0.0,0.0,0.0,0.0,0.0,0.0,0.0,0.0,0.0,0.0,0.0,0.0,0.0,0.0,0.0,0.0,2.5605,2.6522,2.8938,0.0,0.0,0.0,0.0,0.0,0.0,2.5503,2.45,0.0,0.0,0.0,0.0,0.0,0.0,0.0,0.0,0.0,0.0,0.0,0.0,0.0,0.0,0.0,0.0,0.0,0.0,0.0,0.0,0.0,0.0,0.0,0.0,0.0,0.0,0.0,0.0,0.0,0.0,0.0,0.0,0.0,0.0,0.0,0.0,0.0,0.0,0.0,0.0,0.0,0.0,0.0,0.0,0.0,0.0,0.0,0.0,0.0,0.0,0.0,0.0,0.0,0.0,0.0,3.1885,3.3355,3.5576,3.8771,3.7252,3.6362,3.6287,3.4875,3.2245,2.8383,0.0,0.0,0.0,0.0,0.0,0.0,0.0,0.0,0.0,0.0,0.0,0.0,0.0,0.0,0.0,0.0,0.0,0.0,0.0,0.0,0.0,0.0,0.0,0.0,0.0,0.0,0.0,0.0,0.0,0.0,0.0,0.0,0.0,0.0,0.0,0.0,0.0,0.0,0.0,2.3769,2.4695,0.0,0.0,0.0,0.0,0.0,0.0,0.0,0.0,2.3522,0.0,0.0,0.0,0.0,0.0,0.0,0.0,0.0,0.0,0.0,0.0,0.0,0.0,0.0,0.0,0.0,0.0,0.0,0.0,0.0,0.0,0.0,0.0,0.0,0.0,0.0,0.0,0.0,0.0,0.0,0.0,0.0,0.0,0.0,0.0,0.0,0.0,0.0,0.0,0.0,0.0,0.0,0.0,0.0,0.0,0.0,0.0,0.0,0.0,0.0,0.0,0.0,0.0,0.0,0.0,0.0,3.3958,3.5528,3.6695,3.9179,3.8889,3.5717,3.5895,3.354,2.8098,0.0,0.0,0.0,0.0,0.0,0.0,0.0,0.0,0.0,0.0,0.0,0.0,0.0,0.0,0.0,0.0,0.0,0.0,0.0,0.0,0.0,0.0,0.0,0.0,0.0,0.0,0.0,0.0,0.0,0.0,0.0,0.0,0.0,0.0,0.0,0.0,0.0,0.0,1.9887,2.156,0.0,0.0,0.0,0.0,0.0,0.0,0.0,0.0,2.3827,0.0,0.0,0.0,0.0,0.0,0.0,0.0,0.0,0.0,0.0,0.0,0.0,0.0,0.0,0.0,0.0,0.0,0.0,0.0,0.0,0.0,0.0,0.0,0.0,0.0,0.0,0.0,0.0,0.0,0.0,0.0,0.0,0.0,0.0,0.0,0.0,0.0,0.0,0.0,0.0,0.0,0.0,0.0,0.0,0.0,0.0,0.0,0.0,0.0,0.0,0.0,0.0,0.0,0.0,0.0,0.0,0.0,0.0,3.6992,3.8981,3.9888,3.9471,3.7567,3.4929,3.1482,0.0,0.0,0.0,0.0,0.0,0.0,0.0,0.0,0.0,0.0,0.0,0.0,0.0,0.0,0.0,0.0,0.0,0.0,0.0,0.0,0.0,0.0,0.0,0.0,0.0,0.0,0.0,0.0,0.0,0.0,0.0,0.0,0.0,0.0,0.0,0.0,0.0,0.0,0.0,0.0,0.0,0.0,0.0,0.0,0.0,0.0,0.0,0.0,0.0,0.0,0.0,0.0,0.0,0.0,0.0,0.0,0.0,0.0,0.0,0.0,0.0,0.0,0.0,0.0,0.0,0.0,0.0,0.0,0.0,0.0,0.0,0.0,0.0,0.0,0.0,0.0,0.0,0.0,0.0,0.0,0.0,0.0,0.0,0.0,0.0,0.0,0.0,0.0,0.0,0.0,0.0,0.0,0.0,0.0,0.0,0.0,0.0,0.0,0.0,0.0,0.0,0.0,0.0,0.0,0.0,0.0,0.0,0.0,3.7915,4.0402,3.962,3.8918,3.8412,3.3419,2.9111,0.0,0.0,0.0,0.0,0.0,0.0,0.0,0.0,0.0,0.0,0.0,0.0,0.0,0.0,0.0,0.0,0.0,0.0,0.0,0.0,0.0,0.0,0.0,0.0,0.0,0.0,0.0,0.0,0.0,0.0,0.0,0.0,0.0,0.0,0.0,0.0,0.0,0.0,0.0,0.0,0.0,0.0,0.0,0.0,0.0,0.0,0.0,0.0,2.444,0.0,0.0,0.0,0.0,0.0,0.0,0.0,0.0,0.0,0.0,0.0,0.0,0.0,0.0,0.0,0.0,0.0,0.0,0.0,0.0,0.0,0.0,0.0,0.0,0.0,0.0,0.0,0.0,0.0,0.0,0.0,0.0,0.0,0.0,0.0,0.0,0.0,0.0,0.0,0.0,0.0,0.0,0.0,0.0,0.0,0.0,0.0,0.0,0.0,0.0,0.0,0.0,0.0,0.0,0.0,0.0,0.0,0.0,0.0,3.6475,3.7068,3.7822,3.7218,3.5112,3.177,2.8046,0.0,0.0,0.0,0.0,0.0,0.0,0.0,0.0,0.0,0.0,0.0,0.0,0.0,0.0,0.0,0.0,0.0,0.0,0.0,0.0,0.0,0.0,0.0,0.0,0.0,0.0,0.0,0.0,0.0,0.0,0.0,0.0,0.0,0.0,0.0,0.0,0.0,0.0,0.0,0.0,0.0,0.0,0.0,0.0,0.0,0.0,0.0,0.0,0.0,0.0,0.0,0.0,0.0,0.0,0.0,0.0,0.0,0.0,0.0,0.0,0.0,0.0,0.0,0.0,0.0,0.0,0.0,0.0,0.0,0.0,0.0,0.0,0.0,0.0,0.0,0.0,0.0,0.0,0.0,0.0,0.0,0.0,0.0,0.0,0.0,0.0,0.0,0.0,0.0,0.0,0.0,0.0,0.0,0.0,0.0,0.0,0.0,0.0,0.0,0.0,0.0,0.0,0.0,0.0,0.0,0.0,0.0,0.0,3.4977,3.6055,3.7287,3.634,3.3093,2.976,2.63,0.0,0.0,0.0,0.0,0.0,0.0,0.0,0.0,0.0,0.0,0.0,0.0,0.0,0.0,0.0,0.0,0.0,0.0,0.0,0.0,0.0,0.0,0.0,0.0,0.0,0.0,0.0,0.0,0.0,0.0,0.0,0.0,0.0,0.0,0.0,0.0,0.0,0.0,0.0,0.0,0.0,0.0,0.0,0.0,0.0,0.0,0.0,0.0,0.0,0.0,0.0,0.0,0.0,0.0,0.0,0.0,0.0,0.0,0.0,0.0,0.0,0.0,0.0,0.0,0.0,0.0,0.0,0.0,0.0,0.0,0.0,0.0,0.0,0.0,0.0,0.0,0.0,0.0,0.0,0.0,0.0,0.0,0.0,0.0,0.0,0.0,0.0,0.0,0.0,0.0,0.0,0.0,0.0,0.0,0.0,0.0,0.0,0.0,0.0,0.0,0.0,0.0,0.0,0.0,0.0,0.0,0.0,0.0,0.0,3.4952,3.5803,3.4669,3.1423,2.7924,2.4403,0.0,0.0,0.0,0.0,0.0,0.0,0.0,0.0,0.0,0.0,0.0,0.0,0.0,0.0,0.0,0.0,0.0,0.0,0.0,0.0,0.0,0.0,0.0,0.0,0.0,0.0,0.0,0.0,0.0,0.0,0.0,0.0,0.0,0.0,0.0,0.0,0.0,0.0,0.0,0.0,0.0,0.0,0.0,0.0,0.0,0.0,0.0,0.0,0.0,0.0,0.0,0.0,0.0,0.0,0.0,0.0,0.0,0.0,0.0,0.0,0.0,0.0,0.0,0.0,0.0,0.0,0.0,0.0,0.0,0.0,0.0,0.0,0.0,0.0,0.0,0.0,0.0,0.0,0.0,0.0,0.0,0.0,0.0,0.0,0.0,0.0,0.0,0.0,0.0,0.0,0.0,0.0,0.0,0.0,0.0,0.0,0.0,0.0,0.0,0.0,0.0,0.0,0.0,0.0,0.0,0.0,0.0,0.0,0.0,3.3006,3.2623,3.1607,2.9875,2.6608,2.2799,0.0,0.0,0.0,0.0,0.0,0.0,0.0,0.0,0.0,0.0,0.0,0.0,0.0,0.0,0.0,0.0,0.0,0.0,0.0,0.0,0.0,0.0,0.0,0.0,0.0,0.0,0.0,0.0,0.0,0.0,0.0,0.0,0.0,0.0,0.0,0.0,0.0,0.0,0.0,0.0,0.0,0.0,0.0,0.0,0.0,0.0,0.0,0.0,0.0,0.0,0.0,0.0,0.0,0.0,0.0,0.0,0.0,0.0,0.0,0.0,0.0,0.0,0.0,0.0,0.0,0.0,0.0,0.0,0.0,0.0,0.0,0.0,0.0,0.0,0.0,0.0,0.0,0.0,0.0,0.0,0.0,0.0,0.0,0.0,0.0,0.0,0.0,0.0,0.0,0.0,0.0,0.0,0.0,0.0,0.0,0.0,0.0,0.0,0.0,0.0,0.0,0.0,0.0,0.0,0.0,0.0,0.0,0.0,0.0,3.0751,3.1648,3.1247,2.9497,2.5881,2.2135,1.8278,0.0,0.0,0.0,0.0,0.0,0.0,0.0,0.0,0.0,0.0,0.0,0.0,0.0,0.0,0.0,0.0,0.0,0.0,0.0,0.0,0.0,0.0,0.0,0.0,0.0,0.0,0.0,0.0,0.0,0.0,0.0,0.0,0.0,0.0,0.0,0.0,0.0,0.0,0.0,0.0,0.0,0.0,0.0,0.0,0.0,0.0,0.0,0.0,0.0,0.0,0.0,0.0,0.0,0.0,0.0,0.0,0.0,0.0,0.0,0.0,0.0,0.0,0.0,0.0,0.0,0.0,0.0,0.0,0.0,0.0,0.0,0.0,0.0,0.0,0.0,0.0,0.0,0.0,0.0,0.0,0.0,0.0,0.0,0.0,0.0,0.0,0.0,0.0,0.0,0.0,0.0,0.0,0.0,0.0,0.0,0.0,0.0,0.0,0.0,0.0,0.0,0.0,0.0,0.0,0.0,0.0,0.0,0.0,2.9036,3.0662,3.079,2.9132,2.5541,2.181,0.0,0.0,0.0,0.0,0.0,0.0,0.0,0.0,0.0,0.0,0.0,0.0,0.0,0.0,0.0,0.0,0.0,0.0,0.0,0.0,0.0,0.0,0.0,0.0,0.0,0.0,0.0,0.0,0.0,0.0,0.0,0.0,0.0,0.0,0.0,0.0,0.0,0.0,0.0,0.0,0.0,0.0,0.0,0.0,0.0,0.0,0.0,0.0,0.0,0.0,0.0,0.0,0.0,0.0,0.0,0.0,0.0,0.0,0.0,0.0,0.0,0.0,0.0,0.0,0.0,0.0,0.0,0.0,0.0,0.0,0.0,0.0,0.0,0.0,0.0,0.0,0.0,0.0,0.0,0.0,0.0,0.0,0.0,0.0,0.0,0.0,0.0,0.0,0.0,0.0,0.0,0.0,0.0,0.0,0.0,0.0,0.0,0.0,0.0,0.0,0.0,0.0,0.0,0.0,0.0,0.0,0.0,0.0,2.5067,2.7912,2.9593,2.9849,2.8744,2.5466,2.1803,0.0,0.0,0.0,0.0,0.0,0.0,0.0,0.0,0.0,0.0,0.0,0.0,0.0,0.0,0.0,0.0,0.0,0.0,0.0,0.0,0.0,0.0,0.0,0.0,0.0,0.0,0.0,0.0,0.0,0.0,0.0,0.0,0.0,0.0,0.0,0.0,0.0,0.0,0.0,0.0,0.0,0.0,0.0,0.0,0.0,0.0,0.0,0.0,0.0,0.0,0.0,0.0,0.0,0.0,0.0,0.0,0.0,0.0,0.0,0.0,0.0,0.0,0.0,0.0,0.0,0.0,0.0,0.0,0.0,0.0,0.0,0.0,0.0,0.0,0.0,0.0,0.0,0.0,0.0,0.0,0.0,0.0,0.0,0.0,0.0,0.0,0.0,0.0,0.0,0.0,0.0,0.0,0.0,0.0,0.0,0.0,0.0,0.0,0.0,0.0,0.0,0.0,0.0,0.0,0.0,0.0,0.0,0.0,0.0,2.7409,0.0,2.9406,2.8034,2.4778,2.1292,0.0,0.0,0.0,0.0,0.0,0.0,0.0,0.0,0.0,0.0,0.0,0.0,0.0,0.0,0.0,0.0,0.0,0.0,0.0,0.0,0.0,0.0,0.0,0.0,0.0,0.0,0.0,0.0,0.0,0.0,0.0,0.0,0.0,0.0,0.0,0.0,0.0,0.0,0.0,0.0,0.0,0.0,0.0,0.0,0.0,0.0,0.0,0.0,0.0,0.0,0.0,0.0,0.0,0.0,0.0,0.0,0.0,0.0,0.0,0.0,0.0,0.0,0.0,0.0,0.0,0.0,0.0,0.0,0.0,0.0,0.0,0.0,0.0,0.0,0.0,0.0,0.0,0.0,0.0,0.0,0.0,0.0,0.0,0.0,0.0,0.0,0.0,0.0,0.0,0.0,0.0,0.0,0.0,0.0,0.0,0.0,0.0,0.0,0.0,0.0,0.0,0.0,0.0,0.0,0.0,0.0,0.0,0.0,0.0,2.6413,2.8036,2.8623,2.7973,2.4873,2.1537,0.0,0.0,0.0,0.0,0.0,0.0,0.0,0.0,0.0,0.0,0.0,0.0,0.0,0.0,0.0,0.0,0.0,0.0,0.0,0.0,0.0,0.0,0.0,0.0,0.0,0.0,0.0,0.0,0.0,0.0,0.0,0.0,0.0,0.0,0.0,0.0,0.0,0.0,0.0,0.0,0.0,0.0,0.0,0.0,0.0,0.0,0.0,0.0,0.0,0.0,0.0,0.0,0.0,0.0,0.0,0.0,0.0,0.0,0.0,0.0,0.0,0.0,0.0,0.0,0.0,0.0,0.0,0.0,0.0,0.0,0.0,0.0,0.0,0.0,0.0,0.0,0.0,0.0,0.0,0.0,0.0,0.0,0.0,0.0,0.0,0.0,0.0,0.0,0.0,0.0,0.0,0.0,0.0,0.0,0.0,0.0,0.0,0.0,0.0,0.0,0.0,0.0,0.0,0.0,0.0,0.0,0.0,0.0,0.0,2.5155,2.6319,2.7411,2.8213,2.5609,2.227,0.0,0.0,0.0,0.0,0.0,0.0,0.0,0.0,0.0,0.0,0.0,0.0,0.0,0.0,0.0,0.0,0.0,0.0,0.0,0.0,0.0,0.0,0.0,0.0,0.0,0.0,0.0,0.0,0.0,0.0,0.0,0.0,0.0,0.0,0.0,0.0,0.0,0.0,0.0,0.0,0.0,0.0,0.0,0.0,0.0,0.0,0.0,0.0,0.0,0.0,0.0,0.0,0.0,0.0,0.0,0.0,0.0,0.0,0.0,0.0,0.0,0.0,0.0,0.0,0.0,0.0,0.0,0.0,0.0,0.0,0.0,0.0,0.0,0.0,0.0,0.0,0.0,0.0,0.0,0.0,0.0,0.0,0.0,0.0,0.0,0.0,0.0,0.0,0.0,0.0,0.0,0.0,0.0,0.0,0.0,0.0,0.0,0.0,0.0,0.0,0.0,0.0,0.0,0.0,0.0,0.0,0.0,0.0,0.0,0.0,2.579,2.646,2.7156,2.419,2.0747,1.7139,0.0,0.0,0.0,0.0,0.0,0.0,0.0,0.0,0.0,0.0,0.0,0.0,0.0,0.0,0.0,0.0,0.0,0.0,0.0,0.0,0.0,0.0,0.0,0.0,0.0,0.0,0.0,0.0,0.0,0.0,0.0,0.0,0.0,0.0,0.0,0.0,0.0,0.0,0.0,0.0,0.0,0.0,0.0,0.0,0.0,0.0,0.0,0.0,0.0,0.0,0.0,0.0,0.0,0.0,0.0,0.0,0.0,0.0,0.0,0.0,0.0,0.0,0.0,0.0,0.0,0.0,0.0,0.0,0.0,0.0,0.0,0.0,0.0,0.0,0.0,0.0,0.0,0.0,0.0,0.0,0.0,0.0,0.0,0.0,0.0,0.0,0.0,0.0,0.0,0.0,0.0,0.0,0.0,0.0,0.0,0.0,0.0,0.0,0.0,0.0,0.0,0.0,0.0,0.0,0.0,0.0,0.0,0.0,0.0,0.0,2.5957,2.6411,2.467,2.158,0.0,0.0,0.0,0.0,0.0,0.0,0.0,0.0,0.0,0.0,0.0,0.0,0.0,0.0,0.0,0.0,0.0,0.0,0.0,0.0,0.0,0.0,0.0,0.0,0.0,0.0,0.0,0.0,0.0,0.0,0.0,0.0,0.0,0.0,0.0,0.0,0.0,0.0,0.0,0.0,0.0,0.0,0.0,0.0,0.0,0.0,0.0,0.0,0.0,0.0,0.0,0.0,0.0,0.0,0.0,0.0,0.0,0.0,0.0,0.0,0.0,0.0,0.0,0.0,0.0,0.0,0.0,0.0,0.0,0.0,0.0,0.0,0.0,0.0,0.0,0.0,0.0,0.0,0.0,0.0,0.0,0.0,0.0,0.0,0.0,0.0,0.0,0.0,0.0,0.0,0.0,0.0,0.0,0.0,0.0,0.0,0.0,0.0,0.0,0.0,0.0,0.0,0.0,0.0,0.0,0.0,0.0,0.0,0.0,0.0,0.0,2.573,2.5553,2.5944,0.0,1.8288,0.0,0.0,0.0,0.0,0.0,0.0,0.0,0.0,0.0,0.0,0.0,0.0,0.0,0.0,0.0,0.0,0.0,0.0,0.0,0.0,0.0,0.0,0.0,0.0,0.0,0.0,0.0,0.0,0.0,0.0,0.0,0.0,0.0,0.0,0.0,0.0,0.0,0.0,0.0,0.0,0.0,0.0,0.0,0.0,0.0,0.0,0.0,0.0,0.0,0.0,0.0,0.0,0.0,0.0,0.0,0.0,0.0,0.0,0.0,0.0,0.0,0.0,0.0,0.0,0.0,0.0,0.0,0.0,0.0,0.0,0.0,0.0,0.0,0.0,0.0,0.0,0.0,0.0,0.0,0.0,0.0,0.0,0.0,0.0,0.0,0.0,0.0,0.0,0.0,0.0,0.0,0.0,0.0,0.0,0.0,0.0,0.0,0.0,0.0,0.0,0.0,0.0,0.0,0.0,0.0,0.0,0.0,0.0,0.0,0.0,0.0,0.0,2.4437,2.2951,2.0244,0.0,0.0,0.0,0.0,0.0,0.0,0.0,0.0,0.0,0.0,0.0,0.0,0.0,0.0,0.0,0.0,0.0,0.0,0.0,0.0,0.0,0.0,0.0,0.0,0.0,0.0,0.0,0.0,0.0,0.0,0.0,0.0,0.0,0.0,0.0,0.0,0.0,0.0,0.0,0.0,0.0,0.0,0.0,0.0,0.0,0.0,0.0,0.0,0.0,0.0,0.0,0.0,0.0,0.0,0.0,0.0,0.0,0.0,0.0,0.0,0.0,0.0,0.0,0.0,0.0,0.0,0.0,0.0,0.0,0.0,0.0,0.0,0.0,0.0,0.0,0.0,0.0,0.0,0.0,0.0,0.0,0.0,0.0,0.0,0.0,0.0,0.0,0.0,0.0,0.0,0.0,0.0,0.0,0.0,0.0,0.0,0.0,0.0,0.0,0.0,0.0,0.0,0.0,0.0,0.0,0.0,0.0,0.0,0.0,0.0,2.4857,2.4865,2.4251,2.3113,2.1503,0.0,0.0,0.0,0.0,0.0,0.0,0.0,0.0,0.0,0.0,0.0,0.0,0.0,0.0,0.0,0.0,0.0,0.0,0.0,0.0,0.0,0.0,0.0,0.0,0.0,0.0,0.0,0.0,0.0,0.0,0.0,0.0,0.0,0.0,0.0,0.0,0.0,0.0,0.0,0.0,0.0,0.0,0.0,0.0,0.0,0.0,0.0,0.0,0.0,0.0,0.0,0.0,0.0,0.0,0.0,0.0,0.0,0.0,0.0,0.0,0.0,0.0,0.0,0.0,0.0,0.0,0.0,0.0,0.0,0.0,0.0,0.0,0.0,0.0,0.0,0.0,0.0,0.0,0.0,0.0,0.0,0.0,0.0,0.0,0.0,0.0,0.0,0.0,0.0,0.0,0.0,0.0,0.0,0.0,0.0,0.0,0.0,0.0,0.0,0.0,0.0,0.0,0.0,0.0,0.0,0.0,0.0,0.0,0.0,0.0,0.0,0.0,0.0,0.0,2.2296,0.0,0.0,0.0,0.0,0.0,0.0,0.0,0.0,0.0,0.0,0.0,0.0,0.0,0.0,0.0,0.0,0.0,0.0,0.0,0.0,0.0,0.0,0.0,0.0,0.0,0.0,0.0,0.0,0.0,0.0,0.0,0.0,0.0,0.0,0.0,0.0,0.0,0.0,0.0,0.0,0.0,0.0,0.0,0.0,0.0,0.0,0.0,0.0,0.0,0.0,0.0,0.0,0.0,0.0,0.0,0.0,0.0,0.0,0.0,0.0,0.0,0.0,0.0,0.0,0.0,0.0,0.0,0.0,0.0,0.0,0.0,0.0,0.0,0.0,0.0,0.0,0.0,0.0,0.0,0.0,0.0,0.0,0.0,0.0,0.0,0.0,0.0,0.0,0.0,0.0,0.0,0.0,0.0,0.0,0.0,0.0,0.0,0.0,0.0,0.0,0.0,0.0,0.0,0.0,0.0,0.0,0.0,0.0,0.0,0.0,0.0,0.0,0.0,0.0,0.0,0.0,0.0,0.0,0.0,0.0,0.0,0.0,0.0,0.0,0.0,0.0,0.0,0.0,0.0,0.0,0.0,0.0,0.0,0.0,0.0,0.0,0.0,0.0,0.0,0.0,0.0,0.0,0.0,0.0,0.0,0.0,0.0,0.0,0.0,0.0,0.0,0.0,0.0,0.0,0.0,0.0,0.0,0.0,0.0,0.0,0.0,0.0,0.0,0.0,0.0,0.0,0.0,0.0,0.0,0.0,0.0,0.0,0.0,0.0,0.0,0.0,0.0,0.0,0.0,0.0,0.0,0.0,0.0,0.0,0.0,0.0,0.0,0.0,0.0,0.0,0.0,0.0,0.0,0.0,0.0,0.0,0.0,0.0,0.0,0.0,0.0,0.0,0.0,0.0,0.0,0.0,0.0,0.0,0.0,0.0,0.0,0.0,0.0,0.0,0.0,0.0,0.0,0.0,0.0,0.0,0.0,0.0,0.0,0.0,0.0,0.0,0.0,0.0,0.0,0.0,0.0,0.0,0.0,0.0,0.0,0.0,0.0,0.0,0.0,0.0,0.0,0.0,0.0,0.0,0.0,0.0,0.0,0.0,0.0,0.0,0.0,0.0,0.0,0.0,0.0,0.0,0.0,0.0,0.0,0.0,0.0,0.0,0.0,0.0,0.0,0.0,0.0,0.0,0.0,0.0,0.0,0.0,0.0,0.0,0.0,0.0,0.0,0.0,0.0,0.0,0.0,0.0,0.0,0.0,0.0,0.0,0.0,0.0,0.0,0.0,0.0,0.0,0.0,0.0,0.0,0.0,0.0,0.0,0.0,0.0,0.0,0.0,0.0,0.0,0.0,0.0,0.0,0.0,0.0,0.0,0.0,0.0,0.0,0.0,0.0,0.0,0.0,0.0,0.0,0.0,0.0,0.0,0.0,0.0,0.0,0.0,0.0,0.0,0.0,0.0,0.0,0.0,0.0,0.0,0.0,0.0,0.0,0.0,0.0,0.0,0.0,0.0,0.0,0.0,0.0,0.0,0.0,0.0,0.0,0.0,0.0,0.0,0.0,0.0,0.0,0.0,0.0,0.0,0.0,0.0,0.0,0.0,0.0,0.0,0.0,0.0,0.0,0.0,0.0,0.0,0.0,0.0,0.0,0.0,0.0,0.0,0.0,0.0,0.0,0.0,0.0,0.0,0.0,0.0,0.0,0.0,0.0,0.0,0.0,0.0,0.0,0.0,0.0,0.0,0.0,0.0,0.0,0.0,0.0,0.0,0.0,0.0,0.0,0.0,0.0,0.0,0.0,0.0,0.0,0.0,0.0,0.0,0.0,0.0,0.0,0.0,0.0,0.0,0.0,0.0,0.0,0.0,0.0,0.0,0.0,0.0,0.0,0.0,0.0,0.0,0.0,0.0,0.0,0.0,0.0,0.0,0.0,0.0,0.0,0.0,0.0,0.0,0.0,0.0,0.0,0.0,0.0,0.0,0.0,0.0,0.0,0.0,0.0,0.0,0.0,0.0,0.0,0.0,0.0,0.0,0.0,0.0,0.0,0.0,0.0,0.0,0.0,0.0,0.0,0.0,0.0,0.0,0.0,0.0,0.0,0.0,0.0,0.0,0.0,0.0,0.0,0.0,0.0,0.0,0.0,0.0,0.0,0.0,0.0,0.0,0.0,0.0,0.0,0.0,0.0,0.0,0.0,0.0,0.0,0.0,0.0,0.0,0.0,0.0,0.0,0.0,0.0,0.0,0.0,0.0,0.0,0.0,0.0,0.0,0.0,0.0,0.0,0.0,0.0,0.0,0.0,0.0,0.0,0.0,0.0,0.0,0.0,0.0,0.0,0.0,0.0,0.0,0.0,0.0,0.0,0.0,0.0,0.0,0.0,0.0,0.0,0.0,0.0,0.0,0.0,0.0,0.0,0.0,0.0,0.0,0.0,0.0,0.0,0.0,0.0,0.0,0.0,0.0,0.0,0.0,0.0,0.0,0.0,0.0,0.0,0.0,0.0,0.0,0.0,0.0,0.0,0.0,0.0,0.0,0.0,0.0,0.0,0.0,0.0,0.0,0.0,0.0,0.0,0.0,0.0,0.0,0.0,0.0,0.0,0.0,0.0,0.0,0.0,0.0,0.0,0.0,0.0,0.0,0.0,0.0,0.0,0.0,0.0,0.0,0.0,0.0,0.0,0.0,0.0,0.0,0.0,0.0,0.0,0.0,0.0,0.0,0.0,0.0,0.0,0.0,0.0,0.0,0.0,0.0,0.0,0.0,0.0,0.0,0.0,0.0,0.0,0.0,0.0,0.0,0.0,0.0,0.0,0.0,0.0,0.0,0.0,0.0,0.0,0.0,0.0,0.0,0.0,0.0,0.0,0.0,0.0,0.0,0.0,0.0,0.0,0.0,0.0,0.0,0.0,0.0,0.0,0.0,0.0,0.0,0.0,0.0,0.0,0.0,0.0,0.0,0.0,0.0,0.0,0.0,0.0,0.0,0.0,0.0,0.0,0.0,0.0,0.0,0.0,0.0,0.0,0.0,0.0,0.0,0.0,0.0,0.0,0.0,0.0,0.0,0.0,0.0,0.0,0.0,0.0,0.0,0.0,0.0,0.0,0.0,0.0,0.0,0.0,0.0,0.0,0.0,0.0,0.0,0.0,0.0,0.0,0.0,0.0,0.0,0.0,0.0,0.0,0.0,0.0,0.0,0.0,0.0,0.0,0.0,0.0,0.0,0.0,0.0,0.0,0.0,0.0,0.0,0.0,0.0,0.0,0.0,0.0,0.0,0.0,0.0,0.0,0.0,0.0,0.0,0.0,0.0,0.0,0.0,0.0,0.0,0.0,0.0,0.0,0.0,0.0,0.0,0.0,0.0,0.0,0.0,0.0,0.0,0.0,0.0,0.0,0.0,0.0,0.0,0.0,0.0,0.0,0.0,0.0,0.0,0.0,0.0,0.0,0.0,0.0,0.0,0.0,0.0,0.0,0.0,0.0,0.0,0.0,0.0,0.0,0.0,0.0,0.0,0.0,0.0,0.0,0.0,0.0,0.0,0.0,0.0,0.0,0.0,0.0,0.0,0.0,0.0,0.0,0.0,0.0,0.0,0.0,0.0,0.0,0.0,0.0,0.0,0.0,0.0,0.0,0.0,0.0,0.0,0.0,0.0,0.0,0.0,0.0,0.0,0.0,0.0,0.0,0.0,0.0,0.0,0.0,0.0,0.0,0.0,0.0,0.0,0.0,0.0,0.0,0.0,0.0,0.0,0.0,0.0,0.0,0.0,0.0,0.0,0.0,0.0,0.0,0.0,0.0,0.0,0.0,0.0,0.0,0.0,0.0,0.0,0.0,0.0,0.0,0.0,0.0,0.0,0.0,0.0,0.0,0.0,0.0,0.0,0.0,0.0,0.0,0.0,0.0,0.0,0.0,0.0,0.0,0.0,0.0,0.0,0.0,0.0,0.0,0.0,0.0,0.0,0.0,0.0,0.0,0.0,0.0,0.0,0.0,0.0,0.0,0.0,0.0,0.0,0.0,0.0,0.0,0.0,0.0,0.0,0.0,0.0,0.0,0.0,0.0,0.0,0.0,0.0,0.0,0.0,0.0,0.0,0.0,0.0,0.0,0.0,0.0,0.0,0.0,0.0,0.0,0.0,0.0,0.0,0.0,0.0,0.0,0.0,0.0,0.0,0.0,0.0,0.0,0.0,0.0,0.0,0.0,0.0,0.0,0.0,0.0,0.0,0.0,0.0,0.0,0.0,0.0,0.0,0.0,0.0,0.0,0.0,0.0,0.0,0.0,0.0,0.0,0.0,0.0,0.0,0.0,0.0,0.0,0.0,0.0,0.0,0.0,0.0,0.0,0.0,0.0,0.0]}],[{"header":{"parameterUnit":"kt","parameterCategory":2,"dx":1,"dy":1,"la1":29.587661999999998,"la2":31.0,"lo1":-88.76705300000003,"lo2":-86.6583820000003,"nx":115,"ny":88,"refTime":"2022-10-03T06:00:00:Z","depth":0,"parameterNumber":2,"parameterNumberName":"V-component_of_WINDS"},"data":[11.2736,11.2736,11.2736,11.2646,11.263,11.393,11.3836,11.2796,11.4001,11.4854,11.5539,11.7045,11.8317,11.9583,12.0308,12.1465,12.2794,12.3538,12.3538,12.361,12.361,12.361,12.361,12.361,12.361,12.361,12.361,12.361,12.361,12.361,12.361,12.361,12.361,12.4404,12.592,12.7509,12.9025,13.0541,13.1913,13.2924,13.3141,13.3213,13.3213,13.3213,13.3213,13.3213,13.3213,13.3213,13.3285,13.3935,13.5018,13.574,13.6677,13.8011,13.9051,13.9745,14.1213,14.2664,14.326,14.416,14.4447,14.4753,14.4065,14.3573,14.2227,14.0969,14.0446,13.9236,13.961,14.1031,14.2975,14.4457,14.5592,14.6938,14.7686,14.7686,14.7686,14.7686,14.7686,14.7686,14.7686,14.7686,14.7686,14.7686,14.7686,14.7686,14.7686,14.7686,14.7611,14.6415,14.5204,14.3933,14.2662,14.0494,13.8488,13.8264,13.8189,13.7965,13.7815,13.7815,13.7815,13.789,13.8413,13.942,14.0093,14.1364,14.2355,14.4095,14.4751,14.5801,14.5834,14.5601,14.5056,14.4348,14.3121,11.2736,11.2736,11.2736,11.2714,11.2714,11.3022,11.2928,11.2763,11.2999,11.3806,11.4971,11.5528,11.5988,11.7478,11.9301,12.06,12.1906,12.3083,12.3538,12.361,12.361,12.361,12.361,12.361,12.361,12.361,12.361,12.361,12.361,12.361,12.361,12.361,12.3971,12.4476,12.5993,12.7653,12.9458,13.1119,13.2202,13.3068,13.3213,13.3213,13.3213,13.3213,13.3213,13.3213,13.3141,13.3381,13.4055,13.4969,13.6268,13.704,13.8217,13.9998,14.0936,14.1963,14.3415,14.4528,14.5061,14.47,14.4492,14.4259,14.3582,14.2513,14.1105,14.0446,14.0446,14.0147,14.0296,14.1479,14.3648,14.5354,14.6251,14.7312,14.7536,14.7686,14.7686,14.7686,14.7686,14.7686,14.7686,14.7686,14.7686,14.7686,14.7686,14.7686,14.7686,14.7686,14.7237,14.5728,14.4157,14.2812,14.1316,13.9896,13.8264,13.7965,13.7965,13.7815,13.7815,13.7815,13.804,13.8862,13.9535,13.9984,14.118,14.2812,14.3966,14.4746,14.5809,14.6945,14.6747,14.6413,14.5917,14.5022,14.3812,11.2736,11.2736,11.2736,11.2736,11.2736,11.2736,11.2736,11.2736,11.2759,11.3164,11.3758,11.399,11.462,11.6153,11.824,11.9827,12.1321,12.275,12.3321,12.3538,12.361,12.361,12.361,12.361,12.361,12.361,12.361,12.361,12.361,12.361,12.361,12.361,12.3827,12.4837,12.7365,12.8159,12.9675,13.1985,13.2707,13.3141,13.3213,13.3213,13.3213,13.3213,13.3258,13.351,13.3529,13.3893,13.4521,13.5551,13.6593,13.7621,14.003,14.2052,14.3489,14.4262,14.4882,14.5847,14.5343,14.4562,14.3531,14.2468,14.1554,14.0881,13.9549,14.0222,14.0296,14.1405,14.1479,14.2676,14.4919,14.6102,14.7013,14.7387,14.7611,14.7686,14.7686,14.7686,14.7686,14.7686,14.7686,14.7686,14.7686,14.7686,14.7686,14.7686,14.7686,14.7686,14.619,14.4681,14.3124,14.1629,13.9834,13.8264,13.7815,13.7815,13.7815,13.7815,13.7815,13.7965,13.8339,13.9549,14.067,14.118,14.2152,14.4022,14.5279,14.6087,14.7077,14.7467,14.7303,14.7134,14.6623,14.588,14.5181,11.3093,11.283,11.3164,11.3022,11.2808,11.3164,11.3164,11.2736,11.2736,11.2736,11.2736,11.2901,11.3607,11.4946,11.6837,11.8206,12.0008,12.143,12.2816,12.296,12.3538,12.361,12.361,12.361,12.361,12.361,12.361,12.361,12.361,12.361,12.361,12.3682,12.4404,12.5632,12.8087,12.9097,13.0397,13.2635,13.3141,13.3141,13.3213,13.3213,13.3164,13.3188,13.351,13.3865,13.4098,13.4479,13.5178,13.5947,13.6666,13.8625,14.1553,14.4065,14.5418,14.5768,14.5599,14.5284,14.4617,14.3364,14.229,14.1009,13.9922,13.9025,13.895,13.9773,14.0806,14.2078,14.3349,14.4695,14.6041,14.6938,14.7686,14.7686,14.7686,14.7686,14.7686,14.7686,14.7686,14.7686,14.7686,14.7686,14.7686,14.7686,14.7686,14.7611,14.7536,14.6714,14.5129,14.3424,14.1853,14.0059,13.8264,13.789,13.789,13.7815,13.7815,13.7815,13.789,13.8189,13.8502,13.9773,14.1044,14.1853,14.3274,14.4994,14.6415,14.7162,14.7298,14.7568,14.7527,14.7423,14.7008,14.6756,14.6396,11.4069,11.2879,11.4283,11.4163,11.3093,11.4212,11.4069,11.2808,11.2879,11.2736,11.283,11.2736,11.3013,11.3899,11.5502,11.6653,11.7948,12.0181,12.1516,12.1538,12.2671,12.3466,12.3538,12.361,12.361,12.361,12.361,12.361,12.361,12.3899,12.4043,12.3754,12.5054,12.6787,12.8736,12.9747,13.1119,13.2852,13.3213,13.3213,13.3213,13.3213,13.3164,13.3352,13.3754,13.4322,13.4591,13.5139,13.606,13.7054,13.8083,13.9187,14.1848,14.4309,14.4665,14.4905,14.4929,14.4301,14.3162,14.2014,14.0874,13.9943,13.8937,13.8413,13.9161,14.0208,14.2227,14.3723,14.4695,14.5966,14.6639,14.7387,14.7686,14.7686,14.7686,14.7686,14.7686,14.7686,14.7686,14.7686,14.7686,14.7686,14.7686,14.7013,14.6938,14.7013,14.6639,14.5503,14.3858,14.2078,14.0358,13.8563,13.7965,13.789,13.7815,13.7815,13.7815,13.789,13.804,13.8339,13.9249,14.0371,14.1479,14.3274,14.5069,14.6564,14.7162,14.7387,14.7611,14.7746,14.7718,14.766,14.7631,14.7468,14.715,11.4711,11.4426,11.5781,11.6161,11.559,11.5211,11.5353,11.5425,11.4569,11.4141,11.4021,11.3164,11.287,11.3398,11.4928,11.5934,11.6364,11.8739,12.0289,12.0794,12.1877,12.2671,12.3393,12.361,12.361,12.361,12.361,12.361,12.3899,12.4332,12.5054,12.5198,12.6715,12.8303,12.9576,13.0683,13.1816,13.2753,13.3188,13.3213,13.3213,13.3213,13.351,13.3843,13.4076,13.4919,13.5598,13.5955,13.6739,13.7619,13.8376,13.9327,14.0302,14.231,14.2932,14.3707,14.3685,14.2845,14.1629,14.0582,13.9834,13.8937,13.8189,13.8413,13.961,14.133,14.3424,14.5069,14.6116,14.6863,14.7312,14.7686,14.7686,14.7686,14.7686,14.7686,14.7686,14.7686,14.7686,14.7686,14.7686,14.7686,14.7312,14.6564,14.6102,14.5877,14.5279,14.3858,14.2003,14.0507,13.8937,13.7965,13.789,13.7815,13.7815,13.7815,13.7815,13.789,13.8264,13.9236,14.0072,14.1269,14.2751,14.4695,14.6714,14.7088,14.7462,14.7686,14.7686,14.7686,14.7746,14.7718,14.7718,14.7732,14.7602,11.4854,11.464,11.6566,11.7422,11.7208,11.6209,11.6398,11.7276,11.5987,11.5273,11.5224,11.3651,11.314,11.3342,11.4584,11.5186,11.6097,11.7275,11.8824,12.0,12.0866,12.1877,12.2744,12.3321,12.361,12.361,12.361,12.361,12.3971,12.5198,12.592,12.6859,12.8375,12.9458,13.0585,13.1513,13.2766,13.3574,13.3709,13.3843,13.3953,13.4011,13.4269,13.4693,13.4958,13.5581,13.6344,13.6755,13.7163,13.7728,13.8369,13.9097,13.9231,14.0437,14.178,14.2621,14.2139,14.1466,13.9984,13.9623,13.9175,13.8189,13.8488,13.9399,14.118,14.3199,14.5069,14.6116,14.7013,14.7237,14.7611,14.7686,14.7686,14.7686,14.7686,14.7686,14.7686,14.7686,14.7686,14.7686,14.7686,14.7686,14.7462,14.6564,14.5204,14.4681,14.3559,14.1704,14.0059,13.9012,13.789,13.789,13.7815,13.7815,13.7815,13.7815,13.7815,13.8114,13.9236,14.0208,14.133,14.2676,14.4097,14.5517,14.6863,14.7462,14.7686,14.7686,14.7686,14.7686,14.7686,14.7686,14.7686,14.7686,14.76,11.4212,11.3378,11.609,11.7422,11.7445,11.7303,11.7442,11.7694,11.6484,11.5976,11.5854,11.4447,11.3751,11.3672,11.3718,11.4039,11.4482,11.5802,11.6658,11.7617,11.9422,12.0578,12.1661,12.2671,12.3032,12.3393,12.361,12.3682,12.3827,12.5198,12.6787,12.8159,12.993,13.1097,13.1967,13.2962,13.4205,13.4567,13.4591,13.4571,13.4834,13.5075,13.5171,13.549,13.5903,13.636,13.6832,13.725,13.7667,13.7837,13.7911,13.887,13.9631,14.0331,14.1452,14.1853,14.1031,13.9834,13.8563,13.8339,13.7965,13.8563,13.9474,14.1031,14.2737,14.4457,14.6041,14.7013,14.7462,14.7611,14.7686,14.7686,14.7686,14.7686,14.7686,14.7686,14.7686,14.7686,14.7686,14.7686,14.7686,14.7312,14.7013,14.5966,14.4457,14.3485,14.1853,14.0059,13.9012,13.789,13.789,13.7815,13.7815,13.7815,13.7815,13.7815,13.7965,13.8713,13.9909,14.1479,14.2825,14.4157,14.5354,14.6489,14.7387,14.7686,14.7686,14.7686,14.7686,14.7686,14.7686,14.7686,14.7686,14.7686,14.7686,11.4783,11.4497,11.6566,11.7945,11.8753,11.8036,11.8366,11.9148,11.9089,11.8914,11.8268,11.6185,11.5101,11.4941,11.4327,11.3792,11.405,11.4781,11.5162,11.6606,11.7834,11.8989,12.0144,12.1249,12.2383,12.2455,12.2888,12.3682,12.3827,12.5271,12.6931,12.899,13.1487,13.2838,13.3807,13.4287,13.5266,13.5397,13.5397,13.5266,13.549,13.5654,13.5797,13.6194,13.6581,13.6894,13.7308,13.7592,13.7802,13.7802,13.7877,13.8101,13.84,13.8713,13.8937,13.9311,13.8937,13.8563,13.804,13.789,13.8563,13.9311,14.1017,14.2662,14.4246,14.5742,14.6938,14.7462,14.7611,14.7686,14.7686,14.7686,14.7686,14.7686,14.7686,14.7686,14.7686,14.7686,14.7686,14.7686,14.7611,14.6789,14.6102,14.483,14.3349,14.1704,14.0283,13.9161,13.804,13.789,13.7815,13.7815,13.7815,13.7815,13.7815,13.804,13.8713,13.9386,14.0956,14.2751,14.4083,14.5279,14.6489,14.7611,14.7686,14.7686,14.7686,14.7686,14.7686,14.7686,14.7686,14.7686,14.7686,14.7686,14.7686,11.4283,11.4426,11.5995,11.7208,11.7992,11.7342,11.7931,11.9478,12.0278,12.0673,12.0214,11.8128,11.7012,11.6788,11.613,11.5832,11.5864,11.574,11.5307,11.6751,11.805,11.8432,11.9422,12.1083,12.2238,12.2455,12.296,12.3754,12.4376,12.6209,12.7726,12.9587,13.2404,13.4747,13.5618,13.5885,13.6059,13.6235,13.599,13.6007,13.6228,13.6328,13.6581,13.7059,13.7089,13.7293,13.7735,13.7748,13.7815,13.7815,13.7815,13.789,13.7965,13.7965,13.7965,13.789,13.789,13.7815,13.789,13.8563,13.9161,14.0582,14.2152,14.4008,14.5129,14.6789,14.7462,14.7686,14.7686,14.7686,14.7686,14.7686,14.7686,14.7686,14.7686,14.7686,14.7611,14.7611,14.7536,14.7462,14.7611,14.6938,14.5293,14.3872,14.1704,13.9834,13.9161,13.8114,13.7815,13.7815,13.7815,13.7815,13.7815,13.7815,13.8189,13.8862,13.9549,14.0371,14.1853,14.3709,14.5143,14.634,14.7312,14.7611,14.7686,14.7686,14.7686,14.7686,14.7686,14.7686,14.7686,14.7686,14.7686,14.7686,14.791,11.283,11.2973,11.4426,11.5068,11.5302,11.5385,11.649,11.8218,11.9948,12.101,12.1235,11.9741,11.8968,11.8896,11.8369,11.8102,11.8195,11.836,11.7999,11.7545,11.8845,11.966,12.0382,12.13,12.2599,12.3393,12.4189,12.4999,12.5881,12.7925,12.9476,13.1314,13.3351,13.5303,13.6549,13.6676,13.7089,13.7537,13.6924,13.7118,13.7322,13.7467,13.7467,13.7592,13.7592,13.7565,13.7802,13.7815,13.7815,13.7815,13.7815,13.7815,13.7815,13.7815,13.7815,13.7815,13.7815,13.7815,13.7965,13.9474,14.0371,14.133,14.3424,14.5055,14.5653,14.6564,14.7686,14.7686,14.7686,14.7686,14.7686,14.7686,14.7686,14.7686,14.7686,14.7686,14.7536,14.7462,14.7088,14.6863,14.7162,14.6789,14.462,14.2601,14.0208,13.8787,13.804,13.7815,13.7815,13.7815,13.7815,13.7815,13.7815,13.804,13.8713,13.9549,14.0446,14.1343,14.2601,14.4396,14.5891,14.6938,14.7387,14.7611,14.7686,14.7686,14.7686,14.7686,14.7686,14.7686,14.7686,14.7686,14.7686,14.7835,14.8508,11.3002,11.3052,11.3303,11.3629,11.3959,11.4196,11.528,11.6948,11.8725,12.0679,12.2816,12.1393,12.0578,12.0217,11.966,11.9082,11.9206,11.9155,11.8721,11.8887,11.9341,11.9227,11.9805,12.0931,12.2606,12.2721,12.4241,12.6109,12.7034,13.0256,13.1512,13.2756,13.4697,13.5728,13.6742,13.7148,13.7551,13.7775,13.7551,13.7721,13.7748,13.7815,13.7815,13.7815,13.7815,13.7815,13.7815,13.7815,13.7815,13.7815,13.7815,13.7815,13.7815,13.7815,13.7815,13.7815,13.7815,13.7815,13.8264,13.9535,14.133,14.305,14.4905,14.5802,14.6714,14.7387,14.7686,14.7686,14.7686,14.7686,14.7686,14.7686,14.7686,14.7611,14.7611,14.7237,14.7088,14.6415,14.619,14.5966,14.5055,14.4382,14.2737,14.1778,13.9759,13.8413,13.7965,13.7815,13.7815,13.7815,13.7815,13.7815,13.7815,13.8488,13.9324,14.0358,14.1405,14.2377,14.4022,14.5592,14.6415,14.7088,14.7686,14.7686,14.7686,14.7686,14.7686,14.7686,14.7686,14.7686,14.7686,14.7686,14.7761,14.8135,14.8882,11.322,11.322,11.3068,11.3249,11.3528,11.3667,11.4348,11.5449,11.7245,11.9494,12.1733,12.2094,12.2166,12.1949,12.1083,12.0722,12.0722,12.0722,12.0361,12.0302,12.0667,12.0739,12.0832,12.1816,12.2624,12.3298,12.4807,12.6458,12.8003,13.0354,13.2134,13.3511,13.5002,13.5957,13.6656,13.7164,13.7626,13.7802,13.7802,13.7802,13.7815,13.7815,13.7815,13.7815,13.7815,13.7815,13.7815,13.7815,13.7815,13.7815,13.7815,13.7815,13.7815,13.7815,13.7815,13.7815,13.7815,13.7815,13.8114,13.946,14.1778,14.4382,14.5877,14.655,14.7387,14.7686,14.7686,14.7686,14.7686,14.7686,14.7686,14.7686,14.7611,14.7536,14.7237,14.6714,14.6041,14.4919,14.4457,14.4307,14.341,14.2363,14.1629,14.0881,13.946,13.8189,13.7965,13.7815,13.7815,13.7815,13.7815,13.7815,13.7815,13.8339,13.9773,14.1105,14.2302,14.3947,14.5592,14.6489,14.7162,14.7686,14.7686,14.7686,14.7686,14.7686,14.7686,14.7686,14.7686,14.7686,14.7686,14.7686,14.806,14.8434,14.9705,11.355,11.355,11.3571,11.3571,11.3592,11.3709,11.3792,11.4194,11.5802,11.7545,11.9278,12.1733,12.3105,12.3393,12.3177,12.3105,12.3466,12.361,12.2657,12.2613,12.3429,12.3329,12.3303,12.3722,12.4632,12.4608,12.5856,12.743,12.9115,13.0368,13.1654,13.286,13.4313,13.5045,13.5533,13.6104,13.668,13.7292,13.774,13.7815,13.7815,13.7815,13.7815,13.7815,13.7815,13.7815,13.7815,13.7815,13.7815,13.7815,13.7815,13.7815,13.7815,13.7815,13.7815,13.7815,13.7815,13.804,13.8937,14.0283,14.2302,14.462,14.6475,14.7462,14.7686,14.7686,14.7686,14.7686,14.7686,14.7686,14.7686,14.7686,14.7462,14.7088,14.634,14.5728,14.4756,14.3634,14.2751,14.2662,14.1989,14.1031,14.0208,13.9759,13.8563,13.804,13.7815,13.7815,13.7815,13.7815,13.7815,13.789,13.789,13.8937,14.0446,14.2078,14.3723,14.5443,14.6489,14.7237,14.7686,14.7686,14.7686,14.7686,14.7686,14.7686,14.7686,14.7686,14.7686,14.7686,14.7686,14.7686,14.7985,14.8808,15.0318,11.3772,11.3988,11.3916,11.3937,11.4009,11.3978,11.3998,11.4214,11.5719,11.6679,11.7906,12.0361,12.2527,12.3393,12.361,12.361,12.361,12.361,12.3658,12.399,12.4482,12.4738,12.4849,12.501,12.529,12.4813,12.6601,12.8022,12.8987,12.9777,13.1123,13.2903,13.3241,13.354,13.369,13.4363,13.5348,13.632,13.7292,13.7815,13.7815,13.7815,13.7815,13.7815,13.7815,13.7815,13.7815,13.7815,13.7815,13.7815,13.7815,13.7815,13.7815,13.7815,13.7815,13.7815,13.8264,13.8713,14.0283,14.2078,14.4083,14.5429,14.6639,14.7462,14.7536,14.7686,14.7686,14.7312,14.7312,14.7462,14.7686,14.7536,14.6938,14.6027,14.5204,14.4457,14.3485,14.2003,14.0956,14.0806,14.0283,13.9386,13.9161,13.8713,13.8339,13.7965,13.7815,13.7815,13.7815,13.7815,13.7965,13.8189,13.8713,14.0133,14.1778,14.3573,14.5218,14.6639,14.7237,14.7686,14.7686,14.7686,14.7686,14.7686,14.7686,14.7686,14.7686,14.7686,14.7686,14.7686,14.7686,14.7686,14.8284,14.9345,15.0766,11.3978,11.4079,11.4079,11.4079,11.4079,11.4079,11.4079,11.4296,11.5018,11.5812,11.6895,11.9206,12.1155,12.2505,12.3283,12.3522,12.3566,12.35,12.3777,12.4107,12.4879,12.5379,12.5782,12.6033,12.6173,12.6246,12.7302,12.8126,12.8237,12.8865,12.9739,13.0786,13.1459,13.1908,13.1908,13.3316,13.4525,13.5572,13.6918,13.774,13.7815,13.7815,13.7815,13.7815,13.7815,13.7815,13.7815,13.7815,13.7815,13.7815,13.7815,13.7815,13.7815,13.7815,13.789,13.7965,13.9012,14.0657,14.2227,14.4083,14.5368,14.6265,14.6415,14.6714,14.6489,14.5966,14.5517,14.5667,14.5667,14.5517,14.5517,14.5667,14.498,14.4307,14.3274,14.2451,14.1554,14.0133,13.9311,13.8937,13.8576,13.8488,13.8264,13.8114,13.804,13.7815,13.7815,13.7815,13.7815,13.7815,13.804,13.8413,13.9759,14.133,14.305,14.462,14.619,14.7088,14.7686,14.7686,14.7686,14.7686,14.7686,14.7686,14.7686,14.7686,14.7686,14.7686,14.7686,14.7686,14.7686,14.8434,14.9271,15.0168,15.135,11.4079,11.4079,11.4079,11.4079,11.4079,11.4079,11.4079,11.4079,11.4152,11.4874,11.6101,11.7906,11.9516,12.1061,12.2352,12.3189,12.3428,12.3455,12.3538,12.42,12.4974,12.5574,12.6017,12.6586,12.6446,12.6826,12.7005,12.6931,12.7272,12.7728,12.8106,12.8443,12.9564,13.035,13.0948,13.273,13.5048,13.5647,13.6768,13.7591,13.774,13.7815,13.7815,13.7815,13.7815,13.7815,13.7815,13.7815,13.7815,13.7815,13.7815,13.7815,13.789,13.789,13.8114,13.9236,14.1167,14.3709,14.4606,14.5055,14.5653,14.6265,14.5667,14.5055,14.4756,14.4008,14.341,14.2886,14.3036,14.3335,14.3485,14.3185,14.2812,14.2302,14.1704,14.0969,13.9997,13.8937,13.8488,13.8114,13.8189,13.7965,13.7815,13.7815,13.7815,13.7815,13.7815,13.7815,13.7815,13.7815,13.7965,13.8862,14.0059,14.2078,14.3933,14.5368,14.6639,14.7462,14.7686,14.7686,14.7686,14.7686,14.7686,14.7686,14.7686,14.7686,14.7686,14.7686,14.7686,14.7686,14.7686,14.8658,14.9944,15.0976,15.1799,11.4079,11.4079,11.4079,11.4079,11.4079,11.4079,11.4079,11.4079,11.4079,11.4296,11.4801,11.6318,11.7906,11.9473,12.0968,12.2411,12.3588,12.3366,12.3712,12.4313,12.4875,12.5665,12.6206,12.643,12.6398,12.6827,12.6812,12.6931,12.6916,12.7033,12.7105,12.7599,12.8106,12.9079,13.0337,13.182,13.3179,13.46,13.5946,13.6694,13.7516,13.7815,13.7815,13.7815,13.7815,13.7815,13.7815,13.7815,13.7815,13.7815,13.789,13.789,13.804,13.9086,14.0432,14.1853,14.3634,14.4681,14.5204,14.5204,14.5354,14.5592,14.4157,14.3559,14.3111,14.2812,14.2587,14.2886,14.2662,14.2513,14.2288,14.2662,14.2152,14.118,14.0432,13.9909,13.8787,13.8189,13.7815,13.7815,13.7815,13.7815,13.7815,13.7815,13.7815,13.7815,13.7815,13.7815,13.7815,13.7815,13.8189,13.9161,14.0732,14.2825,14.4844,14.634,14.7013,14.7686,14.7686,14.7686,14.7686,14.7686,14.7686,14.7686,14.7686,14.7686,14.7686,14.7686,14.7686,14.7686,14.7686,14.8583,15.0392,15.1664,15.292,11.4079,11.4079,11.4079,11.4079,11.4079,11.4079,11.4079,11.4079,11.4079,11.4079,11.4513,11.5668,11.6967,11.7978,11.9422,12.1011,12.2295,12.2773,12.345,12.4002,12.4475,12.5141,12.5453,12.5799,12.6254,12.6477,12.5967,12.5782,12.6629,12.6383,12.6601,12.7138,12.8157,12.9178,13.0259,13.1805,13.3862,13.511,13.632,13.7067,13.774,13.7815,13.7815,13.7815,13.7815,13.7815,13.7815,13.7815,13.7815,13.804,13.8576,13.8937,13.9759,14.1105,14.3124,14.4008,14.5429,14.619,14.5354,14.5204,14.4756,14.4083,14.2601,14.1778,14.1554,14.1017,14.0283,14.0344,14.0419,14.0419,14.0569,14.0283,14.0059,13.9311,13.9086,13.8638,13.8114,13.789,13.7815,13.7815,13.7815,13.7815,13.7815,13.7815,13.7815,13.7815,13.7815,13.7815,13.7815,13.804,13.8339,13.961,14.133,14.3648,14.6116,14.7013,14.7611,14.7686,14.7686,14.7686,14.7686,14.7686,14.7686,14.7686,14.7686,14.7686,14.7686,14.7686,14.7686,14.7686,14.8508,14.957,15.1065,15.2711,15.4416,11.4079,11.4079,11.4079,11.4079,11.4079,11.4079,11.4079,11.4079,11.4079,11.4079,11.4224,11.5451,11.6101,11.6823,11.805,11.9401,12.0766,12.1846,12.2664,12.3361,12.3769,12.4261,12.4529,12.4825,12.5504,12.5765,12.4919,12.4671,12.5468,12.5777,12.6341,12.7339,12.8723,13.002,13.1592,13.3451,13.5053,13.6091,13.7054,13.7591,13.7815,13.7815,13.7815,13.7815,13.7815,13.804,13.8189,13.8339,13.8413,13.8787,13.9984,14.0806,14.1778,14.4022,14.5354,14.5802,14.6415,14.6251,14.5143,14.4681,14.3634,14.2513,14.0881,13.9984,13.9623,13.8862,13.8563,13.8264,13.8189,13.804,13.7815,13.8339,13.7965,13.789,13.7965,13.789,13.789,13.7815,13.7815,13.7815,13.7815,13.7815,13.7815,13.7815,13.7815,13.7815,13.7815,13.7815,13.7815,13.804,13.8563,14.0133,14.1778,14.4396,14.7013,14.7312,14.7686,14.7686,14.7686,14.7686,14.7686,14.7686,14.7686,14.7686,14.7686,14.7686,14.7686,14.7686,14.7761,14.791,14.9256,15.0691,15.1963,15.3294,15.5164,11.4079,11.4079,11.4079,11.4079,11.4079,11.4079,11.4079,11.4079,11.4079,11.4079,11.4224,11.4296,11.5307,11.6173,11.6751,11.7657,11.9,12.0247,12.162,12.2573,12.3061,12.3437,12.3782,12.3718,12.3857,12.4257,12.3502,12.3734,12.4685,12.5515,12.6326,12.7092,12.936,13.1364,13.2881,13.4527,13.582,13.6947,13.7551,13.7815,13.7815,13.7815,13.7815,13.7815,13.7815,13.8339,13.946,13.9848,14.0507,14.1989,14.2363,14.3185,14.447,14.6265,14.7312,14.7237,14.6116,14.5503,14.447,14.2751,14.1255,14.082,13.9161,13.8339,13.8339,13.804,13.7815,13.7815,13.7815,13.7815,13.7815,13.7815,13.7815,13.7815,13.7815,13.7815,13.7815,13.7815,13.7815,13.7815,13.7815,13.7815,13.7815,13.7815,13.7815,13.7815,13.7815,13.7815,13.7815,13.804,13.9012,14.0358,14.1853,14.4157,14.6265,14.7013,14.7611,14.7686,14.7686,14.7686,14.7686,14.7686,14.7686,14.7686,14.7686,14.7686,14.7686,14.7761,14.7835,14.806,14.9256,15.129,15.2771,15.4042,15.5538,11.3978,11.4079,11.4079,11.4079,11.4079,11.4079,11.4079,11.4079,11.4079,11.4079,11.4079,11.4079,11.4513,11.5162,11.5235,11.606,11.7305,11.8114,11.9523,12.1382,12.2414,12.2837,12.3065,12.2745,12.2608,12.2834,12.2559,12.3504,12.4577,12.5432,12.6548,12.8652,13.0666,13.2405,13.4225,13.5658,13.666,13.747,13.7789,13.7815,13.7815,13.7815,13.7815,13.7815,13.789,13.8563,14.0222,14.0371,14.1255,14.2587,14.3709,14.4844,14.6401,14.7312,14.7162,14.6564,14.5503,14.4695,14.29,14.1194,13.9922,13.9086,13.8339,13.789,13.7815,13.7815,13.7815,13.7815,13.7815,13.7815,13.7815,13.7815,13.7815,13.7815,13.7815,13.7815,13.7815,13.7815,13.7815,13.7815,13.7815,13.7815,13.7815,13.7815,13.7815,13.7815,13.7815,13.7815,13.7815,13.7965,13.9012,14.0881,14.2213,14.3709,14.5653,14.6938,14.7686,14.7686,14.7686,14.7686,14.7686,14.7686,14.7686,14.7686,14.7686,14.7686,14.7761,14.7835,14.791,14.8882,15.0303,15.1963,15.3593,15.5089,15.6584,11.3875,11.4079,11.4079,11.4079,11.4079,11.4079,11.4079,11.4079,11.4079,11.4079,11.4079,11.4079,11.4079,11.4152,11.4296,11.4729,11.5864,11.6482,11.7343,11.9731,12.1033,12.168,12.1204,12.1014,12.118,12.1585,12.1608,12.2705,12.4485,12.5057,12.6576,12.9261,13.0476,13.2579,13.39,13.4974,13.6558,13.7137,13.7204,13.7367,13.7591,13.7815,13.7815,13.7815,13.7815,13.8713,13.9997,14.0371,14.118,14.2676,14.3933,14.5069,14.634,14.6564,14.6116,14.5279,14.4606,14.2975,14.0881,14.0072,13.9236,13.8114,13.789,13.7815,13.7815,13.7815,13.7815,13.7815,13.7815,13.7815,13.7815,13.7815,13.7815,13.7815,13.7815,13.7815,13.7815,13.7815,13.7815,13.7815,13.7815,13.7815,13.7815,13.7815,13.7815,13.7815,13.7815,13.7815,13.7815,13.7815,13.961,14.1989,14.3111,14.3933,14.5816,14.7387,14.7686,14.7686,14.7686,14.7686,14.7686,14.7686,14.7686,14.7686,14.7686,14.7761,14.7761,14.791,14.8658,15.0243,15.1664,15.307,15.4565,15.6211,15.7631,11.3875,11.4079,11.4079,11.4079,11.4079,11.4079,11.4079,11.4079,11.4079,11.4079,11.4079,11.4079,11.4079,11.4079,11.4079,11.4224,11.4492,11.5482,11.6185,11.7268,11.8555,11.9324,11.8395,11.8516,11.9301,12.0109,12.0014,12.1299,12.3087,12.4959,12.601,12.7521,12.9781,13.1049,13.2195,13.2831,13.3937,13.5161,13.5704,13.643,13.7367,13.7714,13.7802,13.7802,13.7815,13.8638,13.9698,14.0446,14.1031,14.2812,14.2961,14.3933,14.5055,14.4083,14.3933,14.4307,14.2601,14.1044,14.0147,13.8937,13.804,13.789,13.7815,13.7815,13.7815,13.7815,13.7815,13.7815,13.7815,13.7815,13.7815,13.7815,13.7815,13.7815,13.7815,13.7815,13.7815,13.7815,13.7815,13.7815,13.7815,13.7815,13.7815,13.7815,13.7815,13.7815,13.7815,13.7815,13.7815,13.789,13.9535,14.2213,14.341,14.4232,14.5966,14.7686,14.7686,14.7686,14.7686,14.7686,14.7686,14.7686,14.7686,14.7686,14.7686,14.7761,14.7761,14.8583,14.9555,15.0827,15.2098,15.3668,15.5298,15.6958,15.7631,11.3709,11.3896,11.4018,11.4079,11.4079,11.4079,11.4079,11.4079,11.4079,11.4079,11.4079,11.4079,11.4079,11.4079,11.4079,11.4079,11.4131,11.4503,11.5085,11.5854,11.6834,11.6822,11.6826,11.8159,11.9157,11.9966,12.0728,12.1942,12.3564,12.4985,12.657,12.7865,12.9745,13.1037,13.1599,13.2281,13.2973,13.375,13.472,13.5487,13.6518,13.7212,13.766,13.7802,13.7815,13.804,13.8875,13.9848,14.067,14.118,14.1479,14.2139,14.3559,14.3185,14.2751,14.2227,14.118,13.9848,13.9012,13.8264,13.7815,13.7815,13.7815,13.7815,13.7815,13.7815,13.7815,13.7815,13.7815,13.7815,13.7815,13.7815,13.7815,13.7815,13.7815,13.7815,13.7815,13.7815,13.7815,13.7815,13.7815,13.7815,13.7815,13.7815,13.7815,13.7815,13.7815,13.7815,13.7815,13.7965,13.8937,14.1466,14.3185,14.4531,14.619,14.7387,14.7686,14.7686,14.7686,14.7686,14.7686,14.7686,14.7686,14.7686,14.7686,14.7761,14.7761,14.8135,14.9555,15.1051,15.2472,15.3967,15.5837,15.7557,15.7631,11.3478,11.3688,11.3896,11.3998,11.3998,11.4059,11.4079,11.4079,11.4079,11.4079,11.4079,11.4079,11.4079,11.4079,11.4079,11.4079,11.4039,11.3988,11.4429,11.5108,11.5056,11.5023,11.5867,11.7942,11.9394,12.0013,12.0799,12.237,12.4041,12.4648,12.6019,12.817,12.8648,12.9802,13.0928,13.0807,13.1351,13.2128,13.3476,13.459,13.5487,13.6763,13.7626,13.7748,13.7748,13.7775,13.7965,13.9012,13.9698,13.9685,13.9698,14.0432,14.1914,14.1615,14.1105,14.0507,13.9997,13.9025,13.8114,13.7815,13.7815,13.7815,13.7815,13.7815,13.7815,13.7815,13.7815,13.7815,13.7815,13.7815,13.7815,13.7815,13.7815,13.7815,13.7815,13.7815,13.7815,13.7815,13.7815,13.7815,13.7815,13.7815,13.7815,13.7815,13.7815,13.7815,13.7815,13.7815,13.7815,13.7965,13.8563,14.1031,14.3036,14.4606,14.6116,14.7088,14.7686,14.7686,14.7686,14.7686,14.7686,14.7686,14.7686,14.7686,14.7686,14.7686,14.7761,14.806,14.9555,15.114,15.2621,15.4192,15.6136,15.7407,15.7407,11.3314,11.355,11.3688,11.37,11.372,11.3998,11.4059,11.4059,11.4079,11.4079,11.4079,11.4079,11.4079,11.4079,11.4079,11.4079,11.4079,11.4018,11.4008,11.3901,11.4081,11.4613,11.5817,11.7403,11.8819,11.9728,12.0133,12.0966,12.2585,12.3425,12.4033,12.5245,12.6224,12.682,12.7658,12.7742,12.8706,13.0369,13.199,13.3569,13.5028,13.6579,13.7546,13.7612,13.7626,13.7681,13.7775,13.8013,13.8088,13.804,13.8176,13.8924,13.9848,13.8937,13.9086,14.0072,13.8787,13.8114,13.789,13.7815,13.7815,13.7815,13.7815,13.7815,13.7815,13.7815,13.7815,13.7815,13.7815,13.7815,13.7815,13.7815,13.7815,13.7815,13.7815,13.7815,13.7815,13.7815,13.7815,13.7815,13.7815,13.7815,13.7815,13.7815,13.7815,13.7815,13.7815,13.7815,13.7815,13.804,13.8787,14.0283,14.2152,14.3872,14.5578,14.6639,14.7686,14.7686,14.7686,14.7686,14.7686,14.7686,14.7686,14.7686,14.7686,14.7686,14.791,14.8658,14.978,15.0752,15.2322,15.4341,15.5762,15.6659,15.7033,11.3227,11.3314,11.3478,11.3562,11.3583,11.3772,11.3875,11.3896,11.4018,11.4079,11.4079,11.4079,11.4079,11.4079,11.4079,11.4079,11.4059,11.3937,11.3792,11.3811,11.4654,11.5381,11.5948,11.7389,11.8783,12.0102,12.0871,12.1585,12.2372,12.3088,12.3517,12.4086,12.5253,12.5912,12.57,12.6641,12.7762,12.9109,13.1135,13.3084,13.4853,13.6448,13.7371,13.7442,13.7546,13.7542,13.7667,13.7598,13.7584,13.7667,13.7681,13.8034,13.8638,13.8189,13.8114,13.8563,13.8189,13.7815,13.7815,13.7815,13.7815,13.7815,13.7815,13.7815,13.7815,13.7815,13.7815,13.7815,13.7815,13.7815,13.7815,13.7815,13.7815,13.7815,13.7815,13.7815,13.7815,13.7815,13.7815,13.7815,13.7815,13.7815,13.7815,13.7815,13.7815,13.7815,13.7815,13.7815,13.7815,13.7815,13.8862,14.0133,14.1778,14.341,14.498,14.634,14.7536,14.7686,14.7686,14.7686,14.7686,14.7686,14.7686,14.7686,14.7686,14.7686,14.7761,14.8658,14.9256,15.0079,15.0991,15.292,15.464,15.5612,15.6584,11.2642,11.3002,11.3314,11.34,11.3443,11.3562,11.3647,11.3688,11.3875,11.3978,11.3998,11.4039,11.4079,11.4079,11.4079,11.4079,11.4059,11.3937,11.4143,11.474,11.5749,11.6673,11.7603,11.8527,11.9776,12.1121,12.1895,12.2156,12.2395,12.2768,12.3172,12.3567,12.4608,12.4917,12.4729,12.5756,12.6903,12.8161,13.0353,13.2521,13.4342,13.616,13.7206,13.7357,13.7371,13.7415,13.7531,13.743,13.7459,13.7617,13.7584,13.7667,13.7789,13.7815,13.7815,13.7815,13.7815,13.7815,13.7815,13.7815,13.7815,13.7815,13.7815,13.7815,13.7815,13.7815,13.7815,13.7815,13.7815,13.7815,13.7815,13.7815,13.7815,13.7815,13.7815,13.7815,13.7815,13.7815,13.7815,13.7815,13.7815,13.7815,13.7815,13.7815,13.7815,13.7815,13.7815,13.7815,13.7815,13.7815,13.8488,14.0059,14.1778,14.341,14.498,14.6415,14.7387,14.7686,14.7686,14.7686,14.7686,14.7686,14.7686,14.7686,14.7686,14.7686,14.7686,14.806,14.8434,14.9107,15.0093,15.15,15.3219,15.4491,15.5538,11.1673,11.2669,11.298,11.3024,11.3134,11.3421,11.3507,11.355,11.3667,11.3772,11.3792,11.3978,11.4039,11.4059,11.4079,11.4079,11.4079,11.4018,11.474,11.6132,11.6421,11.8132,12.0636,12.0601,12.1284,12.2625,12.2252,12.2083,12.2108,12.2228,12.2583,12.3239,12.3567,12.3941,12.4496,12.4725,12.5513,12.7199,12.9548,13.1638,13.324,13.5545,13.6899,13.7176,13.7083,13.6962,13.7099,13.7099,13.7055,13.7297,13.7457,13.764,13.7748,13.7789,13.7802,13.7815,13.7815,13.7815,13.7815,13.7815,13.7815,13.7815,13.7815,13.7815,13.7815,13.7815,13.7815,13.7815,13.7815,13.7815,13.7815,13.7815,13.7815,13.7815,13.7815,13.7815,13.7815,13.7815,13.7815,13.7815,13.7815,13.7815,13.7815,13.7815,13.7815,13.7815,13.7815,13.7815,13.7815,13.7815,13.8563,14.0133,14.1778,14.341,14.498,14.6475,14.7088,14.7686,14.7686,14.7686,14.7686,14.7686,14.7686,14.7686,14.7686,14.7686,14.7686,14.7761,14.806,14.8284,14.9181,15.0318,15.1649,15.2846,15.4042,10.982,11.1482,11.1673,11.2165,11.2848,11.3112,11.3292,11.3314,11.3456,11.3613,11.3583,11.3772,11.3854,11.3875,11.4018,11.4079,11.4059,11.3916,11.4802,11.6441,11.747,11.9078,12.1163,12.2075,12.2638,12.2952,12.2796,12.2395,12.2108,12.2059,12.2252,12.2536,12.315,12.3283,12.315,12.4013,12.5078,12.6389,12.8608,13.0941,13.3077,13.5097,13.6332,13.6739,13.5856,13.5244,13.5225,13.5225,13.5563,13.6275,13.6426,13.6751,13.7471,13.7626,13.7721,13.7802,13.7815,13.7815,13.7815,13.7815,13.7815,13.7815,13.7815,13.7815,13.7815,13.7815,13.7815,13.7815,13.7815,13.7815,13.7815,13.7815,13.7815,13.7815,13.7815,13.7815,13.7815,13.7815,13.7815,13.7815,13.7815,13.7815,13.7815,13.7815,13.7815,13.7815,13.7815,13.7815,13.7815,13.789,13.8413,14.0147,14.1778,14.3274,14.4756,14.5653,14.6176,14.7162,14.7462,14.7611,14.7686,14.7686,14.7686,14.7686,14.7686,14.7686,14.7686,14.7686,14.7761,14.7835,14.8508,14.9345,15.0243,15.1275,15.2247,10.8483,10.9846,11.0679,11.1388,11.2188,11.2759,11.298,11.298,11.3292,11.3378,11.3443,11.3541,11.3688,11.3679,11.3834,11.3854,11.3834,11.3709,11.4861,11.7004,11.8135,11.9835,12.1891,12.279,12.3182,12.3046,12.2817,12.2466,12.2108,12.2059,12.2059,12.2204,12.2676,12.2676,12.2348,12.3217,12.4247,12.5411,12.7128,12.9466,13.2018,13.3618,13.4568,13.5006,13.4014,13.3738,13.4301,13.4301,13.4632,13.5301,13.5396,13.5654,13.6319,13.6813,13.7266,13.7681,13.7735,13.7762,13.7802,13.7815,13.7815,13.7815,13.7815,13.7815,13.7815,13.7815,13.7815,13.7815,13.7815,13.7815,13.7815,13.7815,13.7815,13.7815,13.7815,13.7815,13.7815,13.7815,13.7815,13.7815,13.7815,13.7815,13.7815,13.7815,13.7815,13.7815,13.7815,13.7815,13.7815,13.7815,13.8413,14.0059,14.133,14.2526,14.4083,14.4681,14.5429,14.6489,14.7387,14.7536,14.7686,14.7686,14.7686,14.7686,14.7686,14.7686,14.7686,14.7686,14.7686,14.7761,14.7761,14.8508,14.9181,15.0228,15.0991,10.7636,10.791,10.9898,11.0803,11.1024,11.2165,11.2646,11.2624,11.2958,11.3068,11.3112,11.3378,11.3613,11.3688,11.3499,11.3486,11.3528,11.3507,11.5108,11.7903,11.8416,12.0252,12.3061,12.3182,12.3069,12.2886,12.2631,12.2372,12.2108,12.2059,12.2059,12.2059,12.2132,12.2108,12.2083,12.2204,12.2893,12.4373,12.5417,12.7238,13.0048,13.1117,13.1549,13.1737,13.1695,13.2319,13.3725,13.4007,13.4123,13.4259,13.4374,13.4518,13.4607,13.5508,13.6418,13.7266,13.75,13.7598,13.762,13.7762,13.7802,13.7815,13.7815,13.7815,13.7815,13.7815,13.7815,13.7815,13.7815,13.7815,13.7815,13.7815,13.7815,13.7815,13.7815,13.7815,13.7815,13.7815,13.7815,13.7815,13.7815,13.7815,13.7815,13.7815,13.7815,13.7815,13.7815,13.7815,13.7815,13.7815,13.8563,13.9834,14.0521,14.0969,14.2513,14.3335,14.4382,14.5279,14.619,14.7387,14.7536,14.7686,14.7686,14.7686,14.7686,14.7686,14.7686,14.7686,14.7686,14.7686,14.7686,14.7686,14.8284,14.9331,14.9869,10.6476,10.6649,10.7966,10.9028,10.9968,11.1024,11.1506,11.1531,11.244,11.2848,11.287,11.309,11.3314,11.3242,11.3046,11.3134,11.3464,11.3335,11.5006,11.798,11.8262,12.0026,12.2966,12.3024,12.2978,12.3024,12.2678,12.2443,12.2348,12.218,12.2059,12.2059,12.2059,12.2059,12.2059,12.2059,12.2344,12.2893,12.4207,12.5639,12.6769,12.6782,12.7171,12.8225,12.8297,12.9015,13.0548,13.0692,13.1461,13.3247,13.3361,13.3697,13.4343,13.4741,13.504,13.5361,13.6059,13.6565,13.668,13.7279,13.7708,13.7802,13.7815,13.7815,13.7815,13.7815,13.7815,13.7815,13.7815,13.7815,13.7815,13.7815,13.7815,13.7815,13.7815,13.7815,13.7815,13.7815,13.7815,13.7815,13.7815,13.7815,13.7815,13.7815,13.7815,13.7815,13.7815,13.7815,13.7815,13.789,13.8413,13.9997,14.0296,14.0521,14.0969,14.1704,14.2302,14.3274,14.483,14.5891,14.5891,14.7088,14.7686,14.7686,14.7686,14.7686,14.7686,14.7686,14.7686,14.7686,14.7686,14.7686,14.7686,14.7985,14.8434,10.5682,10.5805,10.6619,10.7664,10.8799,10.9916,11.0604,11.1049,11.1744,11.2303,11.2736,11.2892,11.2958,11.2936,11.2825,11.2892,11.3205,11.3002,11.4383,11.6808,11.7731,11.9421,12.1832,12.2553,12.2912,12.2886,12.2631,12.2395,12.23,12.2132,12.2059,12.2059,12.2059,12.2059,12.2059,12.2059,12.2059,12.213,12.3082,12.373,12.4084,12.3754,12.4367,12.5769,12.5811,12.6544,12.7924,12.8137,12.88,13.0186,13.0429,13.0741,13.1274,13.2368,13.265,13.2152,13.3544,13.4693,13.5191,13.573,13.6579,13.7721,13.7789,13.7815,13.7815,13.7815,13.7815,13.7815,13.7815,13.7815,13.7815,13.7815,13.7815,13.7815,13.7815,13.7815,13.7815,13.7815,13.7815,13.7815,13.7815,13.7815,13.7815,13.7815,13.7815,13.7815,13.7815,13.7815,13.7815,13.7815,13.8264,13.9086,13.9324,13.9324,13.9399,13.9997,14.0895,14.1853,14.3199,14.4606,14.5055,14.6176,14.6938,14.7686,14.7686,14.7686,14.7686,14.7686,14.7686,14.7686,14.7686,14.7686,14.7686,14.7686,14.7686,10.4872,10.5001,10.5208,10.6192,10.7334,10.8703,10.9716,11.0534,11.0951,11.1531,11.2018,11.2507,11.2579,11.2553,11.2714,11.2759,11.2759,11.2759,11.3592,11.5256,11.6936,11.8624,12.0294,12.1961,12.2678,12.2514,12.2443,12.23,12.2083,12.2059,12.2059,12.2059,12.2059,12.2059,12.2059,12.2059,12.2059,12.2059,12.2059,12.2059,12.2059,12.2059,12.2772,12.4271,12.3996,12.4582,12.6146,12.6288,12.6385,12.6456,12.6687,12.6646,12.6889,12.8584,12.9127,12.7919,12.9829,13.1814,13.2809,13.3388,13.446,13.6697,13.7089,13.7334,13.749,13.749,13.7578,13.749,13.7652,13.7815,13.7815,13.7815,13.7815,13.7815,13.7815,13.7815,13.7815,13.7815,13.7815,13.7815,13.7815,13.7815,13.7815,13.7815,13.7815,13.7815,13.7815,13.7815,13.7815,13.7815,13.7965,13.789,13.789,13.7965,13.8189,13.9623,14.0147,14.0222,14.1479,14.2825,14.3947,14.462,14.5429,14.6564,14.7312,14.7387,14.7536,14.7686,14.7686,14.7686,14.7686,14.7686,14.7686,14.7686,14.7686,10.1726,10.1726,10.203,10.2933,10.4493,10.6975,10.8191,10.8607,11.0231,11.0026,10.8767,11.0485,11.1434,11.1506,11.2348,11.2736,11.2736,11.2736,11.3592,11.5162,11.6936,11.8624,12.0176,12.1798,12.2537,12.2466,12.2252,12.2132,12.2059,12.2059,12.2059,12.2059,12.2059,12.2059,12.2059,12.2059,12.2059,12.2059,12.2059,12.2059,12.2059,12.2059,12.2104,12.2384,12.2214,12.2871,12.4183,12.4299,12.4893,12.5957,12.5087,12.4544,12.4499,12.39,12.3483,12.3394,12.3922,12.5126,12.7397,12.9549,13.1308,13.2579,13.3987,13.5093,13.5718,13.5861,13.5861,13.5861,13.6913,13.7727,13.7727,13.7815,13.7815,13.7815,13.7815,13.7815,13.7815,13.7815,13.7815,13.7815,13.7815,13.7815,13.7815,13.7815,13.7815,13.7815,13.7815,13.7815,13.7815,13.7815,13.7815,13.7815,13.7815,13.7815,13.7815,13.8413,13.8563,13.8427,13.9834,14.0956,14.1629,14.2676,14.3933,14.5354,14.5742,14.619,14.7387,14.7611,14.7536,14.7387,14.7462,14.7611,14.7611,14.7611,14.7686,10.0394,10.0424,10.0795,10.1345,10.2175,10.3814,10.4875,10.5549,10.6607,10.6161,10.5141,10.7082,10.8632,10.9825,11.0635,11.1546,11.2736,11.2736,11.3236,11.4092,11.5799,11.6988,11.7988,12.0156,12.1228,12.1276,12.1775,12.2059,12.2059,12.2059,12.2059,12.2059,12.2059,12.2059,12.2059,12.2059,12.2059,12.2059,12.2059,12.1702,12.0989,12.0892,12.0366,11.9386,11.9037,11.9061,11.9446,11.9314,11.9278,11.9268,11.8875,11.8688,11.892,11.8977,11.9133,11.9457,12.0216,12.094,12.1766,12.4174,12.6736,12.9322,13.0847,13.1345,13.0646,13.164,13.2578,13.3308,13.5266,13.6533,13.6662,13.7273,13.7748,13.7802,13.7815,13.7815,13.7815,13.7815,13.7815,13.7815,13.7815,13.7815,13.7815,13.7815,13.7815,13.7815,13.7815,13.7815,13.7815,13.7815,13.7815,13.7815,13.7815,13.7815,13.7815,13.7815,13.7815,13.7815,13.8638,13.9399,14.0371,14.0969,14.2302,14.3784,14.4083,14.4531,14.5143,14.5517,14.5517,14.5578,14.5966,14.6564,14.6714,14.7237,14.7088,9.9211,9.9431,9.9797,10.0081,10.0311,10.0341,10.1177,10.2453,10.1669,10.1487,10.1804,10.3404,10.5412,10.7643,10.8227,10.9833,11.2083,11.2312,11.2522,11.2808,11.4355,11.5045,11.5282,11.8088,11.9467,11.9515,12.1013,12.1774,12.1774,12.1916,12.2059,12.2059,12.2059,12.2059,12.2059,12.2059,12.2059,12.2059,12.2059,12.156,12.0442,11.9965,11.8915,11.7295,11.6407,11.5452,11.4462,11.3996,11.293,11.1394,11.1318,11.1519,11.1828,11.3109,11.3981,11.4099,11.5611,11.6183,11.529,11.7622,12.0952,12.5211,12.7045,12.6484,12.3692,12.6138,12.8595,12.9926,13.2244,13.4006,13.4459,13.5667,13.6721,13.7225,13.7428,13.7591,13.7815,13.7815,13.7815,13.7815,13.7815,13.7815,13.7815,13.7815,13.7815,13.7815,13.7815,13.7815,13.7815,13.7815,13.7815,13.7815,13.7815,13.7815,13.7815,13.7815,13.7815,13.7815,13.789,13.8413,13.9623,13.9922,14.0582,14.2213,14.2513,14.2662,14.3036,14.2812,14.2961,14.3335,14.4321,14.5069,14.4919,14.5891,14.6041,9.5019,9.6098,9.6428,9.7304,9.8459,9.8693,9.9657,10.0858,9.8045,0.0,0.0,10.1533,10.2913,10.3476,10.5614,10.7526,10.9267,11.0315,11.1523,11.2808,11.4355,11.5045,11.5116,11.6923,11.7802,11.7874,11.9372,12.0157,12.0157,12.1488,12.2059,12.2059,12.2059,12.2059,12.2059,12.2059,12.2059,12.2059,12.2059,12.2654,12.3678,12.232,12.1122,12.0185,11.8528,11.6609,11.4259,11.2487,11.1268,11.067,10.8193,10.6351,10.5503,10.4521,10.3198,10.1526,10.2903,10.457,10.6377,10.9338,11.2779,11.6695,12.046,12.0486,11.5451,12.043,12.3839,12.4133,12.7101,12.9231,12.9968,13.1518,13.3352,13.5344,13.5805,13.6394,13.7591,13.7815,13.7666,13.7815,13.774,13.7815,13.7815,13.7815,13.7815,13.7815,13.7815,13.7815,13.7815,13.7815,13.7815,13.7815,13.7815,13.7815,13.7815,13.7815,13.7815,13.7815,13.7815,13.789,13.8189,13.8264,13.8937,14.0507,14.0745,14.133,14.2438,14.1975,14.1812,14.2662,14.3811,14.4335,14.3573,14.3559,14.3485,9.289,9.4114,9.4333,9.5184,0.0,9.6692,9.5532,9.355,9.3394,9.468,9.6877,9.8272,9.9665,10.1049,10.2497,10.4193,10.6261,10.6856,10.8373,11.0587,11.139,11.2544,11.3927,11.5496,11.6209,11.6281,11.7802,11.8587,11.8587,11.9372,11.9705,11.9729,11.9705,11.9705,11.9705,12.0514,12.1298,12.2059,12.2059,12.2915,12.4463,12.2888,12.093,11.88,11.6841,0.0,0.0,0.0,0.0,0.0,0.0,0.0,0.0,0.0,0.0,9.7214,9.5943,9.5747,9.7046,9.8764,10.1371,10.5108,10.8848,10.9186,10.4843,11.0277,11.5044,11.7673,12.0541,12.3219,12.5492,12.7233,12.9154,13.1552,13.2159,13.3043,13.4829,13.5308,13.5647,13.6394,13.6619,13.6993,13.774,13.7815,13.7815,13.7815,13.7815,13.7815,13.7815,13.7815,13.7815,13.7815,13.7815,13.7815,13.7815,13.7815,13.7815,13.7815,13.7815,13.7815,13.7815,13.7815,13.804,13.8787,13.9086,13.9311,14.0133,13.9896,13.9658,14.0283,14.1643,14.218,14.0657,14.0269,14.0344,9.0661,9.1769,9.1769,9.2433,9.3455,9.3455,9.0832,8.6552,8.9089,9.1715,9.4277,9.5057,9.6673,9.8773,9.9282,10.0857,10.3152,10.3416,10.5039,10.7627,10.7868,10.9197,11.1498,11.3268,11.4072,11.4215,11.6044,11.6994,11.6994,11.7208,11.7422,11.7422,11.7422,11.7422,11.7422,0.0,0.0,0.0,12.1346,12.2583,12.4438,12.2554,12.0077,11.7131,11.4803,0.0,10.9593,10.8,10.6104,10.381,10.1572,0.0,0.0,0.0,0.0,0.0,0.0,0.0,0.0,0.0,0.0,0.0,9.5585,9.6327,9.5466,10.0396,10.5609,11.0325,11.347,11.6462,11.9358,12.1296,12.3639,12.6411,12.7186,12.8564,13.1286,13.2033,13.2825,13.435,13.4824,13.5647,13.6993,13.7367,13.7441,13.774,13.7815,13.7815,13.7815,13.7815,13.7815,13.7815,13.7815,13.7815,13.7815,13.7815,13.7815,13.7815,13.7815,13.7815,13.7815,13.7815,13.7815,13.789,13.7815,13.789,13.789,13.7815,13.7965,13.7815,13.9249,13.9936,13.8189,13.7815,13.7815,8.6588,8.6829,8.6829,8.6926,8.7088,8.712,8.6706,8.6004,8.6419,8.8169,9.0934,9.3412,9.4835,9.5511,9.6663,9.8373,10.0349,10.1473,10.2883,10.4549,10.5599,10.6299,10.6772,10.9428,11.0686,11.0828,11.3907,11.5353,11.5402,11.6803,11.7422,11.7422,11.7422,11.7422,11.7351,11.6209,11.5781,11.5995,11.8658,12.1513,12.4463,12.1631,11.9536,11.8599,11.554,11.2115,10.8414,10.6385,10.388,10.0848,9.8902,9.6896,9.4613,9.0514,8.6028,0.0,7.7917,0.0,0.0,0.0,0.0,0.0,0.0,0.0,0.0,9.5299,9.8674,10.1276,10.5864,10.8732,10.8741,11.1522,11.4956,11.8852,12.0759,12.3147,12.696,12.8713,12.9943,13.096,13.2356,13.3914,13.5422,13.5796,13.632,13.7441,13.7503,13.734,13.7727,13.7652,13.7652,13.7815,13.7815,13.7815,13.7815,13.7815,13.7815,13.7815,13.7815,13.7815,13.7815,13.7815,13.7815,13.7815,13.7815,13.7815,13.7815,13.7815,13.7815,13.7815,13.8114,13.8264,13.789,13.7815,13.7815,8.3988,8.4717,8.4717,8.2368,7.8641,7.8805,7.8904,7.903,8.08,8.2186,8.3663,8.7904,9.0635,9.2201,9.2749,9.36,9.4569,9.518,9.6706,9.9151,9.9675,10.1253,10.3645,10.5556,10.6893,10.7716,10.9917,11.0967,11.1038,11.1813,11.2665,11.3499,11.3521,11.2598,11.0797,11.1029,11.2023,11.3806,11.6875,12.0014,12.3011,12.0942,11.9206,11.8136,11.5669,11.239,10.8264,10.6338,10.3974,10.0992,9.7905,9.4949,9.2169,8.6465,8.0549,0.0,0.0,0.0,0.0,0.0,0.0,0.0,0.0,0.0,0.0,0.0,8.8311,9.0818,9.7583,10.1504,10.0753,10.3539,10.631,10.872,11.0606,11.2969,11.6238,11.9746,12.2524,12.4206,12.6685,12.9388,13.2227,13.2692,13.3628,13.617,13.4781,13.3763,13.459,13.5731,13.6397,13.6268,13.7124,13.7815,13.7815,13.7815,13.7815,13.7815,13.7815,13.7815,13.7815,13.7815,13.7815,13.7815,13.7815,13.7815,13.7815,13.7815,13.7815,13.7815,13.7815,13.7815,13.7815,13.7815,13.7815,8.045,8.1016,7.9678,7.6228,7.1613,7.1934,7.2448,7.3355,7.5713,7.691,7.7508,8.1947,8.4924,8.6533,8.6357,8.6704,8.7553,8.8291,9.0437,9.362,9.4306,9.6362,9.9615,10.1255,10.26,10.3671,10.4759,10.5497,10.5757,10.5831,10.6504,10.7592,10.6952,10.541,10.327,10.524,10.8055,11.1595,11.4734,11.7874,12.0775,11.9443,11.8088,11.6851,11.441,11.1153,10.7204,10.5875,10.3565,10.013,9.5981,9.2259,8.8999,8.1343,0.0,0.0,0.0,0.0,0.0,0.0,0.0,0.0,0.0,6.2787,6.578,0.0,7.8214,0.0,8.9515,9.4625,9.5112,9.658,0.0,0.0,9.9999,10.1693,10.4407,10.9413,11.3751,11.621,12.0162,12.4134,12.783,12.8762,13.0009,13.2161,13.0536,12.9619,13.121,13.3054,13.4095,13.4215,13.5194,13.632,13.6157,13.6702,13.6981,13.6967,13.6954,13.6804,13.6431,13.6655,13.7069,13.7265,13.7516,13.7815,13.7815,13.7815,13.7815,13.7815,13.7815,13.774,13.7367,13.7591,13.7815,7.4599,7.3083,6.7759,6.6669,6.8337,6.8459,7.0019,7.2742,7.2966,7.3945,7.5386,7.7027,7.7306,7.6555,7.584,0.0,7.9258,8.2195,8.5504,8.9112,9.1566,9.2935,9.339,9.6158,9.7563,9.7701,9.8142,9.9028,10.0276,9.9787,9.9619,9.9755,9.6997,9.5881,9.673,9.9734,10.3651,10.8405,11.1545,11.4591,11.766,11.6281,11.5425,11.5211,11.0731,10.6988,10.4272,10.3812,10.1177,9.5972,9.1659,8.7393,8.2947,0.0,0.0,0.0,0.0,0.0,0.0,0.0,0.0,0.0,0.0,0.0,0.0,0.0,0.0,7.5131,8.1939,0.0,9.2862,9.0586,0.0,0.0,0.0,9.0486,9.3335,9.9436,10.4465,10.7427,0.0,0.0,12.2314,12.4265,12.5146,12.4448,12.5393,12.6895,12.8995,13.0172,13.1105,13.148,13.1767,13.1857,13.2012,13.3454,13.4468,13.4229,13.4571,13.3902,13.2697,13.3366,13.4735,13.5189,13.6755,13.7639,13.7727,13.7212,13.7815,13.7463,13.7551,13.7103,13.5717,13.6328,13.73,6.7265,6.1174,5.8035,5.7696,5.9342,5.937,6.1453,6.4875,6.4848,6.5275,6.6088,6.736,6.6385,6.3845,6.4306,0.0,0.0,0.0,7.6214,8.0042,8.2776,8.5225,8.7396,8.9137,9.0844,9.2507,9.3473,9.4813,9.6422,9.6198,9.0425,7.9232,0.0,8.1844,8.5664,9.1868,9.7972,10.3766,10.7813,11.0546,11.1688,11.1166,11.0815,11.0588,10.7972,10.5216,10.2433,10.1415,9.7583,9.04,8.588,7.9962,0.0,0.0,0.0,0.0,0.0,0.0,0.0,0.0,0.0,0.0,0.0,4.9545,5.1651,0.0,0.0,0.0,6.8135,7.2459,7.8797,8.0887,0.0,0.0,0.0,0.0,0.0,0.0,0.0,9.6539,10.4423,11.113,11.4864,11.5865,11.6427,11.6978,11.8639,12.034,12.1923,0.0,12.6386,12.7252,12.7614,12.7823,12.7852,12.8644,12.8882,12.8042,12.848,12.8694,12.8086,12.8537,12.9063,12.9624,13.1166,13.2147,13.0911,13.0487,13.0752,13.2383,13.1487,13.0276,12.9671,13.1166,13.2802,5.8118,0.0,0.0,0.0,0.0,5.086,5.313,5.6598,5.6626,5.654,5.6391,5.7094,0.0,0.0,0.0,0.0,0.0,0.0,6.6971,7.0887,7.5235,7.8807,8.1724,8.2121,8.3513,8.5728,8.5732,8.6173,8.7025,8.5465,7.7096,6.2625,0.0,0.0,0.0,0.0,9.2002,9.8894,10.4551,10.7834,10.8691,10.8741,10.8462,10.7789,10.558,10.3283,10.0774,9.7803,9.2809,8.5725,7.9239,0.0,0.0,0.0,0.0,0.0,0.0,0.0,0.0,0.0,0.0,0.0,0.0,0.0,0.0,0.0,0.0,0.0,0.0,0.0,6.6718,7.1856,7.3728,0.0,0.0,0.0,0.0,0.0,0.0,0.0,0.0,0.0,10.3199,10.593,10.8465,0.0,0.0,11.4814,11.5833,11.8461,12.0633,12.1535,12.1969,0.0,12.1644,12.2115,12.229,12.1324,12.185,12.2298,12.1786,12.1479,12.1644,12.2455,12.468,12.4122,11.8419,11.824,12.0791,12.2592,12.2048,12.1102,12.1347,12.2942,12.4914,0.0,0.0,0.0,0.0,0.0,0.0,0.0,0.0,4.9273,4.8633,0.0,4.6819,0.0,0.0,0.0,0.0,4.4079,5.2505,0.0,0.0,7.0196,7.4878,7.6228,7.5505,7.5686,7.6397,7.3466,7.1291,6.966,6.4199,0.0,0.0,0.0,0.0,0.0,0.0,8.5917,9.4023,10.1819,10.7313,11.0074,11.0217,10.9504,10.7934,10.363,10.0688,9.9191,9.235,8.66,8.2341,7.1479,0.0,0.0,0.0,0.0,0.0,0.0,0.0,0.0,0.0,0.0,0.0,0.0,0.0,0.0,0.0,0.0,0.0,0.0,0.0,0.0,6.4397,0.0,0.0,0.0,0.0,0.0,0.0,0.0,0.0,0.0,9.0862,8.6275,9.4911,10.236,10.4022,0.0,0.0,0.0,0.0,11.3988,11.4469,11.4477,11.3991,11.2564,11.4027,11.5415,11.5287,0.0,0.0,11.268,11.2071,11.2494,11.495,11.7669,11.4541,9.7085,10.1639,10.7764,10.8321,10.9385,11.0446,11.0986,11.2013,11.4321,0.0,0.0,0.0,0.0,0.0,0.0,0.0,0.0,0.0,3.9516,0.0,3.806,0.0,0.0,0.0,0.0,0.0,0.0,0.0,0.0,5.8648,6.3099,6.6602,6.6178,6.6153,0.0,6.5381,6.0046,0.0,0.0,0.0,0.0,0.0,0.0,0.0,0.0,8.2066,8.9369,9.916,10.4724,10.5794,10.5865,10.558,10.5009,10.3299,9.9098,9.2147,8.4606,7.6638,0.0,0.0,0.0,0.0,0.0,0.0,0.0,0.0,0.0,0.0,0.0,0.0,0.0,0.0,0.0,0.0,0.0,0.0,0.0,0.0,0.0,0.0,0.0,6.1451,0.0,0.0,0.0,0.0,0.0,0.0,0.0,0.0,0.0,7.8157,8.6107,9.3496,9.7206,10.1857,10.5669,10.768,0.0,0.0,0.0,0.0,0.0,0.0,0.0,10.8245,10.5291,10.5562,10.5196,10.2282,10.0421,9.9972,10.1813,0.0,0.0,8.9493,9.1065,9.4395,9.4489,9.5041,9.5662,9.5989,9.8519,10.1667,0.0,0.0,0.0,0.0,0.0,0.0,0.0,0.0,0.0,3.1175,3.1308,0.0,0.0,0.0,0.0,0.0,0.0,0.0,0.0,0.0,0.0,0.0,5.7012,5.6627,0.0,0.0,0.0,0.0,0.0,0.0,0.0,0.0,0.0,0.0,0.0,0.0,7.8789,8.6233,9.748,10.344,10.344,10.344,10.344,10.344,10.3224,9.8702,8.9361,0.0,0.0,0.0,0.0,0.0,0.0,0.0,0.0,0.0,0.0,0.0,0.0,0.0,0.0,0.0,0.0,0.0,0.0,0.0,0.0,0.0,0.0,0.0,0.0,0.0,5.4943,0.0,0.0,0.0,0.0,0.0,0.0,0.0,0.0,0.0,0.0,7.8009,8.5286,8.9634,9.5824,10.0804,10.3204,10.4972,10.6503,0.0,0.0,0.0,0.0,0.0,0.0,0.0,0.0,0.0,0.0,0.0,0.0,0.0,0.0,8.5477,7.981,7.954,8.0122,8.0197,0.0,0.0,0.0,0.0,0.0,0.0,0.0,0.0,0.0,0.0,0.0,0.0,0.0,0.0,0.0,2.3929,0.0,0.0,2.1311,0.0,0.0,0.0,0.0,0.0,0.0,0.0,0.0,0.0,0.0,0.0,0.0,0.0,0.0,0.0,0.0,0.0,0.0,0.0,0.0,0.0,0.0,7.6038,8.4295,9.689,10.344,10.344,10.344,10.344,10.344,10.3277,9.9351,9.102,0.0,0.0,0.0,0.0,0.0,0.0,0.0,0.0,0.0,0.0,0.0,0.0,0.0,0.0,0.0,0.0,0.0,0.0,0.0,0.0,0.0,0.0,0.0,0.0,0.0,0.0,4.961,5.4926,5.8078,0.0,0.0,0.0,0.0,0.0,0.0,0.0,0.0,0.0,8.1589,9.0224,9.6844,9.8537,10.0107,10.184,10.3246,10.2176,10.1126,10.1126,10.1126,9.9413,0.0,0.0,0.0,0.0,0.0,0.0,0.0,0.0,0.0,0.0,0.0,0.0,0.0,0.0,0.0,0.0,0.0,0.0,0.0,0.0,0.0,0.0,0.0,0.0,0.0,0.0,0.0,0.0,0.0,0.0,0.0,0.0,0.0,0.0,0.0,0.0,0.0,0.0,0.0,0.0,0.0,0.0,0.0,0.0,0.0,0.0,0.0,0.0,0.0,0.0,0.0,0.0,0.0,0.0,7.5407,8.2657,9.641,10.344,10.344,10.344,10.344,10.3348,10.1087,9.5435,0.0,0.0,0.0,0.0,0.0,0.0,0.0,0.0,0.0,0.0,0.0,0.0,0.0,0.0,0.0,0.0,0.0,0.0,0.0,0.0,0.0,0.0,0.0,0.0,0.0,0.0,0.0,0.0,5.3865,5.6426,5.5251,0.0,0.0,0.0,0.0,0.0,0.0,0.0,0.0,0.0,0.0,9.2705,9.6487,9.9342,10.1249,10.1677,10.134,10.0698,9.9607,10.0341,9.8699,9.1759,0.0,0.0,0.0,0.0,0.0,0.0,0.0,0.0,0.0,0.0,0.0,0.0,0.0,0.0,0.0,0.0,0.0,0.0,0.0,0.0,0.0,0.0,0.0,0.0,0.0,0.0,0.0,0.0,0.0,0.0,0.0,0.0,0.0,0.0,0.0,0.0,0.0,0.0,0.0,0.0,0.0,0.0,0.0,0.0,0.0,0.0,0.0,0.0,0.0,0.0,0.0,0.0,0.0,7.3779,8.1866,9.5497,10.2818,10.3369,10.344,10.344,10.344,9.9631,9.2876,0.0,0.0,0.0,0.0,0.0,0.0,0.0,0.0,0.0,0.0,0.0,0.0,0.0,0.0,0.0,0.0,0.0,0.0,0.0,0.0,0.0,0.0,0.0,0.0,0.0,0.0,0.0,0.0,4.894,5.2146,5.2574,0.0,0.0,0.0,0.0,0.0,0.0,0.0,0.0,0.0,0.0,8.8191,9.2829,9.5754,0.0,0.0,9.7824,9.711,9.6163,9.7824,9.6416,8.7923,8.5249,0.0,0.0,0.0,0.0,0.0,0.0,0.0,0.0,0.0,0.0,0.0,0.0,0.0,0.0,0.0,0.0,0.0,0.0,0.0,0.0,0.0,0.0,0.0,0.0,0.0,0.0,0.0,0.0,0.0,0.0,0.0,0.0,0.0,0.0,0.0,0.0,0.0,0.0,0.0,0.0,0.0,0.0,0.0,0.0,0.0,0.0,0.0,0.0,0.0,0.0,0.0,0.0,7.1631,8.1399,9.4281,10.1605,10.3012,10.3226,10.3226,10.3012,9.8537,9.1232,0.0,0.0,0.0,0.0,0.0,0.0,0.0,0.0,0.0,0.0,0.0,0.0,0.0,0.0,0.0,0.0,0.0,0.0,0.0,0.0,0.0,0.0,0.0,0.0,0.0,0.0,0.0,0.0,0.0,0.0,0.0,0.0,0.0,0.0,0.0,0.0,0.0,0.0,0.0,0.0,0.0,8.391,8.8405,9.0367,9.1936,0.0,9.2221,9.1223,9.1062,9.3828,9.2794,8.3411,0.0,0.0,0.0,0.0,0.0,0.0,0.0,0.0,0.0,0.0,0.0,0.0,0.0,0.0,0.0,0.0,0.0,0.0,0.0,0.0,0.0,0.0,0.0,0.0,0.0,0.0,0.0,0.0,0.0,0.0,0.0,0.0,0.0,0.0,0.0,0.0,0.0,0.0,0.0,0.0,0.0,0.0,0.0,0.0,0.0,0.0,0.0,0.0,0.0,0.0,0.0,0.0,0.0,0.0,7.8195,9.2145,9.9536,9.9944,10.1034,10.1106,9.9873,9.5212,0.0,0.0,0.0,0.0,0.0,0.0,0.0,0.0,0.0,0.0,0.0,0.0,0.0,0.0,0.0,0.0,0.0,0.0,0.0,0.0,0.0,0.0,0.0,0.0,0.0,0.0,0.0,3.0002,0.0,0.0,0.0,0.0,0.0,0.0,0.0,0.0,0.0,0.0,0.0,0.0,0.0,0.0,8.3465,8.6961,8.8745,8.9813,0.0,0.0,8.7516,8.6323,8.8923,8.828,0.0,0.0,0.0,0.0,0.0,0.0,0.0,0.0,0.0,0.0,0.0,0.0,0.0,0.0,0.0,0.0,0.0,0.0,0.0,0.0,0.0,0.0,0.0,0.0,0.0,0.0,0.0,0.0,0.0,0.0,0.0,0.0,0.0,0.0,0.0,0.0,0.0,0.0,0.0,0.0,0.0,0.0,0.0,0.0,0.0,0.0,0.0,0.0,0.0,0.0,0.0,0.0,0.0,0.0,6.6778,7.587,8.8103,9.5892,9.868,9.9607,9.9679,9.8751,9.2647,8.5437,0.0,0.0,0.0,0.0,0.0,0.0,0.0,0.0,0.0,0.0,0.0,0.0,0.0,0.0,0.0,0.0,0.0,0.0,0.0,0.0,0.0,0.0,0.0,0.0,0.0,0.0,0.0,0.0,0.0,0.0,0.0,0.0,0.0,0.0,0.0,0.0,0.0,0.0,0.0,0.0,0.0,0.0,8.2568,8.292,0.0,0.0,0.0,8.1047,7.9444,0.0,0.0,0.0,0.0,0.0,0.0,0.0,0.0,0.0,0.0,0.0,0.0,0.0,0.0,0.0,0.0,0.0,0.0,0.0,0.0,0.0,0.0,0.0,0.0,0.0,0.0,0.0,0.0,0.0,0.0,0.0,0.0,0.0,0.0,0.0,0.0,0.0,0.0,0.0,0.0,0.0,0.0,0.0,0.0,0.0,0.0,0.0,0.0,0.0,0.0,0.0,0.0,0.0,0.0,0.0,0.0,0.0,7.3526,8.3576,9.1646,9.759,9.8154,9.8225,9.809,9.0936,8.3714,0.0,0.0,0.0,0.0,0.0,0.0,0.0,0.0,0.0,0.0,0.0,0.0,0.0,0.0,0.0,0.0,0.0,0.0,0.0,0.0,0.0,0.0,0.0,0.0,0.0,0.0,0.0,0.0,0.0,0.0,0.0,0.0,0.0,0.0,0.0,0.0,0.0,0.0,0.0,0.0,0.0,7.1778,7.6676,7.514,7.2979,0.0,0.0,7.2959,7.1828,7.414,0.0,0.0,0.0,0.0,0.0,0.0,0.0,0.0,0.0,0.0,0.0,0.0,0.0,0.0,0.0,0.0,0.0,0.0,0.0,0.0,0.0,0.0,0.0,0.0,0.0,0.0,0.0,0.0,0.0,0.0,0.0,0.0,0.0,0.0,0.0,0.0,0.0,0.0,0.0,0.0,0.0,0.0,0.0,0.0,0.0,0.0,0.0,0.0,0.0,0.0,0.0,0.0,0.0,0.0,0.0,0.0,7.0049,8.1014,8.8741,9.2826,9.4737,9.5426,9.477,9.0184,8.3698,0.0,0.0,0.0,0.0,0.0,0.0,0.0,0.0,0.0,0.0,0.0,0.0,0.0,0.0,0.0,0.0,0.0,0.0,0.0,0.0,0.0,0.0,0.0,0.0,0.0,0.0,0.0,0.0,0.0,0.0,0.0,0.0,0.0,0.0,0.0,0.0,0.0,0.0,0.0,0.0,0.0,7.0501,7.2318,7.011,0.0,0.0,0.0,0.0,6.6437,6.706,0.0,0.0,0.0,0.0,0.0,0.0,0.0,0.0,0.0,0.0,0.0,0.0,0.0,0.0,0.0,0.0,0.0,0.0,0.0,0.0,0.0,0.0,0.0,0.0,0.0,0.0,0.0,0.0,0.0,0.0,0.0,0.0,0.0,0.0,0.0,0.0,0.0,0.0,0.0,0.0,0.0,0.0,0.0,0.0,0.0,0.0,0.0,0.0,0.0,0.0,0.0,0.0,0.0,0.0,0.0,0.0,6.6778,7.6063,8.3855,8.9994,9.1141,9.1763,9.1993,8.7913,8.1791,0.0,0.0,0.0,0.0,0.0,0.0,0.0,0.0,0.0,0.0,0.0,0.0,0.0,0.0,0.0,0.0,0.0,0.0,0.0,0.0,0.0,0.0,0.0,0.0,0.0,0.0,0.0,0.0,0.0,0.0,0.0,0.0,0.0,0.0,0.0,0.0,0.0,0.0,0.0,0.0,6.1061,6.4626,6.6158,0.0,0.0,0.0,0.0,0.0,0.0,6.1761,6.1022,0.0,0.0,0.0,0.0,0.0,0.0,0.0,0.0,0.0,0.0,0.0,0.0,0.0,0.0,0.0,0.0,0.0,0.0,0.0,0.0,0.0,0.0,0.0,0.0,0.0,0.0,0.0,0.0,0.0,0.0,0.0,0.0,0.0,0.0,0.0,0.0,0.0,0.0,0.0,0.0,0.0,0.0,0.0,0.0,0.0,0.0,0.0,0.0,0.0,0.0,0.0,0.0,0.0,0.0,0.0,6.3603,7.0824,7.8746,8.7466,8.7628,8.833,8.9673,8.5247,7.8939,7.0918,0.0,0.0,0.0,0.0,0.0,0.0,0.0,0.0,0.0,0.0,0.0,0.0,0.0,0.0,0.0,0.0,0.0,0.0,0.0,0.0,0.0,0.0,0.0,0.0,0.0,0.0,0.0,0.0,0.0,0.0,0.0,0.0,0.0,0.0,0.0,0.0,0.0,0.0,0.0,5.491,5.7653,0.0,0.0,0.0,0.0,0.0,0.0,0.0,0.0,5.5923,0.0,0.0,0.0,0.0,0.0,0.0,0.0,0.0,0.0,0.0,0.0,0.0,0.0,0.0,0.0,0.0,0.0,0.0,0.0,0.0,0.0,0.0,0.0,0.0,0.0,0.0,0.0,0.0,0.0,0.0,0.0,0.0,0.0,0.0,0.0,0.0,0.0,0.0,0.0,0.0,0.0,0.0,0.0,0.0,0.0,0.0,0.0,0.0,0.0,0.0,0.0,0.0,0.0,0.0,0.0,0.0,6.783,7.5759,8.2904,8.4864,8.6582,8.8265,8.2923,7.5332,6.5695,0.0,0.0,0.0,0.0,0.0,0.0,0.0,0.0,0.0,0.0,0.0,0.0,0.0,0.0,0.0,0.0,0.0,0.0,0.0,0.0,0.0,0.0,0.0,0.0,0.0,0.0,0.0,0.0,0.0,0.0,0.0,0.0,0.0,0.0,0.0,0.0,0.0,0.0,4.2167,4.8998,0.0,0.0,0.0,0.0,0.0,0.0,0.0,0.0,5.2058,0.0,0.0,0.0,0.0,0.0,0.0,0.0,0.0,0.0,0.0,0.0,0.0,0.0,0.0,0.0,0.0,0.0,0.0,0.0,0.0,0.0,0.0,0.0,0.0,0.0,0.0,0.0,0.0,0.0,0.0,0.0,0.0,0.0,0.0,0.0,0.0,0.0,0.0,0.0,0.0,0.0,0.0,0.0,0.0,0.0,0.0,0.0,0.0,0.0,0.0,0.0,0.0,0.0,0.0,0.0,0.0,0.0,0.0,7.1824,7.9154,8.1669,8.3219,8.3762,7.6204,6.9181,0.0,0.0,0.0,0.0,0.0,0.0,0.0,0.0,0.0,0.0,0.0,0.0,0.0,0.0,0.0,0.0,0.0,0.0,0.0,0.0,0.0,0.0,0.0,0.0,0.0,0.0,0.0,0.0,0.0,0.0,0.0,0.0,0.0,0.0,0.0,0.0,0.0,0.0,0.0,0.0,0.0,0.0,0.0,0.0,0.0,0.0,0.0,0.0,0.0,0.0,0.0,0.0,0.0,0.0,0.0,0.0,0.0,0.0,0.0,0.0,0.0,0.0,0.0,0.0,0.0,0.0,0.0,0.0,0.0,0.0,0.0,0.0,0.0,0.0,0.0,0.0,0.0,0.0,0.0,0.0,0.0,0.0,0.0,0.0,0.0,0.0,0.0,0.0,0.0,0.0,0.0,0.0,0.0,0.0,0.0,0.0,0.0,0.0,0.0,0.0,0.0,0.0,0.0,0.0,0.0,0.0,0.0,0.0,6.7099,7.4315,7.7133,7.8593,7.8757,6.9869,6.3419,0.0,0.0,0.0,0.0,0.0,0.0,0.0,0.0,0.0,0.0,0.0,0.0,0.0,0.0,0.0,0.0,0.0,0.0,0.0,0.0,0.0,0.0,0.0,0.0,0.0,0.0,0.0,0.0,0.0,0.0,0.0,0.0,0.0,0.0,0.0,0.0,0.0,0.0,0.0,0.0,0.0,0.0,0.0,0.0,0.0,0.0,0.0,0.0,4.6515,0.0,0.0,0.0,0.0,0.0,0.0,0.0,0.0,0.0,0.0,0.0,0.0,0.0,0.0,0.0,0.0,0.0,0.0,0.0,0.0,0.0,0.0,0.0,0.0,0.0,0.0,0.0,0.0,0.0,0.0,0.0,0.0,0.0,0.0,0.0,0.0,0.0,0.0,0.0,0.0,0.0,0.0,0.0,0.0,0.0,0.0,0.0,0.0,0.0,0.0,0.0,0.0,0.0,0.0,0.0,0.0,0.0,0.0,0.0,6.0555,6.6616,6.9841,7.1878,7.2593,6.6701,6.023,0.0,0.0,0.0,0.0,0.0,0.0,0.0,0.0,0.0,0.0,0.0,0.0,0.0,0.0,0.0,0.0,0.0,0.0,0.0,0.0,0.0,0.0,0.0,0.0,0.0,0.0,0.0,0.0,0.0,0.0,0.0,0.0,0.0,0.0,0.0,0.0,0.0,0.0,0.0,0.0,0.0,0.0,0.0,0.0,0.0,0.0,0.0,0.0,0.0,0.0,0.0,0.0,0.0,0.0,0.0,0.0,0.0,0.0,0.0,0.0,0.0,0.0,0.0,0.0,0.0,0.0,0.0,0.0,0.0,0.0,0.0,0.0,0.0,0.0,0.0,0.0,0.0,0.0,0.0,0.0,0.0,0.0,0.0,0.0,0.0,0.0,0.0,0.0,0.0,0.0,0.0,0.0,0.0,0.0,0.0,0.0,0.0,0.0,0.0,0.0,0.0,0.0,0.0,0.0,0.0,0.0,0.0,0.0,5.5772,6.2214,6.6581,6.6411,6.1348,5.7784,5.3405,0.0,0.0,0.0,0.0,0.0,0.0,0.0,0.0,0.0,0.0,0.0,0.0,0.0,0.0,0.0,0.0,0.0,0.0,0.0,0.0,0.0,0.0,0.0,0.0,0.0,0.0,0.0,0.0,0.0,0.0,0.0,0.0,0.0,0.0,0.0,0.0,0.0,0.0,0.0,0.0,0.0,0.0,0.0,0.0,0.0,0.0,0.0,0.0,0.0,0.0,0.0,0.0,0.0,0.0,0.0,0.0,0.0,0.0,0.0,0.0,0.0,0.0,0.0,0.0,0.0,0.0,0.0,0.0,0.0,0.0,0.0,0.0,0.0,0.0,0.0,0.0,0.0,0.0,0.0,0.0,0.0,0.0,0.0,0.0,0.0,0.0,0.0,0.0,0.0,0.0,0.0,0.0,0.0,0.0,0.0,0.0,0.0,0.0,0.0,0.0,0.0,0.0,0.0,0.0,0.0,0.0,0.0,0.0,0.0,5.6414,5.9807,5.8273,5.172,4.9545,4.6877,0.0,0.0,0.0,0.0,0.0,0.0,0.0,0.0,0.0,0.0,0.0,0.0,0.0,0.0,0.0,0.0,0.0,0.0,0.0,0.0,0.0,0.0,0.0,0.0,0.0,0.0,0.0,0.0,0.0,0.0,0.0,0.0,0.0,0.0,0.0,0.0,0.0,0.0,0.0,0.0,0.0,0.0,0.0,0.0,0.0,0.0,0.0,0.0,0.0,0.0,0.0,0.0,0.0,0.0,0.0,0.0,0.0,0.0,0.0,0.0,0.0,0.0,0.0,0.0,0.0,0.0,0.0,0.0,0.0,0.0,0.0,0.0,0.0,0.0,0.0,0.0,0.0,0.0,0.0,0.0,0.0,0.0,0.0,0.0,0.0,0.0,0.0,0.0,0.0,0.0,0.0,0.0,0.0,0.0,0.0,0.0,0.0,0.0,0.0,0.0,0.0,0.0,0.0,0.0,0.0,0.0,0.0,0.0,0.0,4.7522,4.6214,4.572,4.6058,4.4338,4.1881,0.0,0.0,0.0,0.0,0.0,0.0,0.0,0.0,0.0,0.0,0.0,0.0,0.0,0.0,0.0,0.0,0.0,0.0,0.0,0.0,0.0,0.0,0.0,0.0,0.0,0.0,0.0,0.0,0.0,0.0,0.0,0.0,0.0,0.0,0.0,0.0,0.0,0.0,0.0,0.0,0.0,0.0,0.0,0.0,0.0,0.0,0.0,0.0,0.0,0.0,0.0,0.0,0.0,0.0,0.0,0.0,0.0,0.0,0.0,0.0,0.0,0.0,0.0,0.0,0.0,0.0,0.0,0.0,0.0,0.0,0.0,0.0,0.0,0.0,0.0,0.0,0.0,0.0,0.0,0.0,0.0,0.0,0.0,0.0,0.0,0.0,0.0,0.0,0.0,0.0,0.0,0.0,0.0,0.0,0.0,0.0,0.0,0.0,0.0,0.0,0.0,0.0,0.0,0.0,0.0,0.0,0.0,0.0,0.0,3.6445,3.7675,3.8889,4.0138,3.8687,3.6839,3.4741,0.0,0.0,0.0,0.0,0.0,0.0,0.0,0.0,0.0,0.0,0.0,0.0,0.0,0.0,0.0,0.0,0.0,0.0,0.0,0.0,0.0,0.0,0.0,0.0,0.0,0.0,0.0,0.0,0.0,0.0,0.0,0.0,0.0,0.0,0.0,0.0,0.0,0.0,0.0,0.0,0.0,0.0,0.0,0.0,0.0,0.0,0.0,0.0,0.0,0.0,0.0,0.0,0.0,0.0,0.0,0.0,0.0,0.0,0.0,0.0,0.0,0.0,0.0,0.0,0.0,0.0,0.0,0.0,0.0,0.0,0.0,0.0,0.0,0.0,0.0,0.0,0.0,0.0,0.0,0.0,0.0,0.0,0.0,0.0,0.0,0.0,0.0,0.0,0.0,0.0,0.0,0.0,0.0,0.0,0.0,0.0,0.0,0.0,0.0,0.0,0.0,0.0,0.0,0.0,0.0,0.0,0.0,0.0,2.8627,3.1613,3.3785,3.5027,3.4281,3.3187,0.0,0.0,0.0,0.0,0.0,0.0,0.0,0.0,0.0,0.0,0.0,0.0,0.0,0.0,0.0,0.0,0.0,0.0,0.0,0.0,0.0,0.0,0.0,0.0,0.0,0.0,0.0,0.0,0.0,0.0,0.0,0.0,0.0,0.0,0.0,0.0,0.0,0.0,0.0,0.0,0.0,0.0,0.0,0.0,0.0,0.0,0.0,0.0,0.0,0.0,0.0,0.0,0.0,0.0,0.0,0.0,0.0,0.0,0.0,0.0,0.0,0.0,0.0,0.0,0.0,0.0,0.0,0.0,0.0,0.0,0.0,0.0,0.0,0.0,0.0,0.0,0.0,0.0,0.0,0.0,0.0,0.0,0.0,0.0,0.0,0.0,0.0,0.0,0.0,0.0,0.0,0.0,0.0,0.0,0.0,0.0,0.0,0.0,0.0,0.0,0.0,0.0,0.0,0.0,0.0,0.0,0.0,0.0,2.0802,2.483,2.8052,3.0177,3.1129,3.1553,3.1174,0.0,0.0,0.0,0.0,0.0,0.0,0.0,0.0,0.0,0.0,0.0,0.0,0.0,0.0,0.0,0.0,0.0,0.0,0.0,0.0,0.0,0.0,0.0,0.0,0.0,0.0,0.0,0.0,0.0,0.0,0.0,0.0,0.0,0.0,0.0,0.0,0.0,0.0,0.0,0.0,0.0,0.0,0.0,0.0,0.0,0.0,0.0,0.0,0.0,0.0,0.0,0.0,0.0,0.0,0.0,0.0,0.0,0.0,0.0,0.0,0.0,0.0,0.0,0.0,0.0,0.0,0.0,0.0,0.0,0.0,0.0,0.0,0.0,0.0,0.0,0.0,0.0,0.0,0.0,0.0,0.0,0.0,0.0,0.0,0.0,0.0,0.0,0.0,0.0,0.0,0.0,0.0,0.0,0.0,0.0,0.0,0.0,0.0,0.0,0.0,0.0,0.0,0.0,0.0,0.0,0.0,0.0,0.0,0.0,2.2973,0.0,2.8027,2.9189,2.976,2.9954,0.0,0.0,0.0,0.0,0.0,0.0,0.0,0.0,0.0,0.0,0.0,0.0,0.0,0.0,0.0,0.0,0.0,0.0,0.0,0.0,0.0,0.0,0.0,0.0,0.0,0.0,0.0,0.0,0.0,0.0,0.0,0.0,0.0,0.0,0.0,0.0,0.0,0.0,0.0,0.0,0.0,0.0,0.0,0.0,0.0,0.0,0.0,0.0,0.0,0.0,0.0,0.0,0.0,0.0,0.0,0.0,0.0,0.0,0.0,0.0,0.0,0.0,0.0,0.0,0.0,0.0,0.0,0.0,0.0,0.0,0.0,0.0,0.0,0.0,0.0,0.0,0.0,0.0,0.0,0.0,0.0,0.0,0.0,0.0,0.0,0.0,0.0,0.0,0.0,0.0,0.0,0.0,0.0,0.0,0.0,0.0,0.0,0.0,0.0,0.0,0.0,0.0,0.0,0.0,0.0,0.0,0.0,0.0,0.0,2.1557,2.3761,2.5971,2.8188,2.9284,2.9779,0.0,0.0,0.0,0.0,0.0,0.0,0.0,0.0,0.0,0.0,0.0,0.0,0.0,0.0,0.0,0.0,0.0,0.0,0.0,0.0,0.0,0.0,0.0,0.0,0.0,0.0,0.0,0.0,0.0,0.0,0.0,0.0,0.0,0.0,0.0,0.0,0.0,0.0,0.0,0.0,0.0,0.0,0.0,0.0,0.0,0.0,0.0,0.0,0.0,0.0,0.0,0.0,0.0,0.0,0.0,0.0,0.0,0.0,0.0,0.0,0.0,0.0,0.0,0.0,0.0,0.0,0.0,0.0,0.0,0.0,0.0,0.0,0.0,0.0,0.0,0.0,0.0,0.0,0.0,0.0,0.0,0.0,0.0,0.0,0.0,0.0,0.0,0.0,0.0,0.0,0.0,0.0,0.0,0.0,0.0,0.0,0.0,0.0,0.0,0.0,0.0,0.0,0.0,0.0,0.0,0.0,0.0,0.0,0.0,2.0576,2.1552,2.3906,2.7514,2.9753,3.0372,0.0,0.0,0.0,0.0,0.0,0.0,0.0,0.0,0.0,0.0,0.0,0.0,0.0,0.0,0.0,0.0,0.0,0.0,0.0,0.0,0.0,0.0,0.0,0.0,0.0,0.0,0.0,0.0,0.0,0.0,0.0,0.0,0.0,0.0,0.0,0.0,0.0,0.0,0.0,0.0,0.0,0.0,0.0,0.0,0.0,0.0,0.0,0.0,0.0,0.0,0.0,0.0,0.0,0.0,0.0,0.0,0.0,0.0,0.0,0.0,0.0,0.0,0.0,0.0,0.0,0.0,0.0,0.0,0.0,0.0,0.0,0.0,0.0,0.0,0.0,0.0,0.0,0.0,0.0,0.0,0.0,0.0,0.0,0.0,0.0,0.0,0.0,0.0,0.0,0.0,0.0,0.0,0.0,0.0,0.0,0.0,0.0,0.0,0.0,0.0,0.0,0.0,0.0,0.0,0.0,0.0,0.0,0.0,0.0,0.0,2.0514,2.1619,2.3736,2.6341,2.7815,2.7969,0.0,0.0,0.0,0.0,0.0,0.0,0.0,0.0,0.0,0.0,0.0,0.0,0.0,0.0,0.0,0.0,0.0,0.0,0.0,0.0,0.0,0.0,0.0,0.0,0.0,0.0,0.0,0.0,0.0,0.0,0.0,0.0,0.0,0.0,0.0,0.0,0.0,0.0,0.0,0.0,0.0,0.0,0.0,0.0,0.0,0.0,0.0,0.0,0.0,0.0,0.0,0.0,0.0,0.0,0.0,0.0,0.0,0.0,0.0,0.0,0.0,0.0,0.0,0.0,0.0,0.0,0.0,0.0,0.0,0.0,0.0,0.0,0.0,0.0,0.0,0.0,0.0,0.0,0.0,0.0,0.0,0.0,0.0,0.0,0.0,0.0,0.0,0.0,0.0,0.0,0.0,0.0,0.0,0.0,0.0,0.0,0.0,0.0,0.0,0.0,0.0,0.0,0.0,0.0,0.0,0.0,0.0,0.0,0.0,0.0,2.0303,2.1197,2.3642,2.5605,0.0,0.0,0.0,0.0,0.0,0.0,0.0,0.0,0.0,0.0,0.0,0.0,0.0,0.0,0.0,0.0,0.0,0.0,0.0,0.0,0.0,0.0,0.0,0.0,0.0,0.0,0.0,0.0,0.0,0.0,0.0,0.0,0.0,0.0,0.0,0.0,0.0,0.0,0.0,0.0,0.0,0.0,0.0,0.0,0.0,0.0,0.0,0.0,0.0,0.0,0.0,0.0,0.0,0.0,0.0,0.0,0.0,0.0,0.0,0.0,0.0,0.0,0.0,0.0,0.0,0.0,0.0,0.0,0.0,0.0,0.0,0.0,0.0,0.0,0.0,0.0,0.0,0.0,0.0,0.0,0.0,0.0,0.0,0.0,0.0,0.0,0.0,0.0,0.0,0.0,0.0,0.0,0.0,0.0,0.0,0.0,0.0,0.0,0.0,0.0,0.0,0.0,0.0,0.0,0.0,0.0,0.0,0.0,0.0,0.0,0.0,1.9477,1.9585,2.141,0.0,2.5848,0.0,0.0,0.0,0.0,0.0,0.0,0.0,0.0,0.0,0.0,0.0,0.0,0.0,0.0,0.0,0.0,0.0,0.0,0.0,0.0,0.0,0.0,0.0,0.0,0.0,0.0,0.0,0.0,0.0,0.0,0.0,0.0,0.0,0.0,0.0,0.0,0.0,0.0,0.0,0.0,0.0,0.0,0.0,0.0,0.0,0.0,0.0,0.0,0.0,0.0,0.0,0.0,0.0,0.0,0.0,0.0,0.0,0.0,0.0,0.0,0.0,0.0,0.0,0.0,0.0,0.0,0.0,0.0,0.0,0.0,0.0,0.0,0.0,0.0,0.0,0.0,0.0,0.0,0.0,0.0,0.0,0.0,0.0,0.0,0.0,0.0,0.0,0.0,0.0,0.0,0.0,0.0,0.0,0.0,0.0,0.0,0.0,0.0,0.0,0.0,0.0,0.0,0.0,0.0,0.0,0.0,0.0,0.0,0.0,0.0,0.0,0.0,1.8794,2.0239,2.1924,0.0,0.0,0.0,0.0,0.0,0.0,0.0,0.0,0.0,0.0,0.0,0.0,0.0,0.0,0.0,0.0,0.0,0.0,0.0,0.0,0.0,0.0,0.0,0.0,0.0,0.0,0.0,0.0,0.0,0.0,0.0,0.0,0.0,0.0,0.0,0.0,0.0,0.0,0.0,0.0,0.0,0.0,0.0,0.0,0.0,0.0,0.0,0.0,0.0,0.0,0.0,0.0,0.0,0.0,0.0,0.0,0.0,0.0,0.0,0.0,0.0,0.0,0.0,0.0,0.0,0.0,0.0,0.0,0.0,0.0,0.0,0.0,0.0,0.0,0.0,0.0,0.0,0.0,0.0,0.0,0.0,0.0,0.0,0.0,0.0,0.0,0.0,0.0,0.0,0.0,0.0,0.0,0.0,0.0,0.0,0.0,0.0,0.0,0.0,0.0,0.0,0.0,0.0,0.0,0.0,0.0,0.0,0.0,0.0,0.0,1.6648,1.6772,1.7519,1.8634,2.014,0.0,0.0,0.0,0.0,0.0,0.0,0.0,0.0,0.0,0.0,0.0,0.0,0.0,0.0,0.0,0.0,0.0,0.0,0.0,0.0,0.0,0.0,0.0,0.0,0.0,0.0,0.0,0.0,0.0,0.0,0.0,0.0,0.0,0.0,0.0,0.0,0.0,0.0,0.0,0.0,0.0,0.0,0.0,0.0,0.0,0.0,0.0,0.0,0.0,0.0,0.0,0.0,0.0,0.0,0.0,0.0,0.0,0.0,0.0,0.0,0.0,0.0,0.0,0.0,0.0,0.0,0.0,0.0,0.0,0.0,0.0,0.0,0.0,0.0,0.0,0.0,0.0,0.0,0.0,0.0,0.0,0.0,0.0,0.0,0.0,0.0,0.0,0.0,0.0,0.0,0.0,0.0,0.0,0.0,0.0,0.0,0.0,0.0,0.0,0.0,0.0,0.0,0.0,0.0,0.0,0.0,0.0,0.0,0.0,0.0,0.0,0.0,0.0,0.0,1.9489,0.0,0.0,0.0,0.0,0.0,0.0,0.0,0.0,0.0,0.0,0.0,0.0,0.0,0.0,0.0,0.0,0.0,0.0,0.0,0.0,0.0,0.0,0.0,0.0,0.0,0.0,0.0,0.0,0.0,0.0,0.0,0.0,0.0,0.0,0.0,0.0,0.0,0.0,0.0,0.0,0.0,0.0,0.0,0.0,0.0,0.0,0.0,0.0,0.0,0.0,0.0,0.0,0.0,0.0,0.0,0.0,0.0,0.0,0.0,0.0,0.0,0.0,0.0,0.0,0.0,0.0,0.0,0.0,0.0,0.0,0.0,0.0,0.0,0.0,0.0,0.0,0.0,0.0,0.0,0.0,0.0,0.0,0.0,0.0,0.0,0.0,0.0,0.0,0.0,0.0,0.0,0.0,0.0,0.0,0.0,0.0,0.0,0.0,0.0,0.0,0.0,0.0,0.0,0.0,0.0,0.0,0.0,0.0,0.0,0.0,0.0,0.0,0.0,0.0,0.0,0.0,0.0,0.0,0.0,0.0,0.0,0.0,0.0,0.0,0.0,0.0,0.0,0.0,0.0,0.0,0.0,0.0,0.0,0.0,0.0,0.0,0.0,0.0,0.0,0.0,0.0,0.0,0.0,0.0,0.0,0.0,0.0,0.0,0.0,0.0,0.0,0.0,0.0,0.0,0.0,0.0,0.0,0.0,0.0,0.0,0.0,0.0,0.0,0.0,0.0,0.0,0.0,0.0,0.0,0.0,0.0,0.0,0.0,0.0,0.0,0.0,0.0,0.0,0.0,0.0,0.0,0.0,0.0,0.0,0.0,0.0,0.0,0.0,0.0,0.0,0.0,0.0,0.0,0.0,0.0,0.0,0.0,0.0,0.0,0.0,0.0,0.0,0.0,0.0,0.0,0.0,0.0,0.0,0.0,0.0,0.0,0.0,0.0,0.0,0.0,0.0,0.0,0.0,0.0,0.0,0.0,0.0,0.0,0.0,0.0,0.0,0.0,0.0,0.0,0.0,0.0,0.0,0.0,0.0,0.0,0.0,0.0,0.0,0.0,0.0,0.0,0.0,0.0,0.0,0.0,0.0,0.0,0.0,0.0,0.0,0.0,0.0,0.0,0.0,0.0,0.0,0.0,0.0,0.0,0.0,0.0,0.0,0.0,0.0,0.0,0.0,0.0,0.0,0.0,0.0,0.0,0.0,0.0,0.0,0.0,0.0,0.0,0.0,0.0,0.0,0.0,0.0,0.0,0.0,0.0,0.0,0.0,0.0,0.0,0.0,0.0,0.0,0.0,0.0,0.0,0.0,0.0,0.0,0.0,0.0,0.0,0.0,0.0,0.0,0.0,0.0,0.0,0.0,0.0,0.0,0.0,0.0,0.0,0.0,0.0,0.0,0.0,0.0,0.0,0.0,0.0,0.0,0.0,0.0,0.0,0.0,0.0,0.0,0.0,0.0,0.0,0.0,0.0,0.0,0.0,0.0,0.0,0.0,0.0,0.0,0.0,0.0,0.0,0.0,0.0,0.0,0.0,0.0,0.0,0.0,0.0,0.0,0.0,0.0,0.0,0.0,0.0,0.0,0.0,0.0,0.0,0.0,0.0,0.0,0.0,0.0,0.0,0.0,0.0,0.0,0.0,0.0,0.0,0.0,0.0,0.0,0.0,0.0,0.0,0.0,0.0,0.0,0.0,0.0,0.0,0.0,0.0,0.0,0.0,0.0,0.0,0.0,0.0,0.0,0.0,0.0,0.0,0.0,0.0,0.0,0.0,0.0,0.0,0.0,0.0,0.0,0.0,0.0,0.0,0.0,0.0,0.0,0.0,0.0,0.0,0.0,0.0,0.0,0.0,0.0,0.0,0.0,0.0,0.0,0.0,0.0,0.0,0.0,0.0,0.0,0.0,0.0,0.0,0.0,0.0,0.0,0.0,0.0,0.0,0.0,0.0,0.0,0.0,0.0,0.0,0.0,0.0,0.0,0.0,0.0,0.0,0.0,0.0,0.0,0.0,0.0,0.0,0.0,0.0,0.0,0.0,0.0,0.0,0.0,0.0,0.0,0.0,0.0,0.0,0.0,0.0,0.0,0.0,0.0,0.0,0.0,0.0,0.0,0.0,0.0,0.0,0.0,0.0,0.0,0.0,0.0,0.0,0.0,0.0,0.0,0.0,0.0,0.0,0.0,0.0,0.0,0.0,0.0,0.0,0.0,0.0,0.0,0.0,0.0,0.0,0.0,0.0,0.0,0.0,0.0,0.0,0.0,0.0,0.0,0.0,0.0,0.0,0.0,0.0,0.0,0.0,0.0,0.0,0.0,0.0,0.0,0.0,0.0,0.0,0.0,0.0,0.0,0.0,0.0,0.0,0.0,0.0,0.0,0.0,0.0,0.0,0.0,0.0,0.0,0.0,0.0,0.0,0.0,0.0,0.0,0.0,0.0,0.0,0.0,0.0,0.0,0.0,0.0,0.0,0.0,0.0,0.0,0.0,0.0,0.0,0.0,0.0,0.0,0.0,0.0,0.0,0.0,0.0,0.0,0.0,0.0,0.0,0.0,0.0,0.0,0.0,0.0,0.0,0.0,0.0,0.0,0.0,0.0,0.0,0.0,0.0,0.0,0.0,0.0,0.0,0.0,0.0,0.0,0.0,0.0,0.0,0.0,0.0,0.0,0.0,0.0,0.0,0.0,0.0,0.0,0.0,0.0,0.0,0.0,0.0,0.0,0.0,0.0,0.0,0.0,0.0,0.0,0.0,0.0,0.0,0.0,0.0,0.0,0.0,0.0,0.0,0.0,0.0,0.0,0.0,0.0,0.0,0.0,0.0,0.0,0.0,0.0,0.0,0.0,0.0,0.0,0.0,0.0,0.0,0.0,0.0,0.0,0.0,0.0,0.0,0.0,0.0,0.0,0.0,0.0,0.0,0.0,0.0,0.0,0.0,0.0,0.0,0.0,0.0,0.0,0.0,0.0,0.0,0.0,0.0,0.0,0.0,0.0,0.0,0.0,0.0,0.0,0.0,0.0,0.0,0.0,0.0,0.0,0.0,0.0,0.0,0.0,0.0,0.0,0.0,0.0,0.0,0.0,0.0,0.0,0.0,0.0,0.0,0.0,0.0,0.0,0.0,0.0,0.0,0.0,0.0,0.0,0.0,0.0,0.0,0.0,0.0,0.0,0.0,0.0,0.0,0.0,0.0,0.0,0.0,0.0,0.0,0.0,0.0,0.0,0.0,0.0,0.0,0.0,0.0,0.0,0.0,0.0,0.0,0.0,0.0,0.0,0.0,0.0,0.0,0.0,0.0,0.0,0.0,0.0,0.0,0.0,0.0,0.0,0.0,0.0,0.0,0.0,0.0,0.0,0.0,0.0,0.0,0.0,0.0,0.0,0.0,0.0,0.0,0.0,0.0,0.0,0.0,0.0,0.0,0.0,0.0,0.0,0.0,0.0,0.0,0.0,0.0,0.0,0.0,0.0,0.0,0.0,0.0,0.0,0.0,0.0,0.0,0.0,0.0,0.0,0.0,0.0,0.0,0.0,0.0,0.0,0.0,0.0,0.0,0.0,0.0,0.0,0.0,0.0,0.0,0.0,0.0,0.0,0.0,0.0,0.0,0.0,0.0,0.0,0.0,0.0,0.0,0.0,0.0,0.0,0.0,0.0,0.0,0.0,0.0,0.0,0.0,0.0,0.0,0.0,0.0,0.0,0.0,0.0,0.0,0.0,0.0,0.0,0.0,0.0,0.0,0.0,0.0,0.0,0.0,0.0,0.0,0.0,0.0,0.0,0.0,0.0,0.0,0.0,0.0,0.0,0.0,0.0,0.0,0.0,0.0,0.0,0.0,0.0,0.0,0.0,0.0,0.0,0.0,0.0,0.0,0.0,0.0,0.0,0.0,0.0,0.0,0.0,0.0,0.0,0.0,0.0,0.0,0.0,0.0,0.0,0.0,0.0,0.0,0.0,0.0,0.0,0.0,0.0,0.0,0.0,0.0,0.0,0.0,0.0,0.0,0.0,0.0,0.0,0.0,0.0,0.0,0.0,0.0,0.0,0.0,0.0,0.0,0.0,0.0,0.0,0.0,0.0,0.0,0.0,0.0,0.0,0.0,0.0,0.0,0.0,0.0,0.0,0.0,0.0,0.0,0.0,0.0,0.0,0.0,0.0,0.0,0.0,0.0,0.0,0.0,0.0,0.0,0.0,0.0,0.0,0.0,0.0,0.0,0.0,0.0,0.0,0.0,0.0,0.0,0.0,0.0,0.0,0.0,0.0,0.0,0.0,0.0,0.0,0.0,0.0,0.0,0.0,0.0,0.0,0.0,0.0,0.0,0.0,0.0,0.0,0.0,0.0,0.0,0.0,0.0,0.0]}]]]